| time (UTC) | temp C | wind direction | speed KPH | gust KPH | rain 1hr cm | rain 24hr cm | rain mn cm | humidity % | barometer mb |
| 20260906064720 | 28 | 360 | 4.8 | 14.5 | 0.00 | 0.00 | 0.00 | 75 | 1014.2 |
| 20260906064641 | 28 | 360 | 4.8 | 14.5 | 0.00 | 0.00 | 0.00 | 75 | 1014.3 |
| 20260906064540 | 28 | 360 | 6.4 | 16.1 | 0.00 | 0.00 | 0.00 | 75 | 1014.3 |
| 20260906064420 | 28 | 360 | 6.4 | 16.1 | 0.00 | 0.00 | 0.00 | 75 | 1014.3 |
| 20260906064320 | 28 | 360 | 6.4 | 16.1 | 0.00 | 0.00 | 0.00 | 75 | 1014.3 |
| 20260906064225 | 28 | 360 | 6.4 | 16.1 | 0.00 | 0.00 | 0.00 | 75 | 1014.3 |
| 20260906064124 | 28 | 360 | 6.4 | 16.1 | 0.00 | 0.00 | 0.00 | 75 | 1014.2 |
| 20260906064025 | 28 | 360 | 8.0 | 16.1 | 0.00 | 0.00 | 0.00 | 75 | 1014.3 |
| 20260906063925 | 28 | 360 | 8.0 | 16.1 | 0.00 | 0.00 | 0.00 | 75 | 1014.2 |
| 20260906063825 | 28 | 360 | 6.4 | 16.1 | 0.00 | 0.00 | 0.00 | 75 | 1014.2 |
| 20260906063745 | 28 | 360 | 4.8 | 16.1 | 0.00 | 0.00 | 0.00 | 75 | 1014.2 |
| 20260906063646 | 28 | 360 | 4.8 | 12.9 | 0.00 | 0.00 | 0.00 | 75 | 1014.2 |
| 20260906063526 | 28 | 360 | 6.4 | 12.9 | 0.00 | 0.00 | 0.00 | 75 | 1014.2 |
| 20260906063429 | 28 | 360 | 6.4 | 12.9 | 0.00 | 0.00 | 0.00 | 75 | 1014.2 |
| 20260906063331 | 28 | 360 | 6.4 | 12.9 | 0.00 | 0.00 | 0.00 | 75 | 1014.3 |
| 20260906063231 | 28 | 360 | 6.4 | 12.9 | 0.00 | 0.00 | 0.00 | 74 | 1014.3 |
| 20260906063132 | 28 | 360 | 6.4 | 12.9 | 0.00 | 0.00 | 0.00 | 74 | 1014.2 |
| 20260906063034 | 28 | 360 | 4.8 | 12.9 | 0.00 | 0.00 | 0.00 | 74 | 1014.3 |
| 20260906062934 | 28 | 360 | 4.8 | 12.9 | 0.00 | 0.00 | 0.00 | 74 | 1014.3 |
| 20260906062818 | 28 | 360 | 6.4 | 12.9 | 0.00 | 0.00 | 0.00 | 74 | 1014.3 |
| 20260906062718 | 28 | 360 | 4.8 | 12.9 | 0.00 | 0.00 | 0.00 | 74 | 1014.3 |
| 20260906062618 | 28 | 360 | 4.8 | 12.9 | 0.00 | 0.00 | 0.00 | 74 | 1014.4 |
| 20260906062539 | 28 | 360 | 3.2 | 9.7 | 0.00 | 0.00 | 0.00 | 74 | 1014.4 |
| 20260906062417 | 28 | 360 | 3.2 | 12.9 | 0.00 | 0.00 | 0.00 | 74 | 1014.4 |
| 20260906062318 | 28 | 360 | 3.2 | 14.5 | 0.00 | 0.00 | 0.00 | 74 | 1014.4 |
| 20260906062218 | 28 | 360 | 3.2 | 14.5 | 0.00 | 0.00 | 0.00 | 74 | 1014.4 |
| 20260906062123 | 28 | 360 | 3.2 | 14.5 | 0.00 | 0.00 | 0.00 | 74 | 1014.4 |
| 20260906062024 | 28 | 360 | 4.8 | 14.5 | 0.00 | 0.00 | 0.00 | 74 | 1014.5 |
| 20260906061924 | 28 | 360 | 6.4 | 14.5 | 0.00 | 0.00 | 0.00 | 74 | 1014.5 |
| 20260906061825 | 28 | 360 | 6.4 | 14.5 | 0.00 | 0.00 | 0.00 | 74 | 1014.4 |
| 20260906061724 | 28 | 360 | 8.0 | 14.5 | 0.00 | 0.00 | 0.00 | 74 | 1014.3 |
| 20260906061625 | 28 | 360 | 8.0 | 14.5 | 0.00 | 0.00 | 0.00 | 74 | 1014.4 |
| 20260906061526 | 28 | 360 | 8.0 | 14.5 | 0.00 | 0.00 | 0.00 | 74 | 1014.5 |
| 20260906061429 | 28 | 360 | 6.4 | 14.5 | 0.00 | 0.00 | 0.00 | 74 | 1014.5 |
| 20260906061330 | 28 | 360 | 6.4 | 14.5 | 0.00 | 0.00 | 0.00 | 74 | 1014.5 |
| 20260906061231 | 28 | 360 | 6.4 | 14.5 | 0.00 | 0.00 | 0.00 | 74 | 1014.5 |
| 20260906061132 | 28 | 360 | 6.4 | 14.5 | 0.00 | 0.00 | 0.00 | 74 | 1014.6 |
| 20260906061032 | 28 | 360 | 6.4 | 14.5 | 0.00 | 0.00 | 0.00 | 74 | 1014.6 |
| 20260906060933 | 28 | 360 | 6.4 | 16.1 | 0.00 | 0.00 | 0.00 | 74 | 1014.6 |
| 20260906060819 | 28 | 360 | 4.8 | 16.1 | 0.00 | 0.00 | 0.00 | 74 | 1014.6 |
| 20260906060720 | 28 | 360 | 4.8 | 16.1 | 0.00 | 0.00 | 0.00 | 74 | 1014.6 |
| 20260906060620 | 28 | 360 | 4.8 | 16.1 | 0.00 | 0.00 | 0.00 | 74 | 1014.6 |
| 20260906060519 | 28 | 360 | 6.4 | 16.1 | 0.00 | 0.00 | 0.00 | 74 | 1014.5 |
| 20260906060420 | 28 | 360 | 6.4 | 16.1 | 0.00 | 0.00 | 0.00 | 73 | 1014.6 |
| 20260906060320 | 28 | 360 | 6.4 | 19.3 | 0.00 | 0.00 | 0.00 | 73 | 1014.5 |
| 20260906060222 | 28 | 360 | 8.0 | 19.3 | 0.00 | 0.00 | 0.00 | 73 | 1014.5 |
| 20260906060125 | 28 | 227 | 9.7 | 19.3 | 0.00 | 0.00 | 0.00 | 73 | 1014.6 |
| 20260906060026 | 28 | 360 | 9.7 | 19.3 | 0.00 | 0.00 | 0.00 | 73 | 1014.5 |
| 20260906055926 | 28 | 360 | 9.7 | 19.3 | 0.00 | 0.00 | 0.00 | 73 | 1014.5 |
| 20260906055848 | 28 | 360 | 8.0 | 19.3 | 0.00 | 0.00 | 0.00 | 73 | 1014.6 |
| 20260906055727 | 28 | 360 | 8.0 | 19.3 | 0.00 | 0.00 | 0.00 | 73 | 1014.5 |
| 20260906055628 | 28 | 360 | 8.0 | 22.5 | 0.00 | 0.00 | 0.00 | 73 | 1014.5 |
| 20260906055528 | 28 | 360 | 8.0 | 22.5 | 0.00 | 0.00 | 0.00 | 73 | 1014.4 |
| 20260906055433 | 28 | 360 | 8.0 | 22.5 | 0.00 | 0.00 | 0.00 | 73 | 1014.4 |
| 20260906055353 | 28 | 360 | 6.4 | 22.5 | 0.00 | 0.00 | 0.00 | 73 | 1014.5 |
| 20260906055230 | 28 | 360 | 6.4 | 22.5 | 0.00 | 0.00 | 0.00 | 73 | 1014.4 |
| 20260906055131 | 28 | 360 | 8.0 | 22.5 | 0.00 | 0.00 | 0.00 | 73 | 1014.4 |
| 20260906055032 | 28 | 360 | 9.7 | 22.5 | 0.00 | 0.00 | 0.00 | 73 | 1014.4 |
| 20260906054932 | 28 | 360 | 9.7 | 22.5 | 0.00 | 0.00 | 0.00 | 73 | 1014.4 |
| 20260906054834 | 28 | 360 | 9.7 | 20.9 | 0.00 | 0.00 | 0.00 | 73 | 1014.3 |
| 20260906054719 | 28 | 360 | 11.3 | 20.9 | 0.00 | 0.00 | 0.00 | 73 | 1014.3 |
| 20260906054640 | 28 | 360 | 11.3 | 20.9 | 0.00 | 0.00 | 0.00 | 73 | 1014.3 |
| 20260906054520 | 28 | 360 | 11.3 | 19.3 | 0.00 | 0.00 | 0.00 | 73 | 1014.2 |
| 20260906054419 | 28 | 360 | 9.7 | 19.3 | 0.00 | 0.00 | 0.00 | 73 | 1014.2 |
| 20260906054320 | 28 | 360 | 8.0 | 19.3 | 0.00 | 0.00 | 0.00 | 73 | 1014.1 |
| 20260906054222 | 28 | 360 | 9.7 | 19.3 | 0.00 | 0.00 | 0.00 | 73 | 1014.1 |
| 20260906054122 | 28 | 360 | 9.7 | 19.3 | 0.00 | 0.00 | 0.00 | 73 | 1014.2 |
| 20260906054026 | 28 | 360 | 8.0 | 19.3 | 0.00 | 0.00 | 0.00 | 73 | 1014.2 |
| 20260906053927 | 28 | 360 | 4.8 | 19.3 | 0.00 | 0.00 | 0.00 | 73 | 1014.2 |
| 20260906053826 | 28 | 360 | 4.8 | 17.7 | 0.00 | 0.00 | 0.00 | 73 | 1014.2 |
| 20260906053747 | 28 | 192 | 6.4 | 17.7 | 0.00 | 0.00 | 0.00 | 73 | 1014.2 |
| 20260906053627 | 28 | 360 | 6.4 | 17.7 | 0.00 | 0.00 | 0.00 | 73 | 1014.2 |
| 20260906053527 | 28 | 360 | 9.7 | 17.7 | 0.00 | 0.00 | 0.00 | 73 | 1014.2 |
| 20260906053427 | 28 | 360 | 8.0 | 17.7 | 0.00 | 0.00 | 0.00 | 73 | 1014.2 |
| 20260906053347 | 28 | 360 | 8.0 | 17.7 | 0.00 | 0.00 | 0.00 | 73 | 1014.2 |
| 20260906053231 | 28 | 360 | 6.4 | 16.1 | 0.00 | 0.00 | 0.00 | 72 | 1014.2 |
| 20260906053131 | 28 | 360 | 8.0 | 16.1 | 0.00 | 0.00 | 0.00 | 72 | 1014.2 |
| 20260906053032 | 28 | 360 | 8.0 | 16.1 | 0.00 | 0.00 | 0.00 | 72 | 1014.2 |
| 20260906052951 | 28 | 360 | 6.4 | 16.1 | 0.00 | 0.00 | 0.00 | 72 | 1014.3 |
| 20260906052832 | 28 | 360 | 4.8 | 16.1 | 0.00 | 0.00 | 0.00 | 72 | 1014.3 |
| 20260906052732 | 28 | 360 | 4.8 | 16.1 | 0.00 | 0.00 | 0.00 | 72 | 1014.3 |
| 20260906052617 | 28 | 360 | 6.4 | 16.1 | 0.00 | 0.00 | 0.00 | 72 | 1014.3 |
| 20260906052517 | 28 | 360 | 8.0 | 20.9 | 0.00 | 0.00 | 0.00 | 72 | 1014.2 |
| 20260906052419 | 28 | 360 | 8.0 | 20.9 | 0.00 | 0.00 | 0.00 | 72 | 1014.2 |
| 20260906052320 | 28 | 360 | 8.0 | 20.9 | 0.00 | 0.00 | 0.00 | 72 | 1014.2 |
| 20260906052240 | 28 | 360 | 6.4 | 20.9 | 0.00 | 0.00 | 0.00 | 72 | 1014.3 |
| 20260906052120 | 28 | 360 | 4.8 | 20.9 | 0.00 | 0.00 | 0.00 | 72 | 1014.3 |
| 20260906052020 | 28 | 360 | 8.0 | 20.9 | 0.00 | 0.00 | 0.00 | 72 | 1014.4 |
| 20260906051924 | 28 | 360 | 9.7 | 20.9 | 0.00 | 0.00 | 0.00 | 72 | 1014.3 |
| 20260906051824 | 28 | 360 | 11.3 | 20.9 | 0.00 | 0.00 | 0.00 | 72 | 1014.4 |
| 20260906051725 | 28 | 360 | 9.7 | 20.9 | 0.00 | 0.00 | 0.00 | 72 | 1014.4 |
| 20260906051625 | 28 | 360 | 6.4 | 17.7 | 0.00 | 0.00 | 0.00 | 72 | 1014.4 |
| 20260906051526 | 28 | 360 | 8.0 | 17.7 | 0.00 | 0.00 | 0.00 | 72 | 1014.4 |
| 20260906051425 | 28 | 360 | 8.0 | 17.7 | 0.00 | 0.00 | 0.00 | 72 | 1014.4 |
| 20260906051326 | 28 | 360 | 8.0 | 17.7 | 0.00 | 0.00 | 0.00 | 72 | 1014.4 |
| 20260906051226 | 28 | 360 | 6.4 | 17.7 | 0.00 | 0.00 | 0.00 | 72 | 1014.4 |
| 20260906051131 | 28 | 360 | 8.0 | 17.7 | 0.00 | 0.00 | 0.00 | 72 | 1014.3 |
| 20260906051031 | 28 | 360 | 8.0 | 17.7 | 0.00 | 0.00 | 0.00 | 72 | 1014.4 |
| 20260906050932 | 28 | 360 | 8.0 | 17.7 | 0.00 | 0.00 | 0.00 | 72 | 1014.3 |
| 20260906050833 | 28 | 360 | 9.7 | 17.7 | 0.00 | 0.00 | 0.00 | 72 | 1014.4 |
| 20260906050732 | 28 | 360 | 11.3 | 24.1 | 0.00 | 0.00 | 0.00 | 71 | 1014.4 |
| 20260906050633 | 28 | 360 | 9.7 | 24.1 | 0.00 | 0.00 | 0.00 | 71 | 1014.4 |
| 20260906050516 | 28 | 360 | 8.0 | 24.1 | 0.00 | 0.00 | 0.00 | 71 | 1014.4 |
| 20260906050437 | 28 | 360 | 6.4 | 24.1 | 0.00 | 0.00 | 0.00 | 71 | 1014.5 |
| 20260906050317 | 28 | 360 | 4.8 | 24.1 | 0.00 | 0.00 | 0.00 | 71 | 1014.5 |
| 20260906050238 | 28 | 360 | 6.4 | 24.1 | 0.00 | 0.00 | 0.00 | 71 | 1014.6 |
| 20260906050138 | 28 | 360 | 8.0 | 24.1 | 0.00 | 0.00 | 0.00 | 71 | 1014.6 |
| 20260906050039 | 28 | 360 | 9.7 | 24.1 | 0.00 | 0.00 | 0.00 | 71 | 1014.5 |
| 20260906045952 | 28 | 360 | 9.7 | 24.1 | 0.00 | 0.00 | 0.00 | 71 | 1014.5 |
| 20260906045832 | 28 | 360 | 9.7 | 24.1 | 0.00 | 0.00 | 0.00 | 71 | 1014.5 |
| 20260906045731 | 28 | 360 | 9.7 | 19.3 | 0.00 | 0.00 | 0.00 | 71 | 1014.6 |
| 20260906045616 | 28 | 360 | 9.7 | 19.3 | 0.00 | 0.00 | 0.00 | 71 | 1014.5 |
| 20260906045517 | 28 | 360 | 8.0 | 19.3 | 0.00 | 0.00 | 0.00 | 71 | 1014.5 |
| 20260906045418 | 29 | 360 | 8.0 | 19.3 | 0.00 | 0.00 | 0.00 | 71 | 1014.5 |
| 20260906045319 | 29 | 360 | 6.4 | 19.3 | 0.00 | 0.00 | 0.00 | 71 | 1014.4 |
| 20260906045219 | 29 | 360 | 8.0 | 24.1 | 0.00 | 0.00 | 0.00 | 71 | 1014.4 |
| 20260906045119 | 29 | 360 | 9.7 | 24.1 | 0.00 | 0.00 | 0.00 | 71 | 1014.4 |
| 20260906045044 | 29 | 360 | 9.7 | 24.1 | 0.00 | 0.00 | 0.00 | 71 | 1014.2 |
| 20260906044924 | 29 | 360 | 9.7 | 24.1 | 0.00 | 0.00 | 0.00 | 71 | 1014.3 |
| 20260906044844 | 29 | 360 | 6.4 | 24.1 | 0.00 | 0.00 | 0.00 | 71 | 1014.3 |
| 20260906044725 | 29 | 360 | 6.4 | 24.1 | 0.00 | 0.00 | 0.00 | 71 | 1014.3 |
| 20260906044625 | 29 | 360 | 8.0 | 24.1 | 0.00 | 0.00 | 0.00 | 71 | 1014.3 |
| 20260906044525 | 29 | 360 | 9.7 | 24.1 | 0.00 | 0.00 | 0.00 | 71 | 1014.4 |
| 20260906044426 | 29 | 360 | 12.9 | 24.1 | 0.00 | 0.00 | 0.00 | 71 | 1014.3 |
| 20260906044331 | 29 | 360 | 12.9 | 24.1 | 0.00 | 0.00 | 0.00 | 71 | 1014.4 |
| 20260906044231 | 29 | 360 | 12.9 | 20.9 | 0.00 | 0.00 | 0.00 | 71 | 1014.5 |
| 20260906044131 | 29 | 360 | 12.9 | 20.9 | 0.00 | 0.00 | 0.00 | 71 | 1014.3 |
| 20260906044032 | 29 | 360 | 12.9 | 20.9 | 0.00 | 0.00 | 0.00 | 70 | 1014.4 |
| 20260906043932 | 29 | 360 | 12.9 | 19.3 | 0.00 | 0.00 | 0.00 | 70 | 1014.5 |
| 20260906043833 | 29 | 360 | 11.3 | 19.3 | 0.00 | 0.00 | 0.00 | 70 | 1014.5 |
| 20260906043717 | 29 | 360 | 11.3 | 19.3 | 0.00 | 0.00 | 0.00 | 70 | 1014.5 |
| 20260906043618 | 29 | 360 | 9.7 | 19.3 | 0.00 | 0.00 | 0.00 | 70 | 1014.4 |
| 20260906043518 | 29 | 360 | 11.3 | 25.7 | 0.00 | 0.00 | 0.00 | 70 | 1014.5 |
| 20260906043419 | 29 | 360 | 9.7 | 25.7 | 0.00 | 0.00 | 0.00 | 70 | 1014.5 |
| 20260906043339 | 29 | 360 | 11.3 | 25.7 | 0.00 | 0.00 | 0.00 | 70 | 1014.5 |
| 20260906043219 | 29 | 360 | 11.3 | 25.7 | 0.00 | 0.00 | 0.00 | 70 | 1014.5 |
| 20260906043120 | 29 | 360 | 12.9 | 25.7 | 0.00 | 0.00 | 0.00 | 70 | 1014.6 |
| 20260906043025 | 29 | 360 | 12.9 | 25.7 | 0.00 | 0.00 | 0.00 | 70 | 1014.6 |
| 20260906042925 | 29 | 360 | 12.9 | 25.7 | 0.00 | 0.00 | 0.00 | 70 | 1014.6 |
| 20260906042826 | 29 | 360 | 14.5 | 25.7 | 0.00 | 0.00 | 0.00 | 70 | 1014.6 |
| 20260906042727 | 29 | 360 | 14.5 | 25.7 | 0.00 | 0.00 | 0.00 | 70 | 1014.5 |
| 20260906042628 | 29 | 360 | 12.9 | 25.7 | 0.00 | 0.00 | 0.00 | 70 | 1014.6 |
| 20260906042528 | 29 | 360 | 11.3 | 25.7 | 0.00 | 0.00 | 0.00 | 70 | 1014.5 |
| 20260906042430 | 29 | 360 | 11.3 | 25.7 | 0.00 | 0.00 | 0.00 | 70 | 1014.5 |
| 20260906042335 | 29 | 360 | 12.9 | 25.7 | 0.00 | 0.00 | 0.00 | 69 | 1014.5 |
| 20260906042235 | 29 | 360 | 11.3 | 25.7 | 0.00 | 0.00 | 0.00 | 69 | 1014.5 |
| 20260906042136 | 29 | 360 | 11.3 | 30.6 | 0.00 | 0.00 | 0.00 | 69 | 1014.5 |
| 20260906042057 | 29 | 360 | 11.3 | 30.6 | 0.00 | 0.00 | 0.00 | 69 | 1014.4 |
| 20260906041936 | 29 | 360 | 12.9 | 30.6 | 0.00 | 0.00 | 0.00 | 69 | 1014.4 |
| 20260906041836 | 29 | 360 | 12.9 | 30.6 | 0.00 | 0.00 | 0.00 | 69 | 1014.5 |
| 20260906041735 | 30 | 360 | 16.1 | 30.6 | 0.00 | 0.00 | 0.00 | 69 | 1014.5 |
| 20260906041620 | 30 | 360 | 17.7 | 30.6 | 0.00 | 0.00 | 0.00 | 69 | 1014.5 |
| 20260906041520 | 30 | 360 | 17.7 | 30.6 | 0.00 | 0.00 | 0.00 | 69 | 1014.5 |
| 20260906041422 | 30 | 360 | 17.7 | 30.6 | 0.00 | 0.00 | 0.00 | 69 | 1014.4 |
| 20260906041322 | 30 | 360 | 17.7 | 32.2 | 0.00 | 0.00 | 0.00 | 69 | 1014.4 |
| 20260906041222 | 30 | 360 | 16.1 | 32.2 | 0.00 | 0.00 | 0.00 | 69 | 1014.5 |
| 20260906041123 | 30 | 360 | 14.5 | 32.2 | 0.00 | 0.00 | 0.00 | 69 | 1014.4 |
| 20260906041023 | 30 | 360 | 14.5 | 32.2 | 0.00 | 0.00 | 0.00 | 69 | 1014.4 |
| 20260906040927 | 30 | 360 | 12.9 | 32.2 | 0.00 | 0.00 | 0.00 | 69 | 1014.4 |
| 20260906040827 | 30 | 360 | 16.1 | 32.2 | 0.00 | 0.00 | 0.00 | 69 | 1014.4 |
| 20260906040727 | 30 | 360 | 17.7 | 32.2 | 0.00 | 0.00 | 0.00 | 69 | 1014.4 |
| 20260906040647 | 30 | 360 | 16.1 | 32.2 | 0.00 | 0.00 | 0.00 | 69 | 1014.4 |
| 20260906040526 | 30 | 360 | 14.5 | 30.6 | 0.00 | 0.00 | 0.00 | 68 | 1014.4 |
| 20260906040427 | 30 | 360 | 12.9 | 27.4 | 0.00 | 0.00 | 0.00 | 68 | 1014.4 |
| 20260906040327 | 30 | 360 | 12.9 | 27.4 | 0.00 | 0.00 | 0.00 | 68 | 1014.3 |
| 20260906040227 | 30 | 360 | 12.9 | 27.4 | 0.00 | 0.00 | 0.00 | 68 | 1014.3 |
| 20260906040152 | 30 | 360 | 14.5 | 27.4 | 0.00 | 0.00 | 0.00 | 68 | 1014.3 |
| 20260906040030 | 30 | 360 | 14.5 | 27.4 | 0.00 | 0.00 | 0.00 | 68 | 1014.4 |
| 20260906035931 | 30 | 360 | 14.5 | 27.4 | 0.00 | 0.00 | 0.00 | 68 | 1014.3 |
| 20260906035832 | 30 | 360 | 14.5 | 29.0 | 0.00 | 0.00 | 0.00 | 68 | 1014.2 |
| 20260906035731 | 30 | 360 | 14.5 | 29.0 | 0.00 | 0.00 | 0.00 | 68 | 1014.3 |
| 20260906035632 | 30 | 360 | 16.1 | 29.0 | 0.00 | 0.00 | 0.00 | 68 | 1014.4 |
| 20260906035533 | 30 | 360 | 16.1 | 29.0 | 0.00 | 0.00 | 0.00 | 68 | 1014.3 |
| 20260906035452 | 30 | 360 | 16.1 | 29.0 | 0.00 | 0.00 | 0.00 | 68 | 1014.3 |
| 20260906035316 | 30 | 360 | 17.7 | 29.0 | 0.00 | 0.00 | 0.00 | 67 | 1014.2 |
| 20260906035237 | 30 | 360 | 16.1 | 29.0 | 0.00 | 0.00 | 0.00 | 67 | 1014.2 |
| 20260906035117 | 30 | 360 | 16.1 | 29.0 | 0.00 | 0.00 | 0.00 | 67 | 1014.2 |
| 20260906035038 | 30 | 360 | 14.5 | 25.7 | 0.00 | 0.00 | 0.00 | 67 | 1014.3 |
| 20260906034917 | 30 | 360 | 16.1 | 25.7 | 0.00 | 0.00 | 0.00 | 67 | 1014.3 |
| 20260906034838 | 30 | 170 | 17.7 | 25.7 | 0.00 | 0.00 | 0.00 | 67 | 1014.3 |
| 20260906034716 | 30 | 360 | 17.7 | 25.7 | 0.00 | 0.00 | 0.00 | 67 | 1014.2 |
| 20260906034637 | 30 | 360 | 17.7 | 25.7 | 0.00 | 0.00 | 0.00 | 67 | 1014.3 |
| 20260906034521 | 30 | 360 | 19.3 | 25.7 | 0.00 | 0.00 | 0.00 | 67 | 1014.3 |
| 20260906034421 | 30 | 175 | 19.3 | 27.4 | 0.00 | 0.00 | 0.00 | 67 | 1014.3 |
| 20260906034321 | 30 | 360 | 16.1 | 27.4 | 0.00 | 0.00 | 0.00 | 67 | 1014.3 |
| 20260906034222 | 30 | 360 | 16.1 | 27.4 | 0.00 | 0.00 | 0.00 | 67 | 1014.4 |
| 20260906034123 | 30 | 360 | 16.1 | 27.4 | 0.00 | 0.00 | 0.00 | 67 | 1014.3 |
| 20260906034024 | 30 | 360 | 17.7 | 32.2 | 0.00 | 0.00 | 0.00 | 66 | 1014.4 |
| 20260906033925 | 30 | 360 | 17.7 | 32.2 | 0.00 | 0.00 | 0.00 | 66 | 1014.3 |
| 20260906033829 | 30 | 360 | 16.1 | 32.2 | 0.00 | 0.00 | 0.00 | 66 | 1014.3 |
| 20260906033729 | 30 | 360 | 16.1 | 32.2 | 0.00 | 0.00 | 0.00 | 66 | 1014.3 |
| 20260906033630 | 30 | 360 | 16.1 | 32.2 | 0.00 | 0.00 | 0.00 | 66 | 1014.3 |
| 20260906033531 | 30 | 360 | 16.1 | 32.2 | 0.00 | 0.00 | 0.00 | 66 | 1014.2 |
| 20260906033432 | 30 | 360 | 16.1 | 32.2 | 0.00 | 0.00 | 0.00 | 66 | 1014.2 |
| 20260906033332 | 30 | 360 | 14.5 | 32.2 | 0.00 | 0.00 | 0.00 | 66 | 1014.2 |
| 20260906033217 | 30 | 360 | 19.3 | 32.2 | 0.00 | 0.00 | 0.00 | 65 | 1014.2 |
| 20260906033118 | 30 | 360 | 20.9 | 32.2 | 0.00 | 0.00 | 0.00 | 65 | 1014.3 |
| 20260906033039 | 30 | 360 | 20.9 | 32.2 | 0.00 | 0.00 | 0.00 | 65 | 1014.2 |
| 20260906032918 | 30 | 360 | 19.3 | 30.6 | 0.00 | 0.00 | 0.00 | 65 | 1014.2 |
| 20260906032819 | 30 | 360 | 16.1 | 27.4 | 0.00 | 0.00 | 0.00 | 65 | 1014.1 |
| 20260906032720 | 30 | 360 | 14.5 | 27.4 | 0.00 | 0.00 | 0.00 | 65 | 1014.2 |
| 20260906032619 | 30 | 360 | 14.5 | 37.0 | 0.00 | 0.00 | 0.00 | 65 | 1014.2 |
| 20260906032524 | 30 | 360 | 16.1 | 37.0 | 0.00 | 0.00 | 0.00 | 65 | 1014.2 |
| 20260906032425 | 30 | 360 | 17.7 | 37.0 | 0.00 | 0.00 | 0.00 | 65 | 1014.2 |
| 20260906032327 | 30 | 360 | 20.9 | 37.0 | 0.00 | 0.00 | 0.00 | 64 | 1014.2 |
| 20260906032247 | 30 | 360 | 19.3 | 37.0 | 0.00 | 0.00 | 0.00 | 64 | 1014.2 |
| 20260906032127 | 30 | 360 | 19.3 | 37.0 | 0.00 | 0.00 | 0.00 | 64 | 1014.3 |
| 20260906032046 | 30 | 360 | 17.7 | 29.0 | 0.00 | 0.00 | 0.00 | 64 | 1014.2 |
| 20260906031926 | 30 | 360 | 17.7 | 29.0 | 0.00 | 0.00 | 0.00 | 64 | 1014.3 |
| 20260906031831 | 30 | 360 | 17.7 | 29.0 | 0.00 | 0.00 | 0.00 | 64 | 1014.2 |
| 20260906031751 | 30 | 360 | 17.7 | 29.0 | 0.00 | 0.00 | 0.00 | 64 | 1014.1 |
| 20260906031631 | 30 | 360 | 19.3 | 29.0 | 0.00 | 0.00 | 0.00 | 64 | 1014.2 |
| 20260906031530 | 30 | 360 | 19.3 | 29.0 | 0.00 | 0.00 | 0.00 | 64 | 1014.1 |
| 20260906031431 | 30 | 360 | 17.7 | 35.4 | 0.00 | 0.00 | 0.00 | 64 | 1014.0 |
| 20260906031331 | 30 | 360 | 16.1 | 35.4 | 0.00 | 0.00 | 0.00 | 64 | 1014.0 |
| 20260906031232 | 31 | 360 | 14.5 | 35.4 | 0.00 | 0.00 | 0.00 | 63 | 1014.0 |
| 20260906031116 | 31 | 360 | 16.1 | 35.4 | 0.00 | 0.00 | 0.00 | 63 | 1014.0 |
| 20260906031017 | 31 | 360 | 17.7 | 35.4 | 0.00 | 0.00 | 0.00 | 63 | 1013.9 |
| 20260906030917 | 31 | 360 | 19.3 | 35.4 | 0.00 | 0.00 | 0.00 | 63 | 1013.9 |
| 20260906030837 | 31 | 360 | 20.9 | 35.4 | 0.00 | 0.00 | 0.00 | 63 | 1013.8 |
| 20260906030717 | 31 | 360 | 19.3 | 35.4 | 0.00 | 0.00 | 0.00 | 63 | 1013.9 |
| 20260906030616 | 31 | 360 | 19.3 | 32.2 | 0.00 | 0.00 | 0.00 | 63 | 1013.8 |
| 20260906030517 | 31 | 360 | 20.9 | 32.2 | 0.00 | 0.00 | 0.00 | 62 | 1013.8 |
| 20260906030422 | 31 | 360 | 19.3 | 29.0 | 0.00 | 0.00 | 0.00 | 62 | 1013.7 |
| 20260906030323 | 31 | 360 | 19.3 | 30.6 | 0.00 | 0.00 | 0.00 | 62 | 1013.7 |
| 20260906030224 | 31 | 360 | 17.7 | 32.2 | 0.00 | 0.00 | 0.00 | 61 | 1013.7 |
| 20260906030123 | 31 | 360 | 16.1 | 32.2 | 0.00 | 0.00 | 0.00 | 61 | 1013.5 |
| 20260906030044 | 31 | 360 | 17.7 | 32.2 | 0.00 | 0.00 | 0.00 | 61 | 1013.6 |
| 20260906025924 | 31 | 360 | 17.7 | 32.2 | 0.00 | 0.00 | 0.00 | 60 | 1013.6 |
| 20260906025826 | 31 | 360 | 19.3 | 32.2 | 0.00 | 0.00 | 0.00 | 60 | 1013.6 |
| 20260906025729 | 31 | 360 | 20.9 | 32.2 | 0.00 | 0.00 | 0.00 | 60 | 1013.5 |
| 20260906025629 | 31 | 360 | 19.3 | 32.2 | 0.00 | 0.00 | 0.00 | 60 | 1013.5 |
| 20260906025550 | 31 | 360 | 20.9 | 32.2 | 0.00 | 0.00 | 0.00 | 60 | 1013.5 |
| 20260906025430 | 31 | 360 | 19.3 | 30.6 | 0.00 | 0.00 | 0.00 | 60 | 1013.4 |
| 20260906025329 | 31 | 360 | 17.7 | 30.6 | 0.00 | 0.00 | 0.00 | 59 | 1013.4 |
| 20260906025230 | 31 | 360 | 19.3 | 30.6 | 0.00 | 0.00 | 0.00 | 59 | 1013.4 |
| 20260906025131 | 31 | 360 | 19.3 | 30.6 | 0.00 | 0.00 | 0.00 | 59 | 1013.5 |
| 20260906025037 | 31 | 360 | 17.7 | 27.4 | 0.00 | 0.00 | 0.00 | 59 | 1013.4 |
| 20260906024936 | 31 | 360 | 17.7 | 27.4 | 0.00 | 0.00 | 0.00 | 59 | 1013.4 |
| 20260906024817 | 31 | 360 | 17.7 | 27.4 | 0.00 | 0.00 | 0.00 | 59 | 1013.4 |
| 20260906024717 | 31 | 360 | 16.1 | 27.4 | 0.00 | 0.00 | 0.00 | 59 | 1013.4 |
| 20260906024617 | 31 | 360 | 16.1 | 27.4 | 0.00 | 0.00 | 0.00 | 59 | 1013.3 |
| 20260906024518 | 31 | 360 | 14.5 | 24.1 | 0.00 | 0.00 | 0.00 | 59 | 1013.3 |
| 20260906024439 | 31 | 360 | 14.5 | 24.1 | 0.00 | 0.00 | 0.00 | 59 | 1013.3 |
| 20260906024322 | 31 | 360 | 12.9 | 24.1 | 0.00 | 0.00 | 0.00 | 60 | 1013.4 |
| 20260906024222 | 31 | 142 | 11.3 | 20.9 | 0.00 | 0.00 | 0.00 | 60 | 1013.2 |
| 20260906024123 | 31 | 123 | 11.3 | 20.9 | 0.00 | 0.00 | 0.00 | 60 | 1013.2 |
| 20260906024023 | 31 | 360 | 9.7 | 20.9 | 0.00 | 0.00 | 0.00 | 60 | 1013.2 |
| 20260906023924 | 31 | 360 | 9.7 | 20.9 | 0.00 | 0.00 | 0.00 | 60 | 1013.2 |
| 20260906023825 | 31 | 360 | 11.3 | 20.9 | 0.00 | 0.00 | 0.00 | 60 | 1013.1 |
| 20260906023725 | 31 | 360 | 11.3 | 20.9 | 0.00 | 0.00 | 0.00 | 60 | 1013.1 |
| 20260906023646 | 31 | 360 | 9.7 | 20.9 | 0.00 | 0.00 | 0.00 | 59 | 1013.1 |
| 20260906023531 | 31 | 135 | 9.7 | 20.9 | 0.00 | 0.00 | 0.00 | 60 | 1013.0 |
| 20260906023432 | 31 | 360 | 9.7 | 20.9 | 0.00 | 0.00 | 0.00 | 59 | 1013.0 |
| 20260906023352 | 31 | 360 | 9.7 | 20.9 | 0.00 | 0.00 | 0.00 | 60 | 1013.0 |
| 20260906023232 | 31 | 360 | 8.0 | 16.1 | 0.00 | 0.00 | 0.00 | 59 | 1012.9 |
| 20260906023132 | 31 | 360 | 6.4 | 16.1 | 0.00 | 0.00 | 0.00 | 59 | 1012.9 |
| 20260906023032 | 31 | 136 | 8.0 | 17.7 | 0.00 | 0.00 | 0.00 | 59 | 1012.9 |
| 20260906022917 | 31 | 164 | 8.0 | 17.7 | 0.00 | 0.00 | 0.00 | 59 | 1012.9 |
| 20260906022818 | 31 | 360 | 9.7 | 20.9 | 0.00 | 0.00 | 0.00 | 59 | 1012.9 |
| 20260906022739 | 31 | 360 | 8.0 | 20.9 | 0.00 | 0.00 | 0.00 | 59 | 1012.9 |
| 20260906022619 | 31 | 164 | 8.0 | 20.9 | 0.00 | 0.00 | 0.00 | 59 | 1012.9 |
| 20260906022540 | 31 | 360 | 8.0 | 20.9 | 0.00 | 0.00 | 0.00 | 59 | 1012.9 |
| 20260906022418 | 31 | 360 | 8.0 | 20.9 | 0.00 | 0.00 | 0.00 | 59 | 1012.9 |
| 20260906022318 | 31 | 360 | 9.7 | 20.9 | 0.00 | 0.00 | 0.00 | 59 | 1012.8 |
| 20260906022220 | 31 | 360 | 9.7 | 20.9 | 0.00 | 0.00 | 0.00 | 59 | 1012.8 |
| 20260906022124 | 31 | 360 | 11.3 | 20.9 | 0.00 | 0.00 | 0.00 | 59 | 1012.7 |
| 20260906022025 | 31 | 360 | 9.7 | 20.9 | 0.00 | 0.00 | 0.00 | 59 | 1012.7 |
| 20260906021926 | 31 | 360 | 9.7 | 20.9 | 0.00 | 0.00 | 0.00 | 59 | 1012.7 |
| 20260906021826 | 31 | 360 | 9.7 | 20.9 | 0.00 | 0.00 | 0.00 | 59 | 1012.6 |
| 20260906021747 | 31 | 360 | 11.3 | 20.9 | 0.00 | 0.00 | 0.00 | 58 | 1012.6 |
| 20260906021647 | 31 | 117 | 11.3 | 20.9 | 0.00 | 0.00 | 0.00 | 58 | 1012.6 |
| 20260906021527 | 31 | 360 | 9.7 | 19.3 | 0.00 | 0.00 | 0.00 | 58 | 1012.5 |
| 20260906021447 | 31 | 360 | 9.7 | 20.9 | 0.00 | 0.00 | 0.00 | 58 | 1012.5 |
| 20260906021331 | 31 | 360 | 11.3 | 20.9 | 0.00 | 0.00 | 0.00 | 58 | 1012.5 |
| 20260906021231 | 31 | 360 | 12.9 | 20.9 | 0.00 | 0.00 | 0.00 | 58 | 1012.5 |
| 20260906021132 | 31 | 360 | 12.9 | 20.9 | 0.00 | 0.00 | 0.00 | 58 | 1012.5 |
| 20260906021033 | 31 | 360 | 11.3 | 20.9 | 0.00 | 0.00 | 0.00 | 58 | 1012.5 |
| 20260906020934 | 31 | 360 | 11.3 | 20.9 | 0.00 | 0.00 | 0.00 | 58 | 1012.5 |
| 20260906020835 | 31 | 360 | 12.9 | 20.9 | 0.00 | 0.00 | 0.00 | 58 | 1012.4 |
| 20260906020719 | 31 | 360 | 12.9 | 20.9 | 0.00 | 0.00 | 0.00 | 58 | 1012.4 |
| 20260906020621 | 31 | 360 | 11.3 | 19.3 | 0.00 | 0.00 | 0.00 | 58 | 1012.4 |
| 20260906020521 | 31 | 360 | 9.7 | 19.3 | 0.00 | 0.00 | 0.00 | 57 | 1012.5 |
| 20260906020421 | 31 | 360 | 8.0 | 19.3 | 0.00 | 0.00 | 0.00 | 57 | 1012.4 |
| 20260906020322 | 32 | 360 | 8.0 | 19.3 | 0.00 | 0.00 | 0.00 | 57 | 1012.4 |
| 20260906020223 | 32 | 121 | 8.0 | 19.3 | 0.00 | 0.00 | 0.00 | 57 | 1012.4 |
| 20260906020123 | 32 | 360 | 8.0 | 19.3 | 0.00 | 0.00 | 0.00 | 57 | 1012.4 |
| 20260906020048 | 32 | 360 | 8.0 | 19.3 | 0.00 | 0.00 | 0.00 | 57 | 1012.4 |
| 20260906015928 | 32 | 360 | 9.7 | 19.3 | 0.00 | 0.00 | 0.00 | 57 | 1012.3 |
| 20260906015829 | 32 | 360 | 11.3 | 19.3 | 0.00 | 0.00 | 0.00 | 57 | 1012.4 |
| 20260906015729 | 32 | 360 | 11.3 | 19.3 | 0.00 | 0.00 | 0.00 | 57 | 1012.4 |
| 20260906015629 | 32 | 360 | 9.7 | 19.3 | 0.00 | 0.00 | 0.00 | 57 | 1012.3 |
| 20260906015530 | 32 | 360 | 8.0 | 19.3 | 0.00 | 0.00 | 0.00 | 57 | 1012.3 |
| 20260906015431 | 32 | 360 | 6.4 | 19.3 | 0.00 | 0.00 | 0.00 | 57 | 1012.3 |
| 20260906015336 | 32 | 360 | 8.0 | 19.3 | 0.00 | 0.00 | 0.00 | 57 | 1012.3 |
| 20260906015256 | 32 | 360 | 9.7 | 19.3 | 0.00 | 0.00 | 0.00 | 57 | 1012.3 |
| 20260906015116 | 32 | 360 | 11.3 | 19.3 | 0.00 | 0.00 | 0.00 | 57 | 1012.3 |
| 20260906015019 | 32 | 360 | 11.3 | 19.3 | 0.00 | 0.00 | 0.00 | 57 | 1012.3 |
| 20260906014918 | 32 | 360 | 9.7 | 17.7 | 0.00 | 0.00 | 0.00 | 57 | 1012.3 |
| 20260906014819 | 32 | 360 | 8.0 | 17.7 | 0.00 | 0.00 | 0.00 | 57 | 1012.2 |
| 20260906014740 | 32 | 360 | 8.0 | 16.1 | 0.00 | 0.00 | 0.00 | 57 | 1012.3 |
| 20260906014624 | 32 | 360 | 8.0 | 17.7 | 0.00 | 0.00 | 0.00 | 57 | 1012.3 |
| 20260906014524 | 31 | 360 | 8.0 | 17.7 | 0.00 | 0.00 | 0.00 | 57 | 1012.3 |
| 20260906014425 | 32 | 360 | 9.7 | 17.7 | 0.00 | 0.00 | 0.00 | 57 | 1012.3 |
| 20260906014326 | 31 | 360 | 9.7 | 17.7 | 0.00 | 0.00 | 0.00 | 57 | 1012.3 |
| 20260906014227 | 31 | 360 | 9.7 | 17.7 | 0.00 | 0.00 | 0.00 | 57 | 1012.2 |
| 20260906014149 | 31 | 360 | 9.7 | 17.7 | 0.00 | 0.00 | 0.00 | 57 | 1012.2 |
| 20260906014027 | 32 | 360 | 9.7 | 17.7 | 0.00 | 0.00 | 0.00 | 57 | 1012.2 |
| 20260906013931 | 32 | 360 | 9.7 | 17.7 | 0.00 | 0.00 | 0.00 | 57 | 1012.2 |
| 20260906013833 | 32 | 360 | 11.3 | 17.7 | 0.00 | 0.00 | 0.00 | 57 | 1012.2 |
| 20260906013733 | 32 | 360 | 12.9 | 17.7 | 0.00 | 0.00 | 0.00 | 57 | 1012.2 |
| 20260906013633 | 32 | 360 | 11.3 | 17.7 | 0.00 | 0.00 | 0.00 | 57 | 1012.1 |
| 20260906013535 | 32 | 360 | 11.3 | 17.7 | 0.00 | 0.00 | 0.00 | 57 | 1012.1 |
| 20260906013434 | 32 | 360 | 11.3 | 17.7 | 0.00 | 0.00 | 0.00 | 58 | 1012.1 |
| 20260906013334 | 32 | 360 | 9.7 | 20.9 | 0.00 | 0.00 | 0.00 | 57 | 1012.1 |
| 20260906013218 | 32 | 360 | 9.7 | 20.9 | 0.00 | 0.00 | 0.00 | 57 | 1012.1 |
| 20260906013118 | 32 | 360 | 9.7 | 20.9 | 0.00 | 0.00 | 0.00 | 57 | 1012.0 |
| 20260906013038 | 32 | 360 | 9.7 | 20.9 | 0.00 | 0.00 | 0.00 | 57 | 1012.1 |
| 20260906012918 | 32 | 360 | 11.3 | 20.9 | 0.00 | 0.00 | 0.00 | 57 | 1012.1 |
| 20260906012820 | 32 | 360 | 12.9 | 20.9 | 0.00 | 0.00 | 0.00 | 56 | 1012.1 |
| 20260906012719 | 32 | 360 | 14.5 | 22.5 | 0.00 | 0.00 | 0.00 | 56 | 1012.1 |
| 20260906012620 | 32 | 360 | 14.5 | 22.5 | 0.00 | 0.00 | 0.00 | 56 | 1012.1 |
| 20260906012524 | 32 | 360 | 14.5 | 22.5 | 0.00 | 0.00 | 0.00 | 56 | 1012.1 |
| 20260906012425 | 32 | 360 | 14.5 | 22.5 | 0.00 | 0.00 | 0.00 | 56 | 1012.1 |
| 20260906012347 | 32 | 161 | 12.9 | 22.5 | 0.00 | 0.00 | 0.00 | 56 | 1012.1 |
| 20260906012245 | 32 | 360 | 12.9 | 22.5 | 0.00 | 0.00 | 0.00 | 56 | 1012.1 |
| 20260906012145 | 32 | 360 | 12.9 | 22.5 | 0.00 | 0.00 | 0.00 | 56 | 1012.1 |
| 20260906012024 | 32 | 360 | 11.3 | 22.5 | 0.00 | 0.00 | 0.00 | 56 | 1012.1 |
| 20260906011945 | 32 | 360 | 14.5 | 22.5 | 0.00 | 0.00 | 0.00 | 56 | 1012.1 |
| 20260906011845 | 32 | 360 | 14.5 | 22.5 | 0.00 | 0.00 | 0.00 | 56 | 1012.1 |
| 20260906011722 | 32 | 360 | 14.5 | 22.5 | 0.00 | 0.00 | 0.00 | 56 | 1012.1 |
| 20260906011623 | 32 | 360 | 14.5 | 25.7 | 0.00 | 0.00 | 0.00 | 56 | 1012.2 |
| 20260906011527 | 32 | 360 | 12.9 | 29.0 | 0.00 | 0.00 | 0.00 | 55 | 1012.1 |
| 20260906011428 | 32 | 360 | 11.3 | 29.0 | 0.00 | 0.00 | 0.00 | 55 | 1012.1 |
| 20260906011348 | 32 | 360 | 12.9 | 29.0 | 0.00 | 0.00 | 0.00 | 55 | 1012.1 |
| 20260906011227 | 32 | 360 | 14.5 | 29.0 | 0.00 | 0.00 | 0.00 | 55 | 1012.0 |
| 20260906011128 | 32 | 360 | 14.5 | 29.0 | 0.00 | 0.00 | 0.00 | 55 | 1012.1 |
| 20260906011047 | 32 | 360 | 16.1 | 29.0 | 0.00 | 0.00 | 0.00 | 54 | 1012.1 |
| 20260906010947 | 32 | 360 | 19.3 | 29.0 | 0.00 | 0.00 | 0.00 | 54 | 1012.1 |
| 20260906010847 | 32 | 360 | 16.1 | 29.0 | 0.00 | 0.00 | 0.00 | 54 | 1012.0 |
| 20260906010731 | 33 | 360 | 17.7 | 29.0 | 0.00 | 0.00 | 0.00 | 54 | 1012.1 |
| 20260906010632 | 33 | 360 | 19.3 | 29.0 | 0.00 | 0.00 | 0.00 | 53 | 1012.1 |
| 20260906010533 | 33 | 360 | 17.7 | 29.0 | 0.00 | 0.00 | 0.00 | 53 | 1012.1 |
| 20260906010433 | 33 | 360 | 17.7 | 29.0 | 0.00 | 0.00 | 0.00 | 52 | 1012.1 |
| 20260906010334 | 33 | 360 | 16.1 | 29.0 | 0.00 | 0.00 | 0.00 | 52 | 1012.1 |
| 20260906010232 | 33 | 360 | 12.9 | 29.0 | 0.00 | 0.00 | 0.00 | 52 | 1012.0 |
| 20260906010134 | 33 | 360 | 12.9 | 27.4 | 0.00 | 0.00 | 0.00 | 51 | 1012.0 |
| 20260906010039 | 33 | 360 | 14.5 | 27.4 | 0.00 | 0.00 | 0.00 | 51 | 1011.9 |
| 20260906005919 | 33 | 135 | 16.1 | 27.4 | 0.00 | 0.00 | 0.00 | 50 | 1012.0 |
| 20260906005821 | 33 | 360 | 16.1 | 27.4 | 0.00 | 0.00 | 0.00 | 50 | 1012.0 |
| 20260906005721 | 33 | 360 | 16.1 | 27.4 | 0.00 | 0.00 | 0.00 | 50 | 1011.9 |
| 20260906005622 | 33 | 360 | 16.1 | 25.7 | 0.00 | 0.00 | 0.00 | 49 | 1012.0 |
| 20260906005523 | 33 | 360 | 16.1 | 25.7 | 0.00 | 0.00 | 0.00 | 49 | 1012.0 |
| 20260906005423 | 33 | 360 | 14.5 | 25.7 | 0.00 | 0.00 | 0.00 | 49 | 1012.0 |
| 20260906005328 | 33 | 360 | 14.5 | 25.7 | 0.00 | 0.00 | 0.00 | 49 | 1012.0 |
| 20260906005230 | 33 | 360 | 14.5 | 25.7 | 0.00 | 0.00 | 0.00 | 49 | 1011.8 |
| 20260906005128 | 33 | 360 | 14.5 | 25.7 | 0.00 | 0.00 | 0.00 | 49 | 1011.9 |
| 20260906005029 | 33 | 360 | 16.1 | 25.7 | 0.00 | 0.00 | 0.00 | 49 | 1011.9 |
| 20260906004950 | 34 | 360 | 16.1 | 25.7 | 0.00 | 0.00 | 0.00 | 48 | 1011.8 |
| 20260906004829 | 34 | 360 | 16.1 | 25.7 | 0.00 | 0.00 | 0.00 | 49 | 1011.8 |
| 20260906004750 | 34 | 360 | 14.5 | 25.7 | 0.00 | 0.00 | 0.00 | 49 | 1011.8 |
| 20260906004628 | 34 | 360 | 12.9 | 25.7 | 0.00 | 0.00 | 0.00 | 49 | 1011.9 |
| 20260906004553 | 34 | 360 | 12.9 | 25.7 | 0.00 | 0.00 | 0.00 | 49 | 1011.9 |
| 20260906004432 | 34 | 360 | 12.9 | 25.7 | 0.00 | 0.00 | 0.00 | 48 | 1011.8 |
| 20260906004332 | 34 | 360 | 14.5 | 25.7 | 0.00 | 0.00 | 0.00 | 48 | 1011.8 |
| 20260906004233 | 34 | 360 | 14.5 | 25.7 | 0.00 | 0.00 | 0.00 | 48 | 1011.8 |
| 20260906004134 | 34 | 360 | 12.9 | 25.7 | 0.00 | 0.00 | 0.00 | 48 | 1011.8 |
| 20260906004034 | 34 | 360 | 11.3 | 27.4 | 0.00 | 0.00 | 0.00 | 48 | 1011.8 |
| 20260906003919 | 34 | 360 | 11.3 | 33.8 | 0.00 | 0.00 | 0.00 | 48 | 1011.8 |
| 20260906003819 | 34 | 360 | 12.9 | 33.8 | 0.00 | 0.00 | 0.00 | 48 | 1011.9 |
| 20260906003719 | 34 | 360 | 12.9 | 33.8 | 0.00 | 0.00 | 0.00 | 47 | 1011.8 |
| 20260906003620 | 34 | 360 | 12.9 | 33.8 | 0.00 | 0.00 | 0.00 | 47 | 1011.8 |
| 20260906003521 | 34 | 360 | 16.1 | 33.8 | 0.00 | 0.00 | 0.00 | 47 | 1011.8 |
| 20260906003422 | 34 | 360 | 16.1 | 33.8 | 0.00 | 0.00 | 0.00 | 47 | 1011.8 |
| 20260906003322 | 35 | 360 | 16.1 | 33.8 | 0.00 | 0.00 | 0.00 | 47 | 1011.8 |
| 20260906003227 | 35 | 360 | 14.5 | 33.8 | 0.00 | 0.00 | 0.00 | 47 | 1011.7 |
| 20260906003146 | 35 | 360 | 11.3 | 33.8 | 0.00 | 0.00 | 0.00 | 46 | 1011.8 |
| 20260906003026 | 35 | 360 | 6.4 | 14.5 | 0.00 | 0.00 | 0.00 | 45 | 1011.8 |
| 20260906002927 | 35 | 360 | 6.4 | 14.5 | 0.00 | 0.00 | 0.00 | 45 | 1011.8 |
| 20260906002829 | 35 | 360 | 6.4 | 14.5 | 0.00 | 0.00 | 0.00 | 45 | 1011.7 |
| 20260906002728 | 35 | 360 | 6.4 | 14.5 | 0.00 | 0.00 | 0.00 | 45 | 1011.7 |
| 20260906002628 | 35 | 360 | 8.0 | 14.5 | 0.00 | 0.00 | 0.00 | 45 | 1011.7 |
| 20260906002553 | 35 | 360 | 8.0 | 14.5 | 0.00 | 0.00 | 0.00 | 45 | 1011.7 |
| 20260906002433 | 35 | 360 | 8.0 | 14.5 | 0.00 | 0.00 | 0.00 | 44 | 1011.6 |
| 20260906002334 | 35 | 360 | 8.0 | 14.5 | 0.00 | 0.00 | 0.00 | 44 | 1011.7 |
| 20260906002234 | 35 | 360 | 6.4 | 12.9 | 0.00 | 0.00 | 0.00 | 44 | 1011.6 |
| 20260906002135 | 35 | 360 | 4.8 | 14.5 | 0.00 | 0.00 | 0.00 | 44 | 1011.7 |
| 20260906002034 | 35 | 360 | 4.8 | 14.5 | 0.00 | 0.00 | 0.00 | 44 | 1011.6 |
| 20260906001919 | 35 | 360 | 4.8 | 14.5 | 0.00 | 0.00 | 0.00 | 45 | 1011.7 |
| 20260906001819 | 35 | 148 | 6.4 | 14.5 | 0.00 | 0.00 | 0.00 | 46 | 1011.7 |
| 20260906001739 | 35 | 360 | 8.0 | 14.5 | 0.00 | 0.00 | 0.00 | 45 | 1011.7 |
| 20260906001619 | 35 | 360 | 8.0 | 14.5 | 0.00 | 0.00 | 0.00 | 44 | 1011.6 |
| 20260906001519 | 35 | 360 | 9.7 | 14.5 | 0.00 | 0.00 | 0.00 | 45 | 1011.7 |
| 20260906001419 | 35 | 360 | 9.7 | 14.5 | 0.00 | 0.00 | 0.00 | 45 | 1011.7 |
| 20260906001340 | 35 | 360 | 9.7 | 14.5 | 0.00 | 0.00 | 0.00 | 44 | 1011.8 |
| 20260906001220 | 35 | 360 | 8.0 | 14.5 | 0.00 | 0.00 | 0.00 | 45 | 1011.7 |
| 20260906001125 | 35 | 360 | 8.0 | 12.9 | 0.00 | 0.00 | 0.00 | 44 | 1011.7 |
| 20260906001025 | 35 | 360 | 8.0 | 12.9 | 0.00 | 0.00 | 0.00 | 45 | 1011.7 |
| 20260906000925 | 35 | 360 | 8.0 | 12.9 | 0.00 | 0.00 | 0.00 | 44 | 1011.7 |
| 20260906000826 | 35 | 360 | 6.4 | 14.5 | 0.00 | 0.00 | 0.00 | 45 | 1011.6 |
| 20260906000727 | 35 | 360 | 6.4 | 14.5 | 0.00 | 0.00 | 0.00 | 45 | 1011.7 |
| 20260906000628 | 35 | 360 | 6.4 | 14.5 | 0.00 | 0.00 | 0.00 | 45 | 1011.7 |
| 20260906000549 | 35 | 360 | 6.4 | 14.5 | 0.00 | 0.00 | 0.00 | 45 | 1011.7 |
| 20260906000434 | 35 | 360 | 6.4 | 14.5 | 0.00 | 0.00 | 0.00 | 45 | 1011.7 |
| 20260906000333 | 35 | 360 | 6.4 | 14.5 | 0.00 | 0.00 | 0.00 | 45 | 1011.7 |
| 20260906000234 | 35 | 360 | 6.4 | 14.5 | 0.00 | 0.00 | 0.00 | 45 | 1011.6 |
| 20260906000134 | 35 | 126 | 8.0 | 16.1 | 0.00 | 0.00 | 0.00 | 45 | 1011.6 |
| 20260906000034 | 35 | 360 | 9.7 | 16.1 | 0.00 | 0.00 | 0.00 | 45 | 1011.6 |
| 20260905235935 | 35 | 360 | 8.0 | 16.1 | 0.00 | 0.00 | 0.00 | 45 | 1011.6 |
| 20260905235820 | 35 | 360 | 8.0 | 16.1 | 0.00 | 0.00 | 0.00 | 45 | 1011.7 |
| 20260905235720 | 35 | 360 | 8.0 | 16.1 | 0.00 | 0.00 | 0.00 | 45 | 1011.6 |
| 20260905235621 | 35 | 360 | 8.0 | 16.1 | 0.00 | 0.00 | 0.00 | 45 | 1011.7 |
| 20260905235522 | 35 | 360 | 9.7 | 16.1 | 0.00 | 0.00 | 0.00 | 45 | 1011.7 |
| 20260905235422 | 35 | 360 | 8.0 | 16.1 | 0.00 | 0.00 | 0.00 | 45 | 1011.6 |
| 20260905235323 | 35 | 360 | 8.0 | 16.1 | 0.00 | 0.00 | 0.00 | 46 | 1011.6 |
| 20260905235244 | 35 | 360 | 6.4 | 16.1 | 0.00 | 0.00 | 0.00 | 46 | 1011.7 |
| 20260905235127 | 35 | 360 | 4.8 | 12.9 | 0.00 | 0.00 | 0.00 | 46 | 1011.7 |
| 20260905235028 | 35 | 360 | 6.4 | 12.9 | 0.00 | 0.00 | 0.00 | 46 | 1011.7 |
| 20260905234929 | 35 | 360 | 6.4 | 14.5 | 0.00 | 0.00 | 0.00 | 46 | 1011.6 |
| 20260905234849 | 35 | 360 | 6.4 | 16.1 | 0.00 | 0.00 | 0.00 | 45 | 1011.7 |
| 20260905234729 | 35 | 360 | 6.4 | 16.1 | 0.00 | 0.00 | 0.00 | 45 | 1011.7 |
| 20260905234631 | 35 | 360 | 6.4 | 16.1 | 0.00 | 0.00 | 0.00 | 45 | 1011.6 |
| 20260905234531 | 35 | 360 | 8.0 | 16.1 | 0.00 | 0.00 | 0.00 | 45 | 1011.6 |
| 20260905234416 | 35 | 360 | 8.0 | 16.1 | 0.00 | 0.00 | 0.00 | 45 | 1011.6 |
| 20260905234316 | 35 | 360 | 9.7 | 16.1 | 0.00 | 0.00 | 0.00 | 45 | 1011.6 |
| 20260905234217 | 35 | 360 | 9.7 | 16.1 | 0.00 | 0.00 | 0.00 | 45 | 1011.7 |
| 20260905234117 | 35 | 360 | 8.0 | 16.1 | 0.00 | 0.00 | 0.00 | 45 | 1011.6 |
| 20260905234018 | 35 | 360 | 8.0 | 16.1 | 0.00 | 0.00 | 0.00 | 45 | 1011.6 |
| 20260905233917 | 35 | 360 | 8.0 | 16.1 | 0.00 | 0.00 | 0.00 | 45 | 1011.6 |
| 20260905233822 | 35 | 360 | 9.7 | 16.1 | 0.00 | 0.00 | 0.00 | 45 | 1011.7 |
| 20260905233721 | 35 | 360 | 9.7 | 16.1 | 0.00 | 0.00 | 0.00 | 44 | 1011.7 |
| 20260905233622 | 35 | 360 | 9.7 | 17.7 | 0.00 | 0.00 | 0.00 | 44 | 1011.7 |
| 20260905233543 | 35 | 360 | 9.7 | 17.7 | 0.00 | 0.00 | 0.00 | 44 | 1011.7 |
| 20260905233442 | 35 | 360 | 11.3 | 17.7 | 0.00 | 0.00 | 0.00 | 44 | 1011.6 |
| 20260905233322 | 35 | 360 | 9.7 | 17.7 | 0.00 | 0.00 | 0.00 | 44 | 1011.7 |
| 20260905233242 | 35 | 360 | 9.7 | 17.7 | 0.00 | 0.00 | 0.00 | 44 | 1011.6 |
| 20260905233123 | 35 | 360 | 9.7 | 17.7 | 0.00 | 0.00 | 0.00 | 44 | 1011.6 |
| 20260905233023 | 35 | 360 | 9.7 | 17.7 | 0.00 | 0.00 | 0.00 | 43 | 1011.6 |
| 20260905232948 | 35 | 360 | 9.7 | 17.7 | 0.00 | 0.00 | 0.00 | 43 | 1011.5 |
| 20260905232845 | 35 | 360 | 11.3 | 17.7 | 0.00 | 0.00 | 0.00 | 43 | 1011.7 |
| 20260905232722 | 35 | 360 | 11.3 | 17.7 | 0.00 | 0.00 | 0.00 | 43 | 1011.6 |
| 20260905232623 | 35 | 360 | 11.3 | 17.7 | 0.00 | 0.00 | 0.00 | 42 | 1011.5 |
| 20260905232524 | 35 | 360 | 9.7 | 17.7 | 0.00 | 0.00 | 0.00 | 43 | 1011.6 |
| 20260905232424 | 35 | 360 | 8.0 | 17.7 | 0.00 | 0.00 | 0.00 | 43 | 1011.6 |
| 20260905232325 | 35 | 360 | 8.0 | 17.7 | 0.00 | 0.00 | 0.00 | 43 | 1011.6 |
| 20260905232225 | 35 | 360 | 8.0 | 17.7 | 0.00 | 0.00 | 0.00 | 43 | 1011.6 |
| 20260905232130 | 35 | 360 | 9.7 | 17.7 | 0.00 | 0.00 | 0.00 | 42 | 1011.6 |
| 20260905232030 | 35 | 73 | 9.7 | 17.7 | 0.00 | 0.00 | 0.00 | 42 | 1011.6 |
| 20260905231930 | 36 | 360 | 8.0 | 17.7 | 0.00 | 0.00 | 0.00 | 41 | 1011.6 |
| 20260905231831 | 36 | 86 | 9.7 | 17.7 | 0.00 | 0.00 | 0.00 | 41 | 1011.6 |
| 20260905231732 | 36 | 360 | 9.7 | 17.7 | 0.00 | 0.00 | 0.00 | 42 | 1011.6 |
| 20260905231652 | 36 | 360 | 9.7 | 17.7 | 0.00 | 0.00 | 0.00 | 42 | 1011.7 |
| 20260905231531 | 36 | 360 | 9.7 | 17.7 | 0.00 | 0.00 | 0.00 | 42 | 1011.7 |
| 20260905231456 | 36 | 360 | 6.4 | 14.5 | 0.00 | 0.00 | 0.00 | 42 | 1011.7 |
| 20260905231336 | 35 | 360 | 4.8 | 12.9 | 0.00 | 0.00 | 0.00 | 42 | 1011.7 |
| 20260905231235 | 35 | 360 | 4.8 | 9.7 | 0.00 | 0.00 | 0.00 | 42 | 1011.6 |
| 20260905231136 | 35 | 360 | 4.8 | 9.7 | 0.00 | 0.00 | 0.00 | 41 | 1011.6 |
| 20260905231017 | 35 | 360 | 6.4 | 9.7 | 0.00 | 0.00 | 0.00 | 41 | 1011.7 |
| 20260905230918 | 35 | 360 | 6.4 | 16.1 | 0.00 | 0.00 | 0.00 | 41 | 1011.7 |
| 20260905230818 | 35 | 360 | 8.0 | 16.1 | 0.00 | 0.00 | 0.00 | 41 | 1011.6 |
| 20260905230723 | 36 | 360 | 6.4 | 16.1 | 0.00 | 0.00 | 0.00 | 41 | 1011.6 |
| 20260905230626 | 36 | 99 | 6.4 | 16.1 | 0.00 | 0.00 | 0.00 | 41 | 1011.6 |
| 20260905230526 | 36 | 360 | 6.4 | 16.1 | 0.00 | 0.00 | 0.00 | 41 | 1011.6 |
| 20260905230426 | 36 | 360 | 8.0 | 16.1 | 0.00 | 0.00 | 0.00 | 41 | 1011.6 |
| 20260905230326 | 36 | 360 | 8.0 | 16.1 | 0.00 | 0.00 | 0.00 | 41 | 1011.6 |
| 20260905230227 | 36 | 360 | 8.0 | 16.1 | 0.00 | 0.00 | 0.00 | 41 | 1011.6 |
| 20260905230128 | 36 | 360 | 6.4 | 14.5 | 0.00 | 0.00 | 0.00 | 41 | 1011.6 |
| 20260905230031 | 36 | 360 | 6.4 | 9.7 | 0.00 | 0.00 | 0.00 | 41 | 1011.6 |
| 20260905225932 | 36 | 360 | 4.8 | 16.1 | 0.00 | 0.00 | 0.00 | 41 | 1011.6 |
| 20260905225854 | 36 | 360 | 4.8 | 16.1 | 0.00 | 0.00 | 0.00 | 41 | 1011.6 |
| 20260905225732 | 36 | 360 | 4.8 | 16.1 | 0.00 | 0.00 | 0.00 | 41 | 1011.6 |
| 20260905225633 | 36 | 360 | 4.8 | 16.1 | 0.00 | 0.00 | 0.00 | 40 | 1011.6 |
| 20260905225533 | 36 | 140 | 4.8 | 16.1 | 0.00 | 0.00 | 0.00 | 40 | 1011.5 |
| 20260905225417 | 36 | 360 | 6.4 | 16.1 | 0.00 | 0.00 | 0.00 | 40 | 1011.6 |
| 20260905225318 | 36 | 360 | 8.0 | 16.1 | 0.00 | 0.00 | 0.00 | 40 | 1011.6 |
| 20260905225219 | 36 | 360 | 8.0 | 16.1 | 0.00 | 0.00 | 0.00 | 40 | 1011.5 |
| 20260905225119 | 36 | 360 | 8.0 | 16.1 | 0.00 | 0.00 | 0.00 | 40 | 1011.6 |
| 20260905225019 | 36 | 360 | 6.4 | 12.9 | 0.00 | 0.00 | 0.00 | 40 | 1011.6 |
| 20260905224919 | 36 | 360 | 4.8 | 9.7 | 0.00 | 0.00 | 0.00 | 40 | 1011.6 |
| 20260905224819 | 36 | 360 | 4.8 | 9.7 | 0.00 | 0.00 | 0.00 | 40 | 1011.6 |
| 20260905224725 | 36 | 360 | 3.2 | 9.7 | 0.00 | 0.00 | 0.00 | 40 | 1011.6 |
| 20260905224624 | 36 | 360 | 1.6 | 8.0 | 0.00 | 0.00 | 0.00 | 40 | 1011.6 |
| 20260905224524 | 36 | 360 | 1.6 | 6.4 | 0.00 | 0.00 | 0.00 | 40 | 1011.5 |
| 20260905224425 | 35 | 360 | 3.2 | 6.4 | 0.00 | 0.00 | 0.00 | 40 | 1011.6 |
| 20260905224324 | 35 | 87 | 3.2 | 6.4 | 0.00 | 0.00 | 0.00 | 40 | 1011.6 |
| 20260905224225 | 35 | 88 | 4.8 | 8.0 | 0.00 | 0.00 | 0.00 | 40 | 1011.6 |
| 20260905224126 | 35 | 86 | 4.8 | 8.0 | 0.00 | 0.00 | 0.00 | 40 | 1011.6 |
| 20260905224031 | 35 | 87 | 4.8 | 9.7 | 0.00 | 0.00 | 0.00 | 40 | 1011.5 |
| 20260905223932 | 35 | 89 | 4.8 | 9.7 | 0.00 | 0.00 | 0.00 | 40 | 1011.5 |
| 20260905223832 | 35 | 360 | 3.2 | 9.7 | 0.00 | 0.00 | 0.00 | 40 | 1011.5 |
| 20260905223733 | 35 | 360 | 3.2 | 9.7 | 0.00 | 0.00 | 0.00 | 40 | 1011.5 |
| 20260905223632 | 35 | 112 | 4.8 | 9.7 | 0.00 | 0.00 | 0.00 | 40 | 1011.6 |
| 20260905223533 | 35 | 360 | 4.8 | 12.9 | 0.00 | 0.00 | 0.00 | 39 | 1011.4 |
| 20260905223417 | 36 | 113 | 6.4 | 12.9 | 0.00 | 0.00 | 0.00 | 40 | 1011.5 |
| 20260905223317 | 36 | 114 | 6.4 | 12.9 | 0.00 | 0.00 | 0.00 | 39 | 1011.5 |
| 20260905223218 | 36 | 360 | 6.4 | 12.9 | 0.00 | 0.00 | 0.00 | 40 | 1011.5 |
| 20260905223119 | 36 | 360 | 4.8 | 12.9 | 0.00 | 0.00 | 0.00 | 39 | 1011.5 |
| 20260905223020 | 36 | 360 | 3.2 | 12.9 | 0.00 | 0.00 | 0.00 | 39 | 1011.6 |
| 20260905222920 | 36 | 360 | 3.2 | 12.9 | 0.00 | 0.00 | 0.00 | 39 | 1011.6 |
| 20260905222822 | 36 | 360 | 3.2 | 12.9 | 0.00 | 0.00 | 0.00 | 39 | 1011.6 |
| 20260905222745 | 36 | 121 | 4.8 | 12.9 | 0.00 | 0.00 | 0.00 | 39 | 1011.7 |
| 20260905222625 | 36 | 360 | 6.4 | 12.9 | 0.00 | 0.00 | 0.00 | 40 | 1011.7 |
| 20260905222526 | 36 | 86 | 6.4 | 12.9 | 0.00 | 0.00 | 0.00 | 40 | 1011.6 |
| 20260905222425 | 36 | 360 | 4.8 | 9.7 | 0.00 | 0.00 | 0.00 | 40 | 1011.6 |
| 20260905222326 | 36 | 360 | 4.8 | 9.7 | 0.00 | 0.00 | 0.00 | 39 | 1011.5 |
| 20260905222227 | 36 | 360 | 3.2 | 12.9 | 0.00 | 0.00 | 0.00 | 39 | 1011.6 |
| 20260905222127 | 36 | 360 | 3.2 | 12.9 | 0.00 | 0.00 | 0.00 | 40 | 1011.6 |
| 20260905222031 | 36 | 360 | 3.2 | 12.9 | 0.00 | 0.00 | 0.00 | 39 | 1011.7 |
| 20260905221952 | 36 | 360 | 3.2 | 12.9 | 0.00 | 0.00 | 0.00 | 39 | 1011.7 |
| 20260905221830 | 36 | 360 | 4.8 | 12.9 | 0.00 | 0.00 | 0.00 | 39 | 1011.6 |
| 20260905221731 | 36 | 360 | 6.4 | 12.9 | 0.00 | 0.00 | 0.00 | 39 | 1011.7 |
| 20260905221632 | 36 | 360 | 6.4 | 12.9 | 0.00 | 0.00 | 0.00 | 39 | 1011.7 |
| 20260905221533 | 36 | 360 | 6.4 | 12.9 | 0.00 | 0.00 | 0.00 | 39 | 1011.7 |
| 20260905221433 | 36 | 360 | 4.8 | 12.9 | 0.00 | 0.00 | 0.00 | 39 | 1011.8 |
| 20260905221318 | 36 | 360 | 3.2 | 8.0 | 0.00 | 0.00 | 0.00 | 38 | 1011.7 |
| 20260905221219 | 36 | 360 | 3.2 | 8.0 | 0.00 | 0.00 | 0.00 | 38 | 1011.7 |
| 20260905221120 | 36 | 360 | 3.2 | 8.0 | 0.00 | 0.00 | 0.00 | 38 | 1011.8 |
| 20260905221021 | 36 | 360 | 3.2 | 8.0 | 0.00 | 0.00 | 0.00 | 39 | 1011.8 |
| 20260905220921 | 37 | 360 | 3.2 | 12.9 | 0.00 | 0.00 | 0.00 | 39 | 1011.8 |
| 20260905220821 | 37 | 360 | 3.2 | 12.9 | 0.00 | 0.00 | 0.00 | 39 | 1011.7 |
| 20260905220725 | 36 | 360 | 3.2 | 12.9 | 0.00 | 0.00 | 0.00 | 39 | 1011.7 |
| 20260905220626 | 36 | 360 | 4.8 | 12.9 | 0.00 | 0.00 | 0.00 | 39 | 1011.9 |
| 20260905220527 | 36 | 360 | 4.8 | 12.9 | 0.00 | 0.00 | 0.00 | 40 | 1011.8 |
| 20260905220446 | 36 | 360 | 4.8 | 12.9 | 0.00 | 0.00 | 0.00 | 40 | 1011.7 |
| 20260905220326 | 36 | 360 | 6.4 | 12.9 | 0.00 | 0.00 | 0.00 | 40 | 1011.8 |
| 20260905220226 | 36 | 360 | 6.4 | 12.9 | 0.00 | 0.00 | 0.00 | 39 | 1011.8 |
| 20260905220127 | 36 | 360 | 6.4 | 12.9 | 0.00 | 0.00 | 0.00 | 40 | 1011.8 |
| 20260905220032 | 36 | 360 | 3.2 | 12.9 | 0.00 | 0.00 | 0.00 | 39 | 1011.8 |
| 20260905215932 | 36 | 360 | 3.2 | 12.9 | 0.00 | 0.00 | 0.00 | 39 | 1011.8 |
| 20260905215835 | 36 | 360 | 4.8 | 14.5 | 0.00 | 0.00 | 0.00 | 39 | 1011.8 |
| 20260905215735 | 36 | 360 | 4.8 | 14.5 | 0.00 | 0.00 | 0.00 | 39 | 1011.8 |
| 20260905215636 | 36 | 360 | 4.8 | 14.5 | 0.00 | 0.00 | 0.00 | 39 | 1011.8 |
| 20260905215535 | 36 | 360 | 3.2 | 19.3 | 0.00 | 0.00 | 0.00 | 40 | 1011.8 |
| 20260905215435 | 36 | 360 | 4.8 | 19.3 | 0.00 | 0.00 | 0.00 | 40 | 1011.8 |
| 20260905215319 | 36 | 360 | 6.4 | 19.3 | 0.00 | 0.00 | 0.00 | 40 | 1011.8 |
| 20260905215220 | 36 | 360 | 8.0 | 19.3 | 0.00 | 0.00 | 0.00 | 39 | 1011.9 |
| 20260905215120 | 36 | 360 | 9.7 | 19.3 | 0.00 | 0.00 | 0.00 | 40 | 1011.8 |
| 20260905215021 | 36 | 360 | 9.7 | 19.3 | 0.00 | 0.00 | 0.00 | 40 | 1011.9 |
| 20260905214921 | 36 | 360 | 12.9 | 19.3 | 0.00 | 0.00 | 0.00 | 40 | 1011.9 |
| 20260905214821 | 36 | 360 | 14.5 | 19.3 | 0.00 | 0.00 | 0.00 | 39 | 1011.9 |
| 20260905214719 | 36 | 360 | 14.5 | 19.3 | 0.00 | 0.00 | 0.00 | 39 | 1011.9 |
| 20260905214624 | 36 | 360 | 12.9 | 19.3 | 0.00 | 0.00 | 0.00 | 39 | 1011.8 |
| 20260905214524 | 36 | 360 | 9.7 | 16.1 | 0.00 | 0.00 | 0.00 | 39 | 1011.9 |
| 20260905214425 | 37 | 360 | 8.0 | 12.9 | 0.00 | 0.00 | 0.00 | 38 | 1011.8 |
| 20260905214326 | 37 | 360 | 6.4 | 9.7 | 0.00 | 0.00 | 0.00 | 38 | 1011.8 |
| 20260905214226 | 37 | 360 | 4.8 | 9.7 | 0.00 | 0.00 | 0.00 | 38 | 1011.8 |
| 20260905214127 | 37 | 360 | 3.2 | 9.7 | 0.00 | 0.00 | 0.00 | 38 | 1011.9 |
| 20260905214028 | 37 | 360 | 1.6 | 9.7 | 0.00 | 0.00 | 0.00 | 38 | 1011.8 |
| 20260905213931 | 37 | 360 | 3.2 | 9.7 | 0.00 | 0.00 | 0.00 | 39 | 1011.8 |
| 20260905213831 | 36 | 360 | 3.2 | 9.7 | 0.00 | 0.00 | 0.00 | 39 | 1011.9 |
| 20260905213731 | 36 | 360 | 3.2 | 9.7 | 0.00 | 0.00 | 0.00 | 39 | 1011.8 |
| 20260905213652 | 36 | 360 | 4.8 | 8.0 | 0.00 | 0.00 | 0.00 | 39 | 1011.9 |
| 20260905213552 | 36 | 360 | 4.8 | 8.0 | 0.00 | 0.00 | 0.00 | 39 | 1011.9 |
| 20260905213451 | 36 | 360 | 3.2 | 12.9 | 0.00 | 0.00 | 0.00 | 39 | 1011.9 |
| 20260905213331 | 36 | 360 | 3.2 | 12.9 | 0.00 | 0.00 | 0.00 | 39 | 1011.9 |
| 20260905213232 | 36 | 360 | 3.2 | 12.9 | 0.00 | 0.00 | 0.00 | 39 | 1011.9 |
| 20260905213117 | 36 | 360 | 3.2 | 12.9 | 0.00 | 0.00 | 0.00 | 39 | 1011.9 |
| 20260905213017 | 36 | 360 | 4.8 | 17.7 | 0.00 | 0.00 | 0.00 | 39 | 1011.8 |
| 20260905212919 | 36 | 360 | 4.8 | 17.7 | 0.00 | 0.00 | 0.00 | 39 | 1011.9 |
| 20260905212819 | 36 | 360 | 6.4 | 17.7 | 0.00 | 0.00 | 0.00 | 39 | 1011.9 |
| 20260905212739 | 36 | 360 | 6.4 | 17.7 | 0.00 | 0.00 | 0.00 | 39 | 1011.9 |
| 20260905212617 | 36 | 360 | 4.8 | 17.7 | 0.00 | 0.00 | 0.00 | 40 | 1011.8 |
| 20260905212537 | 36 | 360 | 4.8 | 17.7 | 0.00 | 0.00 | 0.00 | 40 | 1011.9 |
| 20260905212417 | 36 | 360 | 8.0 | 17.7 | 0.00 | 0.00 | 0.00 | 40 | 1011.9 |
| 20260905212320 | 36 | 360 | 9.7 | 17.7 | 0.00 | 0.00 | 0.00 | 40 | 1011.8 |
| 20260905212220 | 36 | 360 | 9.7 | 17.7 | 0.00 | 0.00 | 0.00 | 39 | 1011.9 |
| 20260905212118 | 36 | 360 | 6.4 | 19.3 | 0.00 | 0.00 | 0.00 | 40 | 1011.9 |
| 20260905212018 | 36 | 360 | 6.4 | 19.3 | 0.00 | 0.00 | 0.00 | 39 | 1011.8 |
| 20260905211938 | 36 | 107 | 8.0 | 22.5 | 0.00 | 0.00 | 0.00 | 40 | 1011.9 |
| 20260905211857 | 36 | 360 | 9.7 | 22.5 | 0.00 | 0.00 | 0.00 | 40 | 1011.9 |
| 20260905211736 | 36 | 360 | 9.7 | 22.5 | 0.00 | 0.00 | 0.00 | 39 | 1011.9 |
| 20260905211621 | 36 | 360 | 8.0 | 22.5 | 0.00 | 0.00 | 0.00 | 40 | 1011.9 |
| 20260905211521 | 36 | 360 | 4.8 | 22.5 | 0.00 | 0.00 | 0.00 | 41 | 1012.0 |
| 20260905211422 | 35 | 360 | 6.4 | 22.5 | 0.00 | 0.00 | 0.00 | 41 | 1011.9 |
| 20260905211322 | 35 | 360 | 9.7 | 22.5 | 0.00 | 0.00 | 0.00 | 41 | 1012.0 |
| 20260905211223 | 35 | 360 | 11.3 | 22.5 | 0.00 | 0.00 | 0.00 | 41 | 1012.1 |
| 20260905211123 | 36 | 360 | 11.3 | 22.5 | 0.00 | 0.00 | 0.00 | 41 | 1012.0 |
| 20260905211024 | 36 | 360 | 9.7 | 17.7 | 0.00 | 0.00 | 0.00 | 40 | 1012.1 |
| 20260905210929 | 36 | 360 | 8.0 | 20.9 | 0.00 | 0.00 | 0.00 | 40 | 1012.1 |
| 20260905210849 | 36 | 360 | 6.4 | 20.9 | 0.00 | 0.00 | 0.00 | 40 | 1012.1 |
| 20260905210727 | 36 | 360 | 4.8 | 20.9 | 0.00 | 0.00 | 0.00 | 40 | 1012.0 |
| 20260905210628 | 36 | 360 | 4.8 | 20.9 | 0.00 | 0.00 | 0.00 | 41 | 1012.0 |
| 20260905210528 | 36 | 360 | 4.8 | 20.9 | 0.00 | 0.00 | 0.00 | 41 | 1012.0 |
| 20260905210430 | 36 | 360 | 6.4 | 20.9 | 0.00 | 0.00 | 0.00 | 41 | 1012.0 |
| 20260905210330 | 36 | 360 | 4.8 | 20.9 | 0.00 | 0.00 | 0.00 | 41 | 1012.0 |
| 20260905210216 | 36 | 360 | 4.8 | 20.9 | 0.00 | 0.00 | 0.00 | 41 | 1012.1 |
| 20260905210116 | 36 | 360 | 6.4 | 20.9 | 0.00 | 0.00 | 0.00 | 41 | 1012.1 |
| 20260905210017 | 36 | 360 | 6.4 | 20.9 | 0.00 | 0.00 | 0.00 | 41 | 1012.1 |
| 20260905205917 | 36 | 360 | 6.4 | 17.7 | 0.00 | 0.00 | 0.00 | 41 | 1012.1 |
| 20260905205818 | 36 | 360 | 8.0 | 17.7 | 0.00 | 0.00 | 0.00 | 42 | 1012.1 |
| 20260905205718 | 36 | 360 | 8.0 | 24.1 | 0.00 | 0.00 | 0.00 | 41 | 1012.1 |
| 20260905205619 | 36 | 360 | 6.4 | 24.1 | 0.00 | 0.00 | 0.00 | 41 | 1012.1 |
| 20260905205523 | 36 | 360 | 4.8 | 24.1 | 0.00 | 0.00 | 0.00 | 41 | 1012.1 |
| 20260905205423 | 36 | 360 | 3.2 | 24.1 | 0.00 | 0.00 | 0.00 | 42 | 1012.1 |
| 20260905205323 | 36 | 360 | 6.4 | 24.1 | 0.00 | 0.00 | 0.00 | 41 | 1012.2 |
| 20260905205225 | 36 | 360 | 6.4 | 24.1 | 0.00 | 0.00 | 0.00 | 42 | 1012.3 |
| 20260905205126 | 36 | 360 | 9.7 | 24.1 | 0.00 | 0.00 | 0.00 | 41 | 1012.3 |
| 20260905205026 | 35 | 360 | 11.3 | 24.1 | 0.00 | 0.00 | 0.00 | 42 | 1012.3 |
| 20260905204946 | 36 | 360 | 9.7 | 24.1 | 0.00 | 0.00 | 0.00 | 41 | 1012.3 |
| 20260905204849 | 36 | 360 | 6.4 | 24.1 | 0.00 | 0.00 | 0.00 | 41 | 1012.3 |
| 20260905204749 | 36 | 360 | 4.8 | 12.9 | 0.00 | 0.00 | 0.00 | 42 | 1012.3 |
| 20260905204629 | 36 | 360 | 4.8 | 12.9 | 0.00 | 0.00 | 0.00 | 42 | 1012.4 |
| 20260905204549 | 36 | 360 | 6.4 | 16.1 | 0.00 | 0.00 | 0.00 | 42 | 1012.4 |
| 20260905204428 | 36 | 360 | 6.4 | 16.1 | 0.00 | 0.00 | 0.00 | 41 | 1012.4 |
| 20260905204328 | 36 | 360 | 6.4 | 16.1 | 0.00 | 0.00 | 0.00 | 42 | 1012.4 |
| 20260905204228 | 36 | 360 | 4.8 | 19.3 | 0.00 | 0.00 | 0.00 | 42 | 1012.5 |
| 20260905204149 | 36 | 360 | 3.2 | 19.3 | 0.00 | 0.00 | 0.00 | 42 | 1012.5 |
| 20260905204028 | 36 | 360 | 3.2 | 19.3 | 0.00 | 0.00 | 0.00 | 42 | 1012.5 |
| 20260905203932 | 35 | 360 | 4.8 | 22.5 | 0.00 | 0.00 | 0.00 | 42 | 1012.5 |
| 20260905203833 | 35 | 360 | 8.0 | 22.5 | 0.00 | 0.00 | 0.00 | 42 | 1012.5 |
| 20260905203733 | 35 | 360 | 8.0 | 22.5 | 0.00 | 0.00 | 0.00 | 42 | 1012.5 |
| 20260905203633 | 35 | 360 | 8.0 | 22.5 | 0.00 | 0.00 | 0.00 | 42 | 1012.6 |
| 20260905203534 | 35 | 360 | 9.7 | 22.5 | 0.00 | 0.00 | 0.00 | 43 | 1012.5 |
| 20260905203454 | 35 | 360 | 11.3 | 22.5 | 0.00 | 0.00 | 0.00 | 43 | 1012.5 |
| 20260905203354 | 35 | 360 | 14.5 | 22.5 | 0.00 | 0.00 | 0.00 | 42 | 1012.6 |
| 20260905203217 | 36 | 360 | 11.3 | 22.5 | 0.00 | 0.00 | 0.00 | 42 | 1012.6 |
| 20260905203137 | 36 | 360 | 8.0 | 22.5 | 0.00 | 0.00 | 0.00 | 41 | 1012.7 |
| 20260905203037 | 36 | 360 | 4.8 | 17.7 | 0.00 | 0.00 | 0.00 | 42 | 1012.7 |
| 20260905202916 | 36 | 360 | 4.8 | 17.7 | 0.00 | 0.00 | 0.00 | 42 | 1012.6 |
| 20260905202818 | 36 | 360 | 6.4 | 17.7 | 0.00 | 0.00 | 0.00 | 42 | 1012.7 |
| 20260905202717 | 36 | 360 | 6.4 | 17.7 | 0.00 | 0.00 | 0.00 | 42 | 1012.7 |
| 20260905202618 | 36 | 360 | 6.4 | 17.7 | 0.00 | 0.00 | 0.00 | 42 | 1012.8 |
| 20260905202523 | 36 | 360 | 6.4 | 17.7 | 0.00 | 0.00 | 0.00 | 42 | 1012.8 |
| 20260905202423 | 36 | 360 | 6.4 | 17.7 | 0.00 | 0.00 | 0.00 | 43 | 1012.7 |
| 20260905202325 | 36 | 132 | 8.0 | 17.7 | 0.00 | 0.00 | 0.00 | 42 | 1012.8 |
| 20260905202225 | 36 | 360 | 9.7 | 17.7 | 0.00 | 0.00 | 0.00 | 42 | 1012.8 |
| 20260905202125 | 36 | 360 | 9.7 | 17.7 | 0.00 | 0.00 | 0.00 | 41 | 1012.9 |
| 20260905202026 | 36 | 360 | 8.0 | 17.7 | 0.00 | 0.00 | 0.00 | 41 | 1012.8 |
| 20260905201926 | 36 | 360 | 6.4 | 17.7 | 0.00 | 0.00 | 0.00 | 42 | 1012.9 |
| 20260905201831 | 36 | 360 | 4.8 | 12.9 | 0.00 | 0.00 | 0.00 | 41 | 1012.8 |
| 20260905201731 | 36 | 360 | 4.8 | 12.9 | 0.00 | 0.00 | 0.00 | 41 | 1012.8 |
| 20260905201631 | 37 | 360 | 3.2 | 9.7 | 0.00 | 0.00 | 0.00 | 41 | 1012.9 |
| 20260905201532 | 37 | 360 | 3.2 | 9.7 | 0.00 | 0.00 | 0.00 | 41 | 1012.8 |
| 20260905201433 | 37 | 360 | 3.2 | 9.7 | 0.00 | 0.00 | 0.00 | 40 | 1012.9 |
| 20260905201334 | 37 | 360 | 1.6 | 14.5 | 0.00 | 0.00 | 0.00 | 40 | 1012.9 |
| 20260905201218 | 37 | 360 | 1.6 | 14.5 | 0.00 | 0.00 | 0.00 | 40 | 1012.8 |
| 20260905201119 | 36 | 360 | 1.6 | 14.5 | 0.00 | 0.00 | 0.00 | 40 | 1012.9 |
| 20260905201019 | 36 | 360 | 1.6 | 14.5 | 0.00 | 0.00 | 0.00 | 41 | 1013.0 |
| 20260905200920 | 36 | 360 | 1.6 | 14.5 | 0.00 | 0.00 | 0.00 | 40 | 1013.0 |
| 20260905200820 | 36 | 360 | 3.2 | 14.5 | 0.00 | 0.00 | 0.00 | 41 | 1013.1 |
| 20260905200720 | 36 | 360 | 4.8 | 14.5 | 0.00 | 0.00 | 0.00 | 42 | 1013.0 |
| 20260905200625 | 36 | 360 | 6.4 | 14.5 | 0.00 | 0.00 | 0.00 | 41 | 1013.1 |
| 20260905200526 | 36 | 360 | 6.4 | 14.5 | 0.00 | 0.00 | 0.00 | 41 | 1013.1 |
| 20260905200426 | 36 | 360 | 6.4 | 20.9 | 0.00 | 0.00 | 0.00 | 41 | 1013.1 |
| 20260905200327 | 36 | 360 | 4.8 | 20.9 | 0.00 | 0.00 | 0.00 | 42 | 1013.1 |
| 20260905200228 | 36 | 360 | 3.2 | 20.9 | 0.00 | 0.00 | 0.00 | 42 | 1013.1 |
| 20260905200149 | 36 | 360 | 4.8 | 20.9 | 0.00 | 0.00 | 0.00 | 42 | 1013.1 |
| 20260905200028 | 36 | 360 | 4.8 | 20.9 | 0.00 | 0.00 | 0.00 | 42 | 1013.1 |
| 20260905195933 | 36 | 360 | 6.4 | 20.9 | 0.00 | 0.00 | 0.00 | 42 | 1013.1 |
| 20260905195854 | 36 | 360 | 9.7 | 20.9 | 0.00 | 0.00 | 0.00 | 42 | 1013.2 |
| 20260905195732 | 36 | 360 | 9.7 | 20.9 | 0.00 | 0.00 | 0.00 | 42 | 1013.2 |
| 20260905195632 | 36 | 360 | 11.3 | 20.9 | 0.00 | 0.00 | 0.00 | 42 | 1013.2 |
| 20260905195533 | 36 | 360 | 11.3 | 20.9 | 0.00 | 0.00 | 0.00 | 42 | 1013.2 |
| 20260905195433 | 36 | 360 | 8.0 | 17.7 | 0.00 | 0.00 | 0.00 | 41 | 1013.2 |
| 20260905195334 | 36 | 360 | 8.0 | 17.7 | 0.00 | 0.00 | 0.00 | 41 | 1013.3 |
| 20260905195218 | 36 | 360 | 6.4 | 19.3 | 0.00 | 0.00 | 0.00 | 42 | 1013.3 |
| 20260905195119 | 36 | 360 | 4.8 | 19.3 | 0.00 | 0.00 | 0.00 | 42 | 1013.3 |
| 20260905195039 | 36 | 360 | 4.8 | 19.3 | 0.00 | 0.00 | 0.00 | 42 | 1013.3 |
| 20260905194918 | 36 | 360 | 4.8 | 19.3 | 0.00 | 0.00 | 0.00 | 43 | 1013.3 |
| 20260905194819 | 35 | 360 | 6.4 | 19.3 | 0.00 | 0.00 | 0.00 | 42 | 1013.3 |
| 20260905194719 | 36 | 360 | 6.4 | 19.3 | 0.00 | 0.00 | 0.00 | 42 | 1013.4 |
| 20260905194619 | 36 | 360 | 6.4 | 19.3 | 0.00 | 0.00 | 0.00 | 42 | 1013.3 |
| 20260905194524 | 36 | 360 | 6.4 | 19.3 | 0.00 | 0.00 | 0.00 | 42 | 1013.4 |
| 20260905194425 | 36 | 360 | 4.8 | 19.3 | 0.00 | 0.00 | 0.00 | 42 | 1013.4 |
| 20260905194325 | 36 | 360 | 4.8 | 16.1 | 0.00 | 0.00 | 0.00 | 42 | 1013.4 |
| 20260905194226 | 36 | 360 | 4.8 | 16.1 | 0.00 | 0.00 | 0.00 | 42 | 1013.4 |
| 20260905194128 | 36 | 360 | 4.8 | 16.1 | 0.00 | 0.00 | 0.00 | 42 | 1013.4 |
| 20260905194029 | 36 | 360 | 4.8 | 16.1 | 0.00 | 0.00 | 0.00 | 42 | 1013.4 |
| 20260905193929 | 36 | 360 | 6.4 | 16.1 | 0.00 | 0.00 | 0.00 | 42 | 1013.4 |
| 20260905193854 | 36 | 360 | 4.8 | 16.1 | 0.00 | 0.00 | 0.00 | 43 | 1013.4 |
| 20260905193732 | 36 | 360 | 4.8 | 14.5 | 0.00 | 0.00 | 0.00 | 43 | 1013.5 |
| 20260905193653 | 36 | 360 | 4.8 | 14.5 | 0.00 | 0.00 | 0.00 | 42 | 1013.5 |
| 20260905193533 | 36 | 360 | 4.8 | 14.5 | 0.00 | 0.00 | 0.00 | 43 | 1013.5 |
| 20260905193433 | 35 | 360 | 4.8 | 14.5 | 0.00 | 0.00 | 0.00 | 43 | 1013.4 |
| 20260905193355 | 35 | 360 | 6.4 | 14.5 | 0.00 | 0.00 | 0.00 | 44 | 1013.5 |
| 20260905193234 | 35 | 360 | 8.0 | 14.5 | 0.00 | 0.00 | 0.00 | 45 | 1013.5 |
| 20260905193118 | 35 | 360 | 8.0 | 14.5 | 0.00 | 0.00 | 0.00 | 43 | 1013.7 |
| 20260905193020 | 36 | 360 | 8.0 | 14.5 | 0.00 | 0.00 | 0.00 | 43 | 1013.7 |
| 20260905192921 | 36 | 360 | 8.0 | 14.5 | 0.00 | 0.00 | 0.00 | 43 | 1013.6 |
| 20260905192843 | 36 | 360 | 6.4 | 14.5 | 0.00 | 0.00 | 0.00 | 43 | 1013.7 |
| 20260905192721 | 36 | 360 | 6.4 | 16.1 | 0.00 | 0.00 | 0.00 | 43 | 1013.7 |
| 20260905192640 | 36 | 360 | 4.8 | 16.1 | 0.00 | 0.00 | 0.00 | 44 | 1013.7 |
| 20260905192520 | 36 | 360 | 3.2 | 16.1 | 0.00 | 0.00 | 0.00 | 44 | 1013.8 |
| 20260905192440 | 36 | 360 | 4.8 | 16.1 | 0.00 | 0.00 | 0.00 | 43 | 1013.7 |
| 20260905192324 | 36 | 360 | 4.8 | 16.1 | 0.00 | 0.00 | 0.00 | 43 | 1013.8 |
| 20260905192225 | 36 | 360 | 4.8 | 16.1 | 0.00 | 0.00 | 0.00 | 43 | 1013.8 |
| 20260905192124 | 36 | 360 | 4.8 | 16.1 | 0.00 | 0.00 | 0.00 | 44 | 1013.7 |
| 20260905192025 | 36 | 360 | 4.8 | 16.1 | 0.00 | 0.00 | 0.00 | 42 | 1013.8 |
| 20260905191925 | 36 | 360 | 4.8 | 16.1 | 0.00 | 0.00 | 0.00 | 42 | 1013.8 |
| 20260905191826 | 36 | 159 | 4.8 | 9.7 | 0.00 | 0.00 | 0.00 | 42 | 1013.8 |
| 20260905191725 | 36 | 360 | 3.2 | 9.7 | 0.00 | 0.00 | 0.00 | 42 | 1013.9 |
| 20260905191629 | 36 | 360 | 3.2 | 9.7 | 0.00 | 0.00 | 0.00 | 43 | 1013.9 |
| 20260905191530 | 36 | 360 | 1.6 | 9.7 | 0.00 | 0.00 | 0.00 | 44 | 1013.9 |
| 20260905191450 | 35 | 360 | 1.6 | 9.7 | 0.00 | 0.00 | 0.00 | 44 | 1013.9 |
| 20260905191330 | 35 | 360 | 3.2 | 9.7 | 0.00 | 0.00 | 0.00 | 44 | 1013.9 |
| 20260905191231 | 35 | 360 | 4.8 | 16.1 | 0.00 | 0.00 | 0.00 | 44 | 1013.9 |
| 20260905191132 | 35 | 103 | 4.8 | 16.1 | 0.00 | 0.00 | 0.00 | 44 | 1013.9 |
| 20260905191052 | 35 | 360 | 4.8 | 16.1 | 0.00 | 0.00 | 0.00 | 44 | 1013.9 |
| 20260905190931 | 35 | 360 | 3.2 | 16.1 | 0.00 | 0.00 | 0.00 | 44 | 1013.9 |
| 20260905190835 | 35 | 360 | 3.2 | 16.1 | 0.00 | 0.00 | 0.00 | 45 | 1013.9 |
| 20260905190735 | 35 | 360 | 3.2 | 16.1 | 0.00 | 0.00 | 0.00 | 45 | 1014.0 |
| 20260905190616 | 35 | 360 | 4.8 | 20.9 | 0.00 | 0.00 | 0.00 | 46 | 1014.0 |
| 20260905190517 | 35 | 360 | 6.4 | 20.9 | 0.00 | 0.00 | 0.00 | 46 | 1014.0 |
| 20260905190437 | 34 | 360 | 8.0 | 20.9 | 0.00 | 0.00 | 0.00 | 45 | 1014.0 |
| 20260905190338 | 34 | 360 | 8.0 | 20.9 | 0.00 | 0.00 | 0.00 | 46 | 1014.0 |
| 20260905190237 | 34 | 360 | 9.7 | 20.9 | 0.00 | 0.00 | 0.00 | 46 | 1014.1 |
| 20260905190119 | 34 | 360 | 12.9 | 20.9 | 0.00 | 0.00 | 0.00 | 46 | 1014.0 |
| 20260905190018 | 34 | 360 | 12.9 | 20.9 | 0.00 | 0.00 | 0.00 | 46 | 1014.1 |
| 20260905185919 | 34 | 360 | 14.5 | 20.9 | 0.00 | 0.00 | 0.00 | 46 | 1014.1 |
| 20260905185821 | 35 | 360 | 12.9 | 20.9 | 0.00 | 0.00 | 0.00 | 46 | 1014.2 |
| 20260905185719 | 35 | 360 | 9.7 | 17.7 | 0.00 | 0.00 | 0.00 | 45 | 1014.1 |
| 20260905185619 | 35 | 360 | 8.0 | 17.7 | 0.00 | 0.00 | 0.00 | 46 | 1014.2 |
| 20260905185521 | 35 | 360 | 6.4 | 16.1 | 0.00 | 0.00 | 0.00 | 46 | 1014.1 |
| 20260905185425 | 35 | 360 | 6.4 | 16.1 | 0.00 | 0.00 | 0.00 | 45 | 1014.1 |
| 20260905185325 | 35 | 360 | 6.4 | 16.1 | 0.00 | 0.00 | 0.00 | 45 | 1014.2 |
| 20260905185227 | 35 | 360 | 8.0 | 16.1 | 0.00 | 0.00 | 0.00 | 45 | 1014.2 |
| 20260905185127 | 35 | 360 | 6.4 | 16.1 | 0.00 | 0.00 | 0.00 | 45 | 1014.3 |
| 20260905185028 | 36 | 360 | 6.4 | 16.1 | 0.00 | 0.00 | 0.00 | 45 | 1014.3 |
| 20260905184929 | 36 | 360 | 4.8 | 16.1 | 0.00 | 0.00 | 0.00 | 45 | 1014.3 |
| 20260905184829 | 35 | 360 | 6.4 | 16.1 | 0.00 | 0.00 | 0.00 | 45 | 1014.3 |
| 20260905184734 | 35 | 360 | 8.0 | 19.3 | 0.00 | 0.00 | 0.00 | 45 | 1014.3 |
| 20260905184634 | 35 | 360 | 8.0 | 19.3 | 0.00 | 0.00 | 0.00 | 46 | 1014.3 |
| 20260905184516 | 35 | 360 | 6.4 | 19.3 | 0.00 | 0.00 | 0.00 | 45 | 1014.3 |
| 20260905184437 | 35 | 360 | 6.4 | 19.3 | 0.00 | 0.00 | 0.00 | 45 | 1014.3 |
| 20260905184317 | 36 | 360 | 6.4 | 19.3 | 0.00 | 0.00 | 0.00 | 45 | 1014.3 |
| 20260905184217 | 36 | 360 | 6.4 | 19.3 | 0.00 | 0.00 | 0.00 | 45 | 1014.4 |
| 20260905184122 | 36 | 360 | 6.4 | 19.3 | 0.00 | 0.00 | 0.00 | 46 | 1014.4 |
| 20260905184022 | 35 | 360 | 4.8 | 19.3 | 0.00 | 0.00 | 0.00 | 45 | 1014.5 |
| 20260905183922 | 35 | 360 | 4.8 | 19.3 | 0.00 | 0.00 | 0.00 | 45 | 1014.6 |
| 20260905183823 | 35 | 360 | 3.2 | 17.7 | 0.00 | 0.00 | 0.00 | 46 | 1014.5 |
| 20260905183744 | 35 | 360 | 3.2 | 20.9 | 0.00 | 0.00 | 0.00 | 47 | 1014.7 |
| 20260905183624 | 35 | 360 | 4.8 | 20.9 | 0.00 | 0.00 | 0.00 | 46 | 1014.7 |
| 20260905183546 | 35 | 360 | 4.8 | 20.9 | 0.00 | 0.00 | 0.00 | 47 | 1014.7 |
| 20260905183445 | 35 | 360 | 4.8 | 20.9 | 0.00 | 0.00 | 0.00 | 47 | 1014.8 |
| 20260905183327 | 35 | 360 | 4.8 | 20.9 | 0.00 | 0.00 | 0.00 | 47 | 1014.8 |
| 20260905183228 | 35 | 360 | 6.4 | 20.9 | 0.00 | 0.00 | 0.00 | 46 | 1014.8 |
| 20260905183129 | 34 | 360 | 8.0 | 20.9 | 0.00 | 0.00 | 0.00 | 46 | 1014.7 |
| 20260905183029 | 35 | 360 | 11.3 | 20.9 | 0.00 | 0.00 | 0.00 | 46 | 1014.8 |
| 20260905182929 | 35 | 360 | 11.3 | 20.9 | 0.00 | 0.00 | 0.00 | 45 | 1014.8 |
| 20260905182832 | 35 | 360 | 6.4 | 20.9 | 0.00 | 0.00 | 0.00 | 45 | 1014.8 |
| 20260905182751 | 35 | 360 | 6.4 | 17.7 | 0.00 | 0.00 | 0.00 | 45 | 1014.8 |
| 20260905182652 | 35 | 360 | 8.0 | 17.7 | 0.00 | 0.00 | 0.00 | 46 | 1014.8 |
| 20260905182535 | 35 | 360 | 6.4 | 17.7 | 0.00 | 0.00 | 0.00 | 45 | 1015.0 |
| 20260905182456 | 35 | 360 | 4.8 | 17.7 | 0.00 | 0.00 | 0.00 | 46 | 1014.8 |
| 20260905182355 | 35 | 360 | 1.6 | 12.9 | 0.00 | 0.00 | 0.00 | 46 | 1014.9 |
| 20260905182233 | 35 | 360 | 3.2 | 12.9 | 0.00 | 0.00 | 0.00 | 46 | 1014.9 |
| 20260905182134 | 35 | 360 | 4.8 | 19.3 | 0.00 | 0.00 | 0.00 | 45 | 1014.9 |
| 20260905182035 | 35 | 360 | 4.8 | 19.3 | 0.00 | 0.00 | 0.00 | 45 | 1015.0 |
| 20260905181916 | 34 | 58 | 4.8 | 19.3 | 0.00 | 0.00 | 0.00 | 46 | 1015.0 |
| 20260905181820 | 34 | 11 | 6.4 | 19.3 | 0.00 | 0.00 | 0.00 | 45 | 1015.0 |
| 20260905181721 | 34 | 23 | 6.4 | 19.3 | 0.00 | 0.00 | 0.00 | 45 | 1015.0 |
| 20260905181619 | 34 | 360 | 6.4 | 19.3 | 0.00 | 0.00 | 0.00 | 46 | 1015.0 |
| 20260905181520 | 34 | 360 | 8.0 | 20.9 | 0.00 | 0.00 | 0.00 | 46 | 1015.0 |
| 20260905181420 | 34 | 360 | 6.4 | 20.9 | 0.00 | 0.00 | 0.00 | 46 | 1015.0 |
| 20260905181321 | 34 | 360 | 8.0 | 20.9 | 0.00 | 0.00 | 0.00 | 47 | 1015.1 |
| 20260905181220 | 34 | 360 | 8.0 | 20.9 | 0.00 | 0.00 | 0.00 | 48 | 1015.1 |
| 20260905181125 | 34 | 360 | 9.7 | 20.9 | 0.00 | 0.00 | 0.00 | 47 | 1015.1 |
| 20260905181040 | 33 | 360 | 11.3 | 24.1 | 0.00 | 0.00 | 0.00 | 47 | 1015.1 |
| 20260905180919 | 34 | 360 | 11.3 | 24.1 | 0.00 | 0.00 | 0.00 | 48 | 1015.2 |
| 20260905180821 | 33 | 360 | 11.3 | 24.1 | 0.00 | 0.00 | 0.00 | 48 | 1015.2 |
| 20260905180721 | 33 | 360 | 11.3 | 24.1 | 0.00 | 0.00 | 0.00 | 48 | 1015.2 |
| 20260905180623 | 33 | 360 | 11.3 | 25.7 | 0.00 | 0.00 | 0.00 | 48 | 1015.3 |
| 20260905180523 | 33 | 360 | 12.9 | 25.7 | 0.00 | 0.00 | 0.00 | 48 | 1015.3 |
| 20260905180428 | 33 | 360 | 12.9 | 25.7 | 0.00 | 0.00 | 0.00 | 48 | 1015.3 |
| 20260905180327 | 33 | 360 | 14.5 | 25.7 | 0.00 | 0.00 | 0.00 | 48 | 1015.3 |
| 20260905180228 | 33 | 360 | 16.1 | 25.7 | 0.00 | 0.00 | 0.00 | 49 | 1015.3 |
| 20260905180129 | 33 | 360 | 16.1 | 25.7 | 0.00 | 0.00 | 0.00 | 49 | 1015.4 |
| 20260905180050 | 33 | 165 | 17.7 | 25.7 | 0.00 | 0.00 | 0.00 | 47 | 1015.3 |
| 20260905175930 | 34 | 360 | 19.3 | 25.7 | 0.00 | 0.00 | 0.00 | 48 | 1015.3 |
| 20260905175832 | 34 | 360 | 16.1 | 25.7 | 0.00 | 0.00 | 0.00 | 48 | 1015.3 |
| 20260905175734 | 35 | 360 | 11.3 | 25.7 | 0.00 | 0.00 | 0.00 | 47 | 1015.3 |
| 20260905175635 | 35 | 360 | 4.8 | 22.5 | 0.00 | 0.00 | 0.00 | 52 | 1015.3 |
| 20260905175535 | 35 | 360 | 1.6 | 22.5 | 0.00 | 0.00 | 0.00 | 52 | 1015.3 |
| 20260905175416 | 33 | 360 | 1.6 | 22.5 | 0.00 | 0.00 | 0.00 | 52 | 1015.4 |
| 20260905175317 | 33 | 173 | 3.2 | 22.5 | 0.00 | 0.00 | 0.00 | 53 | 1015.4 |
| 20260905175217 | 33 | 360 | 4.8 | 22.5 | 0.00 | 0.00 | 0.00 | 53 | 1015.4 |
| 20260905175139 | 33 | 360 | 8.0 | 22.5 | 0.00 | 0.00 | 0.00 | 53 | 1015.4 |
| 20260905175023 | 33 | 172 | 8.0 | 22.5 | 0.00 | 0.00 | 0.00 | 53 | 1015.5 |
| 20260905174923 | 33 | 360 | 8.0 | 22.5 | 0.00 | 0.00 | 0.00 | 54 | 1015.5 |
| 20260905174824 | 33 | 360 | 8.0 | 22.5 | 0.00 | 0.00 | 0.00 | 53 | 1015.5 |
| 20260905174724 | 33 | 360 | 9.7 | 22.5 | 0.00 | 0.00 | 0.00 | 53 | 1015.5 |
| 20260905174625 | 33 | 360 | 9.7 | 22.5 | 0.00 | 0.00 | 0.00 | 53 | 1015.5 |
| 20260905174526 | 33 | 360 | 8.0 | 22.5 | 0.00 | 0.00 | 0.00 | 53 | 1015.5 |
| 20260905174431 | 33 | 360 | 6.4 | 20.9 | 0.00 | 0.00 | 0.00 | 52 | 1015.5 |
| 20260905174331 | 33 | 360 | 6.4 | 20.9 | 0.00 | 0.00 | 0.00 | 52 | 1015.6 |
| 20260905174231 | 33 | 360 | 8.0 | 20.9 | 0.00 | 0.00 | 0.00 | 52 | 1015.5 |
| 20260905174132 | 33 | 360 | 9.7 | 20.9 | 0.00 | 0.00 | 0.00 | 52 | 1015.6 |
| 20260905174033 | 33 | 360 | 11.3 | 27.4 | 0.00 | 0.00 | 0.00 | 52 | 1015.6 |
| 20260905173933 | 33 | 360 | 12.9 | 27.4 | 0.00 | 0.00 | 0.00 | 53 | 1015.6 |
| 20260905173818 | 33 | 360 | 14.5 | 27.4 | 0.00 | 0.00 | 0.00 | 53 | 1015.6 |
| 20260905173716 | 33 | 360 | 16.1 | 27.4 | 0.00 | 0.00 | 0.00 | 53 | 1015.6 |
| 20260905173617 | 33 | 360 | 12.9 | 27.4 | 0.00 | 0.00 | 0.00 | 52 | 1015.6 |
| 20260905173538 | 33 | 360 | 12.9 | 27.4 | 0.00 | 0.00 | 0.00 | 53 | 1015.7 |
| 20260905173437 | 33 | 360 | 16.1 | 27.4 | 0.00 | 0.00 | 0.00 | 53 | 1015.7 |
| 20260905173316 | 33 | 360 | 17.7 | 27.4 | 0.00 | 0.00 | 0.00 | 53 | 1015.6 |
| 20260905173216 | 33 | 360 | 14.5 | 27.4 | 0.00 | 0.00 | 0.00 | 53 | 1015.7 |
| 20260905173118 | 33 | 360 | 9.7 | 19.3 | 0.00 | 0.00 | 0.00 | 53 | 1015.6 |
| 20260905173022 | 33 | 360 | 6.4 | 17.7 | 0.00 | 0.00 | 0.00 | 55 | 1015.6 |
| 20260905172921 | 33 | 360 | 6.4 | 17.7 | 0.00 | 0.00 | 0.00 | 55 | 1015.7 |
| 20260905172823 | 33 | 360 | 4.8 | 17.7 | 0.00 | 0.00 | 0.00 | 57 | 1015.7 |
| 20260905172743 | 33 | 360 | 8.0 | 17.7 | 0.00 | 0.00 | 0.00 | 57 | 1015.8 |
| 20260905172623 | 33 | 360 | 6.4 | 17.7 | 0.00 | 0.00 | 0.00 | 57 | 1015.7 |
| 20260905172523 | 33 | 360 | 8.0 | 17.7 | 0.00 | 0.00 | 0.00 | 57 | 1015.8 |
| 20260905172424 | 33 | 360 | 6.4 | 14.5 | 0.00 | 0.00 | 0.00 | 58 | 1015.8 |
| 20260905172344 | 32 | 360 | 4.8 | 14.5 | 0.00 | 0.00 | 0.00 | 58 | 1015.8 |
| 20260905172228 | 32 | 225 | 3.2 | 12.9 | 0.00 | 0.00 | 0.00 | 58 | 1015.9 |
| 20260905172148 | 32 | 360 | 6.4 | 17.7 | 0.00 | 0.00 | 0.00 | 58 | 1015.9 |
| 20260905172027 | 32 | 360 | 8.0 | 17.7 | 0.00 | 0.00 | 0.00 | 57 | 1015.9 |
| 20260905171928 | 32 | 360 | 6.4 | 17.7 | 0.00 | 0.00 | 0.00 | 57 | 1015.8 |
| 20260905171828 | 32 | 360 | 6.4 | 17.7 | 0.00 | 0.00 | 0.00 | 58 | 1015.9 |
| 20260905171729 | 32 | 360 | 6.4 | 17.7 | 0.00 | 0.00 | 0.00 | 58 | 1015.9 |
| 20260905171630 | 32 | 360 | 6.4 | 19.3 | 0.00 | 0.00 | 0.00 | 58 | 1016.0 |
| 20260905171534 | 32 | 360 | 4.8 | 19.3 | 0.00 | 0.00 | 0.00 | 59 | 1015.9 |
| 20260905171433 | 32 | 360 | 6.4 | 19.3 | 0.00 | 0.00 | 0.00 | 59 | 1016.0 |
| 20260905171334 | 32 | 360 | 9.7 | 20.9 | 0.00 | 0.00 | 0.00 | 58 | 1015.9 |
| 20260905171234 | 32 | 360 | 9.7 | 20.9 | 0.00 | 0.00 | 0.00 | 61 | 1015.9 |
| 20260905171155 | 32 | 360 | 8.0 | 20.9 | 0.00 | 0.00 | 0.00 | 60 | 1015.9 |
| 20260905171034 | 32 | 360 | 8.0 | 20.9 | 0.00 | 0.00 | 0.00 | 60 | 1015.8 |
| 20260905170935 | 32 | 360 | 8.0 | 20.9 | 0.00 | 0.00 | 0.00 | 61 | 1015.9 |
| 20260905170855 | 32 | 360 | 9.7 | 20.9 | 0.00 | 0.00 | 0.00 | 61 | 1015.9 |
| 20260905170716 | 32 | 360 | 12.9 | 20.9 | 0.00 | 0.00 | 0.00 | 61 | 1015.9 |
| 20260905170616 | 32 | 360 | 12.9 | 20.9 | 0.00 | 0.00 | 0.00 | 60 | 1016.0 |
| 20260905170517 | 32 | 360 | 12.9 | 20.9 | 0.00 | 0.00 | 0.00 | 60 | 1015.9 |
| 20260905170418 | 32 | 155 | 12.9 | 20.9 | 0.00 | 0.00 | 0.00 | 60 | 1015.9 |
| 20260905170317 | 32 | 360 | 12.9 | 20.9 | 0.00 | 0.00 | 0.00 | 60 | 1015.9 |
| 20260905170218 | 32 | 360 | 12.9 | 19.3 | 0.00 | 0.00 | 0.00 | 61 | 1016.0 |
| 20260905170123 | 32 | 360 | 12.9 | 19.3 | 0.00 | 0.00 | 0.00 | 61 | 1015.9 |
| 20260905170023 | 32 | 360 | 11.3 | 19.3 | 0.00 | 0.00 | 0.00 | 60 | 1016.0 |
| 20260905165923 | 32 | 360 | 9.7 | 19.3 | 0.00 | 0.00 | 0.00 | 62 | 1016.1 |
| 20260905165825 | 32 | 360 | 9.7 | 17.7 | 0.00 | 0.00 | 0.00 | 61 | 1016.0 |
| 20260905165725 | 32 | 360 | 9.7 | 17.7 | 0.00 | 0.00 | 0.00 | 60 | 1016.0 |
| 20260905165646 | 32 | 360 | 9.7 | 17.7 | 0.00 | 0.00 | 0.00 | 59 | 1016.0 |
| 20260905165526 | 32 | 360 | 6.4 | 17.7 | 0.00 | 0.00 | 0.00 | 58 | 1016.0 |
| 20260905165431 | 33 | 360 | 8.0 | 17.7 | 0.00 | 0.00 | 0.00 | 58 | 1016.1 |
| 20260905165332 | 33 | 360 | 9.7 | 17.7 | 0.00 | 0.00 | 0.00 | 58 | 1016.0 |
| 20260905165231 | 33 | 360 | 8.0 | 17.7 | 0.00 | 0.00 | 0.00 | 57 | 1016.1 |
| 20260905165132 | 34 | 360 | 4.8 | 17.7 | 0.00 | 0.00 | 0.00 | 56 | 1016.1 |
| 20260905165032 | 34 | 360 | 1.6 | 12.9 | 0.00 | 0.00 | 0.00 | 56 | 1016.0 |
| 20260905164933 | 34 | 360 | 1.6 | 12.9 | 0.00 | 0.00 | 0.00 | 57 | 1016.0 |
| 20260905164853 | 33 | 360 | 3.2 | 12.9 | 0.00 | 0.00 | 0.00 | 59 | 1016.1 |
| 20260905164736 | 33 | 360 | 4.8 | 12.9 | 0.00 | 0.00 | 0.00 | 60 | 1016.0 |
| 20260905164657 | 32 | 360 | 4.8 | 12.9 | 0.00 | 0.00 | 0.00 | 60 | 1016.0 |
| 20260905164555 | 32 | 360 | 4.8 | 17.7 | 0.00 | 0.00 | 0.00 | 60 | 1016.1 |
| 20260905164434 | 32 | 360 | 6.4 | 17.7 | 0.00 | 0.00 | 0.00 | 61 | 1016.1 |
| 20260905164335 | 32 | 360 | 6.4 | 17.7 | 0.00 | 0.00 | 0.00 | 60 | 1016.1 |
| 20260905164235 | 32 | 360 | 6.4 | 17.7 | 0.00 | 0.00 | 0.00 | 60 | 1016.1 |
| 20260905164135 | 32 | 360 | 4.8 | 17.7 | 0.00 | 0.00 | 0.00 | 60 | 1016.0 |
| 20260905164020 | 32 | 360 | 4.8 | 19.3 | 0.00 | 0.00 | 0.00 | 62 | 1016.0 |
| 20260905163920 | 32 | 360 | 6.4 | 19.3 | 0.00 | 0.00 | 0.00 | 61 | 1016.0 |
| 20260905163820 | 32 | 360 | 8.0 | 19.3 | 0.00 | 0.00 | 0.00 | 61 | 1016.1 |
| 20260905163721 | 32 | 360 | 8.0 | 19.3 | 0.00 | 0.00 | 0.00 | 61 | 1016.1 |
| 20260905163622 | 31 | 360 | 8.0 | 19.3 | 0.00 | 0.00 | 0.00 | 60 | 1016.1 |
| 20260905163542 | 31 | 360 | 6.4 | 19.3 | 0.00 | 0.00 | 0.00 | 60 | 1016.1 |
| 20260905163442 | 31 | 360 | 6.4 | 19.3 | 0.00 | 0.00 | 0.00 | 59 | 1016.2 |
| 20260905163321 | 31 | 360 | 11.3 | 19.3 | 0.00 | 0.00 | 0.00 | 59 | 1016.2 |
| 20260905163226 | 32 | 360 | 11.3 | 19.3 | 0.00 | 0.00 | 0.00 | 61 | 1016.2 |
| 20260905163127 | 32 | 360 | 9.7 | 16.1 | 0.00 | 0.00 | 0.00 | 62 | 1016.2 |
| 20260905163027 | 32 | 360 | 8.0 | 16.1 | 0.00 | 0.00 | 0.00 | 62 | 1016.1 |
| 20260905162929 | 32 | 360 | 4.8 | 16.1 | 0.00 | 0.00 | 0.00 | 63 | 1016.1 |
| 20260905162832 | 31 | 360 | 4.8 | 16.1 | 0.00 | 0.00 | 0.00 | 63 | 1016.1 |
| 20260905162732 | 31 | 360 | 4.8 | 16.1 | 0.00 | 0.00 | 0.00 | 63 | 1016.1 |
| 20260905162617 | 31 | 360 | 6.4 | 19.3 | 0.00 | 0.00 | 0.00 | 64 | 1016.1 |
| 20260905162537 | 31 | 360 | 8.0 | 19.3 | 0.00 | 0.00 | 0.00 | 63 | 1016.2 |
| 20260905162416 | 31 | 360 | 8.0 | 19.3 | 0.00 | 0.00 | 0.00 | 62 | 1016.1 |
| 20260905162317 | 31 | 360 | 9.7 | 22.5 | 0.00 | 0.00 | 0.00 | 62 | 1016.1 |
| 20260905162218 | 31 | 360 | 6.4 | 22.5 | 0.00 | 0.00 | 0.00 | 63 | 1016.2 |
| 20260905162117 | 31 | 360 | 6.4 | 22.5 | 0.00 | 0.00 | 0.00 | 63 | 1016.1 |
| 20260905162017 | 31 | 360 | 8.0 | 22.5 | 0.00 | 0.00 | 0.00 | 64 | 1016.2 |
| 20260905161917 | 31 | 360 | 11.3 | 22.5 | 0.00 | 0.00 | 0.00 | 64 | 1016.1 |
| 20260905161822 | 31 | 360 | 14.5 | 27.4 | 0.00 | 0.00 | 0.00 | 64 | 1016.2 |
| 20260905161742 | 31 | 360 | 14.5 | 27.4 | 0.00 | 0.00 | 0.00 | 65 | 1016.2 |
| 20260905161622 | 31 | 360 | 14.5 | 27.4 | 0.00 | 0.00 | 0.00 | 65 | 1016.1 |
| 20260905161521 | 31 | 151 | 9.7 | 27.4 | 0.00 | 0.00 | 0.00 | 66 | 1016.2 |
| 20260905161443 | 31 | 360 | 8.0 | 27.4 | 0.00 | 0.00 | 0.00 | 66 | 1016.2 |
| 20260905161316 | 31 | 360 | 6.4 | 27.4 | 0.00 | 0.00 | 0.00 | 66 | 1016.1 |
| 20260905161216 | 31 | 360 | 11.3 | 27.4 | 0.00 | 0.00 | 0.00 | 65 | 1016.2 |
| 20260905161120 | 31 | 360 | 12.9 | 27.4 | 0.00 | 0.00 | 0.00 | 65 | 1016.2 |
| 20260905161042 | 31 | 360 | 12.9 | 22.5 | 0.00 | 0.00 | 0.00 | 65 | 1016.2 |
| 20260905160920 | 31 | 360 | 8.0 | 17.7 | 0.00 | 0.00 | 0.00 | 65 | 1016.1 |
| 20260905160821 | 31 | 360 | 6.4 | 17.7 | 0.00 | 0.00 | 0.00 | 66 | 1016.1 |
| 20260905160721 | 31 | 360 | 9.7 | 17.7 | 0.00 | 0.00 | 0.00 | 66 | 1016.2 |
| 20260905160642 | 31 | 360 | 11.3 | 17.7 | 0.00 | 0.00 | 0.00 | 66 | 1016.2 |
| 20260905160521 | 31 | 360 | 9.7 | 17.7 | 0.00 | 0.00 | 0.00 | 66 | 1016.2 |
| 20260905160420 | 31 | 360 | 8.0 | 17.7 | 0.00 | 0.00 | 0.00 | 66 | 1016.1 |
| 20260905160325 | 31 | 360 | 8.0 | 17.7 | 0.00 | 0.00 | 0.00 | 66 | 1016.2 |
| 20260905160246 | 31 | 360 | 9.7 | 17.7 | 0.00 | 0.00 | 0.00 | 66 | 1016.2 |
| 20260905160125 | 31 | 360 | 9.7 | 17.7 | 0.00 | 0.00 | 0.00 | 66 | 1016.1 |
| 20260905160025 | 32 | 165 | 9.7 | 16.1 | 0.00 | 0.00 | 0.00 | 65 | 1016.1 |
| 20260905155926 | 32 | 360 | 8.0 | 16.1 | 0.00 | 0.00 | 0.00 | 65 | 1016.2 |
| 20260905155848 | 32 | 360 | 6.4 | 16.1 | 0.00 | 0.00 | 0.00 | 64 | 1016.1 |
| 20260905155725 | 32 | 360 | 4.8 | 16.1 | 0.00 | 0.00 | 0.00 | 65 | 1016.1 |
| 20260905155626 | 32 | 360 | 3.2 | 6.4 | 0.00 | 0.00 | 0.00 | 66 | 1016.1 |
| 20260905155531 | 32 | 360 | 3.2 | 8.0 | 0.00 | 0.00 | 0.00 | 66 | 1016.1 |
| 20260905155430 | 32 | 360 | 3.2 | 8.0 | 0.00 | 0.00 | 0.00 | 66 | 1016.1 |
| 20260905155330 | 32 | 360 | 1.6 | 8.0 | 0.00 | 0.00 | 0.00 | 68 | 1016.1 |
| 20260905155231 | 31 | 360 | 3.2 | 9.7 | 0.00 | 0.00 | 0.00 | 70 | 1016.1 |
| 20260905155151 | 31 | 360 | 3.2 | 12.9 | 0.00 | 0.00 | 0.00 | 70 | 1016.2 |
| 20260905155051 | 31 | 360 | 3.2 | 12.9 | 0.00 | 0.00 | 0.00 | 70 | 1016.2 |
| 20260905154931 | 31 | 360 | 4.8 | 14.5 | 0.00 | 0.00 | 0.00 | 70 | 1016.1 |
| 20260905154831 | 30 | 360 | 3.2 | 14.5 | 0.00 | 0.00 | 0.00 | 71 | 1016.1 |
| 20260905154735 | 30 | 360 | 4.8 | 14.5 | 0.00 | 0.00 | 0.00 | 71 | 1016.1 |
| 20260905154636 | 30 | 360 | 3.2 | 19.3 | 0.00 | 0.00 | 0.00 | 71 | 1016.2 |
| 20260905154556 | 30 | 360 | 4.8 | 19.3 | 0.00 | 0.00 | 0.00 | 72 | 1016.1 |
| 20260905154416 | 30 | 188 | 6.4 | 19.3 | 0.00 | 0.00 | 0.00 | 71 | 1016.2 |
| 20260905154317 | 30 | 360 | 6.4 | 19.3 | 0.00 | 0.00 | 0.00 | 73 | 1016.1 |
| 20260905154217 | 30 | 360 | 6.4 | 19.3 | 0.00 | 0.00 | 0.00 | 72 | 1016.1 |
| 20260905154117 | 30 | 360 | 9.7 | 19.3 | 0.00 | 0.00 | 0.00 | 74 | 1016.1 |
| 20260905154022 | 29 | 360 | 9.7 | 19.3 | 0.00 | 0.00 | 0.00 | 74 | 1016.2 |
| 20260905153943 | 29 | 360 | 11.3 | 19.3 | 0.00 | 0.00 | 0.00 | 73 | 1016.2 |
| 20260905153823 | 29 | 360 | 9.7 | 19.3 | 0.00 | 0.00 | 0.00 | 72 | 1016.2 |
| 20260905153724 | 29 | 360 | 8.0 | 19.3 | 0.00 | 0.00 | 0.00 | 72 | 1016.2 |
| 20260905153622 | 30 | 360 | 6.4 | 19.3 | 0.00 | 0.00 | 0.00 | 72 | 1016.1 |
| 20260905153523 | 30 | 360 | 4.8 | 19.3 | 0.00 | 0.00 | 0.00 | 72 | 1016.1 |
| 20260905153423 | 30 | 360 | 6.4 | 19.3 | 0.00 | 0.00 | 0.00 | 73 | 1016.2 |
| 20260905153324 | 30 | 360 | 8.0 | 24.1 | 0.00 | 0.00 | 0.00 | 73 | 1016.1 |
| 20260905153229 | 30 | 360 | 8.0 | 24.1 | 0.00 | 0.00 | 0.00 | 73 | 1016.1 |
| 20260905153130 | 29 | 360 | 8.0 | 24.1 | 0.00 | 0.00 | 0.00 | 73 | 1016.2 |
| 20260905153030 | 29 | 360 | 9.7 | 24.1 | 0.00 | 0.00 | 0.00 | 73 | 1016.1 |
| 20260905152931 | 29 | 360 | 9.7 | 24.1 | 0.00 | 0.00 | 0.00 | 74 | 1016.1 |
| 20260905152832 | 29 | 360 | 11.3 | 24.1 | 0.00 | 0.00 | 0.00 | 73 | 1016.1 |
| 20260905152733 | 30 | 360 | 14.5 | 24.1 | 0.00 | 0.00 | 0.00 | 73 | 1016.1 |
| 20260905152616 | 30 | 360 | 11.3 | 24.1 | 0.00 | 0.00 | 0.00 | 73 | 1016.2 |
| 20260905152517 | 30 | 360 | 8.0 | 24.1 | 0.00 | 0.00 | 0.00 | 73 | 1016.2 |
| 20260905152416 | 30 | 360 | 4.8 | 17.7 | 0.00 | 0.00 | 0.00 | 75 | 1016.1 |
| 20260905152317 | 30 | 360 | 4.8 | 17.7 | 0.00 | 0.00 | 0.00 | 75 | 1016.2 |
| 20260905152218 | 30 | 360 | 6.4 | 17.7 | 0.00 | 0.00 | 0.00 | 76 | 1016.1 |
| 20260905152138 | 29 | 360 | 8.0 | 17.7 | 0.00 | 0.00 | 0.00 | 76 | 1016.1 |
| 20260905152018 | 29 | 360 | 8.0 | 17.7 | 0.00 | 0.00 | 0.00 | 76 | 1016.2 |
| 20260905151922 | 29 | 360 | 8.0 | 17.7 | 0.00 | 0.00 | 0.00 | 76 | 1016.2 |
| 20260905151822 | 29 | 360 | 9.7 | 17.7 | 0.00 | 0.00 | 0.00 | 77 | 1016.2 |
| 20260905151743 | 28 | 360 | 9.7 | 17.7 | 0.00 | 0.00 | 0.00 | 77 | 1016.2 |
| 20260905151643 | 28 | 360 | 8.0 | 17.7 | 0.00 | 0.00 | 0.00 | 77 | 1016.2 |
| 20260905151516 | 28 | 360 | 4.8 | 17.7 | 0.00 | 0.00 | 0.00 | 77 | 1016.2 |
| 20260905151417 | 28 | 360 | 3.2 | 16.1 | 0.00 | 0.00 | 0.00 | 78 | 1016.2 |
| 20260905151317 | 28 | 166 | 4.8 | 17.7 | 0.00 | 0.00 | 0.00 | 78 | 1016.3 |
| 20260905151222 | 28 | 360 | 6.4 | 17.7 | 0.00 | 0.00 | 0.00 | 78 | 1016.3 |
| 20260905151121 | 28 | 360 | 6.4 | 17.7 | 0.00 | 0.00 | 0.00 | 78 | 1016.2 |
| 20260905151042 | 28 | 360 | 8.0 | 17.7 | 0.00 | 0.00 | 0.00 | 78 | 1016.2 |
| 20260905150922 | 28 | 360 | 6.4 | 17.7 | 0.00 | 0.00 | 0.00 | 78 | 1016.2 |
| 20260905150823 | 28 | 360 | 6.4 | 17.7 | 0.00 | 0.00 | 0.00 | 78 | 1016.3 |
| 20260905150725 | 28 | 360 | 6.4 | 17.7 | 0.00 | 0.00 | 0.00 | 78 | 1016.3 |
| 20260905150624 | 28 | 360 | 8.0 | 17.7 | 0.00 | 0.00 | 0.00 | 78 | 1016.3 |
| 20260905150529 | 28 | 360 | 9.7 | 17.7 | 0.00 | 0.00 | 0.00 | 78 | 1016.3 |
| 20260905150430 | 28 | 360 | 9.7 | 17.7 | 0.00 | 0.00 | 0.00 | 77 | 1016.3 |
| 20260905150331 | 28 | 360 | 8.0 | 17.7 | 0.00 | 0.00 | 0.00 | 77 | 1016.2 |
| 20260905150251 | 28 | 360 | 9.7 | 17.7 | 0.00 | 0.00 | 0.00 | 77 | 1016.3 |
| 20260905150131 | 28 | 360 | 8.0 | 17.7 | 0.00 | 0.00 | 0.00 | 77 | 1016.3 |
| 20260905150031 | 29 | 360 | 9.7 | 17.7 | 0.00 | 0.00 | 0.00 | 77 | 1016.3 |
| 20260905145930 | 29 | 360 | 8.0 | 17.7 | 0.00 | 0.00 | 0.00 | 79 | 1016.2 |
| 20260905145832 | 29 | 360 | 6.4 | 17.7 | 0.00 | 0.00 | 0.00 | 79 | 1016.2 |
| 20260905145716 | 28 | 360 | 6.4 | 17.7 | 0.00 | 0.00 | 0.00 | 78 | 1016.2 |
| 20260905145616 | 28 | 360 | 8.0 | 17.7 | 0.00 | 0.00 | 0.00 | 78 | 1016.2 |
| 20260905145518 | 28 | 360 | 9.7 | 17.7 | 0.00 | 0.00 | 0.00 | 78 | 1016.2 |
| 20260905145418 | 28 | 360 | 9.7 | 17.7 | 0.00 | 0.00 | 0.00 | 78 | 1016.2 |
| 20260905145318 | 28 | 360 | 8.0 | 17.7 | 0.00 | 0.00 | 0.00 | 78 | 1016.2 |
| 20260905145219 | 29 | 360 | 6.4 | 14.5 | 0.00 | 0.00 | 0.00 | 78 | 1016.2 |
| 20260905145123 | 29 | 360 | 4.8 | 14.5 | 0.00 | 0.00 | 0.00 | 78 | 1016.1 |
| 20260905145044 | 29 | 360 | 3.2 | 14.5 | 0.00 | 0.00 | 0.00 | 79 | 1016.1 |
| 20260905144923 | 29 | 360 | 1.6 | 12.9 | 0.00 | 0.00 | 0.00 | 79 | 1016.1 |
| 20260905144824 | 28 | 360 | 0.0 | 12.9 | 0.00 | 0.00 | 0.00 | 80 | 1016.1 |
| 20260905144723 | 28 | 360 | 1.6 | 12.9 | 0.00 | 0.00 | 0.00 | 81 | 1016.1 |
| 20260905144624 | 28 | 360 | 3.2 | 12.9 | 0.00 | 0.00 | 0.00 | 81 | 1016.1 |
| 20260905144524 | 28 | 360 | 3.2 | 16.1 | 0.00 | 0.00 | 0.00 | 82 | 1016.1 |
| 20260905144429 | 27 | 360 | 3.2 | 17.7 | 0.00 | 0.00 | 0.00 | 82 | 1016.0 |
| 20260905144328 | 27 | 360 | 3.2 | 17.7 | 0.00 | 0.00 | 0.00 | 82 | 1016.1 |
| 20260905144249 | 27 | 360 | 4.8 | 17.7 | 0.00 | 0.00 | 0.00 | 82 | 1016.1 |
| 20260905144147 | 27 | 360 | 4.8 | 17.7 | 0.00 | 0.00 | 0.00 | 82 | 1016.1 |
| 20260905144028 | 27 | 360 | 6.4 | 17.7 | 0.00 | 0.00 | 0.00 | 82 | 1016.1 |
| 20260905143928 | 27 | 360 | 8.0 | 17.7 | 0.00 | 0.00 | 0.00 | 82 | 1016.0 |
| 20260905143829 | 27 | 360 | 8.0 | 17.7 | 0.00 | 0.00 | 0.00 | 82 | 1016.1 |
| 20260905143733 | 27 | 360 | 8.0 | 17.7 | 0.00 | 0.00 | 0.00 | 82 | 1016.1 |
| 20260905143653 | 27 | 360 | 8.0 | 17.7 | 0.00 | 0.00 | 0.00 | 82 | 1016.1 |
| 20260905143553 | 27 | 360 | 9.7 | 17.7 | 0.00 | 0.00 | 0.00 | 82 | 1016.1 |
| 20260905143433 | 27 | 360 | 9.7 | 17.7 | 0.00 | 0.00 | 0.00 | 82 | 1016.1 |
| 20260905143334 | 27 | 360 | 9.7 | 17.7 | 0.00 | 0.00 | 0.00 | 82 | 1016.1 |
| 20260905143235 | 27 | 360 | 9.7 | 19.3 | 0.00 | 0.00 | 0.00 | 82 | 1016.1 |
| 20260905143135 | 27 | 360 | 9.7 | 19.3 | 0.00 | 0.00 | 0.00 | 82 | 1016.1 |
| 20260905143019 | 27 | 360 | 8.0 | 19.3 | 0.00 | 0.00 | 0.00 | 82 | 1016.0 |
| 20260905142939 | 27 | 178 | 8.0 | 19.3 | 0.00 | 0.00 | 0.00 | 82 | 1015.9 |
| 20260905142821 | 27 | 360 | 6.4 | 19.3 | 0.00 | 0.00 | 0.00 | 83 | 1016.0 |
| 20260905142722 | 27 | 176 | 6.4 | 19.3 | 0.00 | 0.00 | 0.00 | 83 | 1016.1 |
| 20260905142622 | 27 | 360 | 8.0 | 19.3 | 0.00 | 0.00 | 0.00 | 83 | 1016.0 |
| 20260905142523 | 27 | 360 | 11.3 | 19.3 | 0.00 | 0.00 | 0.00 | 83 | 1016.1 |
| 20260905142444 | 27 | 360 | 11.3 | 19.3 | 0.00 | 0.00 | 0.00 | 82 | 1016.0 |
| 20260905142324 | 27 | 360 | 9.7 | 19.3 | 0.00 | 0.00 | 0.00 | 82 | 1016.1 |
| 20260905142228 | 27 | 360 | 9.7 | 19.3 | 0.00 | 0.00 | 0.00 | 83 | 1016.1 |
| 20260905142129 | 27 | 360 | 6.4 | 14.5 | 0.00 | 0.00 | 0.00 | 84 | 1016.1 |
| 20260905142029 | 27 | 360 | 6.4 | 14.5 | 0.00 | 0.00 | 0.00 | 84 | 1016.1 |
| 20260905141929 | 27 | 360 | 6.4 | 14.5 | 0.00 | 0.00 | 0.00 | 85 | 1016.0 |
| 20260905141849 | 27 | 360 | 6.4 | 14.5 | 0.00 | 0.00 | 0.00 | 85 | 1016.0 |
| 20260905141728 | 27 | 360 | 8.0 | 14.5 | 0.00 | 0.00 | 0.00 | 85 | 1016.0 |
| 20260905141628 | 27 | 159 | 6.4 | 14.5 | 0.00 | 0.00 | 0.00 | 85 | 1016.0 |
| 20260905141553 | 27 | 360 | 4.8 | 14.5 | 0.00 | 0.00 | 0.00 | 86 | 1016.0 |
| 20260905141432 | 27 | 166 | 6.4 | 14.5 | 0.00 | 0.00 | 0.00 | 86 | 1016.0 |
| 20260905141353 | 27 | 360 | 8.0 | 14.5 | 0.00 | 0.00 | 0.00 | 85 | 1016.0 |
| 20260905141232 | 27 | 161 | 8.0 | 14.5 | 0.00 | 0.00 | 0.00 | 86 | 1015.9 |
| 20260905141133 | 27 | 360 | 4.8 | 12.9 | 0.00 | 0.00 | 0.00 | 86 | 1016.0 |
| 20260905141032 | 27 | 360 | 4.8 | 16.1 | 0.00 | 0.00 | 0.00 | 87 | 1015.9 |
| 20260905140933 | 27 | 360 | 4.8 | 16.1 | 0.00 | 0.00 | 0.00 | 87 | 1015.8 |
| 20260905140837 | 27 | 360 | 4.8 | 16.1 | 0.00 | 0.00 | 0.00 | 87 | 1015.9 |
| 20260905140758 | 27 | 360 | 3.2 | 16.1 | 0.00 | 0.00 | 0.00 | 88 | 1015.8 |
| 20260905140636 | 26 | 360 | 3.2 | 16.1 | 0.00 | 0.00 | 0.00 | 88 | 1015.8 |
| 20260905140516 | 26 | 360 | 4.8 | 16.1 | 0.00 | 0.00 | 0.00 | 87 | 1015.8 |
| 20260905140417 | 26 | 360 | 8.0 | 16.1 | 0.00 | 0.00 | 0.00 | 87 | 1015.9 |
| 20260905140318 | 26 | 360 | 9.7 | 16.1 | 0.00 | 0.00 | 0.00 | 87 | 1015.8 |
| 20260905140240 | 26 | 360 | 8.0 | 16.1 | 0.00 | 0.00 | 0.00 | 88 | 1015.9 |
| 20260905140119 | 26 | 360 | 4.8 | 8.0 | 0.00 | 0.00 | 0.00 | 88 | 1015.9 |
| 20260905140023 | 26 | 360 | 3.2 | 8.0 | 0.00 | 0.00 | 0.00 | 88 | 1015.9 |
| 20260905135924 | 26 | 360 | 1.6 | 4.8 | 0.00 | 0.00 | 0.00 | 89 | 1015.9 |
| 20260905135825 | 26 | 360 | 1.6 | 4.8 | 0.00 | 0.00 | 0.00 | 89 | 1015.8 |
| 20260905135726 | 26 | 360 | 3.2 | 4.8 | 0.00 | 0.00 | 0.00 | 89 | 1015.9 |
| 20260905135626 | 26 | 360 | 1.6 | 4.8 | 0.00 | 0.00 | 0.00 | 89 | 1015.9 |
| 20260905135527 | 26 | 360 | 1.6 | 4.8 | 0.00 | 0.00 | 0.00 | 89 | 1015.8 |
| 20260905135448 | 26 | 360 | 1.6 | 4.8 | 0.00 | 0.00 | 0.00 | 89 | 1015.9 |
| 20260905135332 | 26 | 360 | 1.6 | 4.8 | 0.00 | 0.00 | 0.00 | 89 | 1015.9 |
| 20260905135233 | 26 | 165 | 1.6 | 6.4 | 0.00 | 0.00 | 0.00 | 89 | 1015.8 |
| 20260905135134 | 26 | 360 | 1.6 | 3.2 | 0.00 | 0.00 | 0.00 | 89 | 1015.8 |
| 20260905135034 | 26 | 165 | 1.6 | 3.2 | 0.00 | 0.00 | 0.00 | 89 | 1015.8 |
| 20260905134935 | 26 | 360 | 1.6 | 4.8 | 0.00 | 0.00 | 0.00 | 89 | 1015.8 |
| 20260905134816 | 26 | 165 | 1.6 | 4.8 | 0.00 | 0.00 | 0.00 | 89 | 1015.8 |
| 20260905134722 | 26 | 360 | 1.6 | 4.8 | 0.00 | 0.00 | 0.00 | 89 | 1015.8 |
| 20260905134622 | 26 | 360 | 1.6 | 4.8 | 0.00 | 0.00 | 0.00 | 90 | 1015.8 |
| 20260905134542 | 26 | 360 | 1.6 | 4.8 | 0.00 | 0.00 | 0.00 | 90 | 1015.8 |
| 20260905134416 | 26 | 360 | 1.6 | 4.8 | 0.00 | 0.00 | 0.00 | 90 | 1015.9 |
| 20260905134316 | 26 | 360 | 0.0 | 4.8 | 0.00 | 0.00 | 0.00 | 90 | 1015.8 |
| 20260905134217 | 26 | 360 | 1.6 | 4.8 | 0.00 | 0.00 | 0.00 | 90 | 1015.8 |
| 20260905134122 | 26 | 360 | 1.6 | 4.8 | 0.00 | 0.00 | 0.00 | 90 | 1015.8 |
| 20260905134022 | 26 | 360 | 3.2 | 4.8 | 0.00 | 0.00 | 0.00 | 90 | 1015.8 |
| 20260905133922 | 26 | 360 | 1.6 | 4.8 | 0.00 | 0.00 | 0.00 | 90 | 1015.7 |
| 20260905133824 | 26 | 360 | 1.6 | 4.8 | 0.00 | 0.00 | 0.00 | 90 | 1015.8 |
| 20260905133723 | 26 | 360 | 1.6 | 8.0 | 0.00 | 0.00 | 0.00 | 90 | 1015.8 |
| 20260905133624 | 26 | 360 | 1.6 | 8.0 | 0.00 | 0.00 | 0.00 | 90 | 1015.8 |
| 20260905133524 | 25 | 360 | 3.2 | 8.0 | 0.00 | 0.00 | 0.00 | 91 | 1015.7 |
| 20260905133429 | 25 | 360 | 3.2 | 8.0 | 0.00 | 0.00 | 0.00 | 91 | 1015.7 |
| 20260905133329 | 25 | 360 | 3.2 | 8.0 | 0.00 | 0.00 | 0.00 | 91 | 1015.7 |
| 20260905133229 | 25 | 360 | 3.2 | 8.0 | 0.00 | 0.00 | 0.00 | 91 | 1015.6 |
| 20260905133150 | 25 | 360 | 3.2 | 8.0 | 0.00 | 0.00 | 0.00 | 91 | 1015.8 |
| 20260905133049 | 25 | 360 | 4.8 | 8.0 | 0.00 | 0.00 | 0.00 | 91 | 1015.7 |
| 20260905132928 | 25 | 360 | 4.8 | 8.0 | 0.00 | 0.00 | 0.00 | 91 | 1015.7 |
| 20260905132829 | 25 | 360 | 4.8 | 6.4 | 0.00 | 0.00 | 0.00 | 91 | 1015.7 |
| 20260905132729 | 25 | 360 | 4.8 | 6.4 | 0.00 | 0.00 | 0.00 | 91 | 1015.8 |
| 20260905132654 | 25 | 360 | 3.2 | 6.4 | 0.00 | 0.00 | 0.00 | 91 | 1015.8 |
| 20260905132533 | 25 | 360 | 3.2 | 4.8 | 0.00 | 0.00 | 0.00 | 91 | 1015.7 |
| 20260905132433 | 25 | 179 | 3.2 | 4.8 | 0.00 | 0.00 | 0.00 | 91 | 1015.8 |
| 20260905132352 | 25 | 360 | 1.6 | 4.8 | 0.00 | 0.00 | 0.00 | 91 | 1015.6 |
| 20260905132232 | 25 | 186 | 0.0 | 3.2 | 0.00 | 0.00 | 0.00 | 91 | 1015.7 |
| 20260905132131 | 25 | 360 | 0.0 | 3.2 | 0.00 | 0.00 | 0.00 | 91 | 1015.6 |
| 20260905132052 | 25 | 186 | 1.6 | 3.2 | 0.00 | 0.00 | 0.00 | 91 | 1015.6 |
| 20260905131930 | 25 | 186 | 1.6 | 3.2 | 0.00 | 0.00 | 0.00 | 91 | 1015.6 |
| 20260905131831 | 25 | 360 | 1.6 | 3.2 | 0.00 | 0.00 | 0.00 | 91 | 1015.6 |
| 20260905131751 | 25 | 360 | 1.6 | 3.2 | 0.00 | 0.00 | 0.00 | 91 | 1015.6 |
| 20260905131633 | 25 | 360 | 1.6 | 3.2 | 0.00 | 0.00 | 0.00 | 91 | 1015.6 |
| 20260905131534 | 25 | 360 | 1.6 | 3.2 | 0.00 | 0.00 | 0.00 | 91 | 1015.5 |
| 20260905131435 | 25 | 360 | 1.6 | 3.2 | 0.00 | 0.00 | 0.00 | 91 | 1015.5 |
| 20260905131336 | 25 | 360 | 1.6 | 3.2 | 0.00 | 0.00 | 0.00 | 91 | 1015.5 |
| 20260905131216 | 25 | 360 | 1.6 | 3.2 | 0.00 | 0.00 | 0.00 | 91 | 1015.5 |
| 20260905131117 | 25 | 360 | 1.6 | 3.2 | 0.00 | 0.00 | 0.00 | 91 | 1015.5 |
| 20260905131021 | 25 | 360 | 1.6 | 3.2 | 0.00 | 0.00 | 0.00 | 91 | 1015.4 |
| 20260905130921 | 25 | 186 | 0.0 | 3.2 | 0.00 | 0.00 | 0.00 | 91 | 1015.5 |
| 20260905130823 | 25 | 186 | 0.0 | 1.6 | 0.00 | 0.00 | 0.00 | 91 | 1015.4 |
| 20260905130723 | 25 | 360 | 0.0 | 1.6 | 0.00 | 0.00 | 0.00 | 91 | 1015.5 |
| 20260905130624 | 25 | 360 | 0.0 | 1.6 | 0.00 | 0.00 | 0.00 | 91 | 1015.5 |
| 20260905130545 | 25 | 360 | 0.0 | 3.2 | 0.00 | 0.00 | 0.00 | 91 | 1015.5 |
| 20260905130444 | 25 | 360 | 0.0 | 3.2 | 0.00 | 0.00 | 0.00 | 91 | 1015.4 |
| 20260905130323 | 25 | 360 | 0.0 | 6.4 | 0.00 | 0.00 | 0.00 | 91 | 1015.4 |
| 20260905130242 | 25 | 360 | 0.0 | 6.4 | 0.00 | 0.00 | 0.00 | 91 | 1015.4 |
| 20260905130126 | 25 | 360 | 0.0 | 6.4 | 0.00 | 0.00 | 0.00 | 91 | 1015.4 |
| 20260905130027 | 25 | 360 | 0.0 | 6.4 | 0.00 | 0.00 | 0.00 | 91 | 1015.4 |
| 20260905125928 | 25 | 360 | 0.0 | 6.4 | 0.00 | 0.00 | 0.00 | 91 | 1015.5 |
| 20260905125849 | 25 | 360 | 0.0 | 6.4 | 0.00 | 0.00 | 0.00 | 91 | 1015.4 |
| 20260905125727 | 24 | 360 | 0.0 | 6.4 | 0.00 | 0.00 | 0.00 | 91 | 1015.4 |
| 20260905125628 | 24 | 360 | 1.6 | 6.4 | 0.00 | 0.00 | 0.00 | 91 | 1015.4 |
| 20260905125529 | 24 | 360 | 1.6 | 6.4 | 0.00 | 0.00 | 0.00 | 91 | 1015.3 |
| 20260905125434 | 24 | 186 | 1.6 | 6.4 | 0.00 | 0.00 | 0.00 | 91 | 1015.4 |
| 20260905125334 | 24 | 186 | 1.6 | 6.4 | 0.00 | 0.00 | 0.00 | 91 | 1015.3 |
| 20260905125234 | 24 | 360 | 0.0 | 0.0 | 0.00 | 0.00 | 0.00 | 91 | 1015.3 |
| 20260905125135 | 24 | 360 | 0.0 | 0.0 | 0.00 | 0.00 | 0.00 | 91 | 1015.3 |
| 20260905125036 | 24 | 360 | 0.0 | 0.0 | 0.00 | 0.00 | 0.00 | 91 | 1015.2 |
| 20260905124935 | 24 | 360 | 0.0 | 0.0 | 0.00 | 0.00 | 0.00 | 91 | 1015.2 |
| 20260905124820 | 24 | 360 | 0.0 | 0.0 | 0.00 | 0.00 | 0.00 | 91 | 1015.2 |
| 20260905124741 | 24 | 360 | 0.0 | 0.0 | 0.00 | 0.00 | 0.00 | 91 | 1015.2 |
| 20260905124621 | 24 | 360 | 0.0 | 0.0 | 0.00 | 0.00 | 0.00 | 91 | 1015.2 |
| 20260905124519 | 24 | 360 | 0.0 | 0.0 | 0.00 | 0.00 | 0.00 | 91 | 1015.2 |
| 20260905124420 | 24 | 360 | 0.0 | 0.0 | 0.00 | 0.00 | 0.00 | 91 | 1015.2 |
| 20260905124320 | 23 | 360 | 0.0 | 0.0 | 0.00 | 0.00 | 0.00 | 91 | 1015.1 |
| 20260905124220 | 23 | 185 | 0.0 | 0.0 | 0.00 | 0.00 | 0.00 | 91 | 1015.1 |
| 20260905124141 | 23 | 360 | 0.0 | 0.0 | 0.00 | 0.00 | 0.00 | 91 | 1015.2 |
| 20260905124041 | 23 | 185 | 0.0 | 0.0 | 0.00 | 0.00 | 0.00 | 91 | 1015.1 |
| 20260905123925 | 23 | 185 | 0.0 | 0.0 | 0.00 | 0.00 | 0.00 | 91 | 1015.1 |
| 20260905123825 | 23 | 185 | 0.0 | 0.0 | 0.00 | 0.00 | 0.00 | 91 | 1015.1 |
| 20260905123724 | 23 | 360 | 0.0 | 0.0 | 0.00 | 0.00 | 0.00 | 91 | 1015.1 |
| 20260905123624 | 23 | 185 | 0.0 | 0.0 | 0.00 | 0.00 | 0.00 | 91 | 1015.1 |
| 20260905123523 | 23 | 185 | 0.0 | 0.0 | 0.00 | 0.00 | 0.00 | 91 | 1015.1 |
| 20260905123423 | 23 | 185 | 0.0 | 0.0 | 0.00 | 0.00 | 0.00 | 91 | 1015.2 |
| 20260905123324 | 23 | 185 | 0.0 | 0.0 | 0.00 | 0.00 | 0.00 | 91 | 1015.1 |
| 20260905123228 | 23 | 185 | 0.0 | 0.0 | 0.00 | 0.00 | 0.00 | 91 | 1015.1 |
| 20260905123129 | 23 | 185 | 0.0 | 0.0 | 0.00 | 0.00 | 0.00 | 91 | 1015.1 |
| 20260905123030 | 23 | 185 | 0.0 | 0.0 | 0.00 | 0.00 | 0.00 | 91 | 1015.1 |
| 20260905122931 | 23 | 185 | 0.0 | 0.0 | 0.00 | 0.00 | 0.00 | 91 | 1015.1 |
| 20260905122833 | 23 | 185 | 0.0 | 0.0 | 0.00 | 0.00 | 0.00 | 91 | 1015.2 |
| 20260905122733 | 23 | 185 | 0.0 | 0.0 | 0.00 | 0.00 | 0.00 | 91 | 1015.1 |
| 20260905122617 | 23 | 185 | 0.0 | 0.0 | 0.00 | 0.00 | 0.00 | 91 | 1015.1 |
| 20260905122517 | 23 | 185 | 0.0 | 0.0 | 0.00 | 0.00 | 0.00 | 90 | 1015.2 |
| 20260905122419 | 23 | 185 | 0.0 | 0.0 | 0.00 | 0.00 | 0.00 | 90 | 1015.1 |
| 20260905122319 | 23 | 185 | 0.0 | 0.0 | 0.00 | 0.00 | 0.00 | 90 | 1015.2 |
| 20260905122221 | 23 | 185 | 0.0 | 0.0 | 0.00 | 0.00 | 0.00 | 90 | 1015.2 |
| 20260905122121 | 23 | 185 | 0.0 | 0.0 | 0.00 | 0.00 | 0.00 | 91 | 1015.1 |
| 20260905122021 | 23 | 185 | 0.0 | 0.0 | 0.00 | 0.00 | 0.00 | 91 | 1015.2 |
| 20260905121926 | 23 | 185 | 0.0 | 0.0 | 0.00 | 0.00 | 0.00 | 90 | 1015.1 |
| 20260905121847 | 23 | 185 | 0.0 | 0.0 | 0.00 | 0.00 | 0.00 | 90 | 1015.1 |
| 20260905121726 | 23 | 185 | 0.0 | 0.0 | 0.00 | 0.00 | 0.00 | 90 | 1015.1 |
| 20260905121627 | 23 | 185 | 0.0 | 0.0 | 0.00 | 0.00 | 0.00 | 90 | 1015.2 |
| 20260905121526 | 23 | 185 | 0.0 | 0.0 | 0.00 | 0.00 | 0.00 | 90 | 1015.1 |
| 20260905121447 | 23 | 360 | 0.0 | 0.0 | 0.00 | 0.00 | 0.00 | 90 | 1015.1 |
| 20260905121327 | 23 | 185 | 0.0 | 0.0 | 0.00 | 0.00 | 0.00 | 90 | 1015.1 |
| 20260905121232 | 23 | 185 | 0.0 | 0.0 | 0.00 | 0.00 | 0.00 | 90 | 1015.1 |
| 20260905121132 | 23 | 185 | 0.0 | 0.0 | 0.00 | 0.00 | 0.00 | 90 | 1015.1 |
| 20260905121033 | 24 | 185 | 0.0 | 0.0 | 0.00 | 0.00 | 0.00 | 90 | 1015.0 |
| 20260905120934 | 24 | 185 | 0.0 | 0.0 | 0.00 | 0.00 | 0.00 | 90 | 1015.0 |
| 20260905120835 | 24 | 360 | 0.0 | 0.0 | 0.00 | 0.00 | 0.00 | 90 | 1015.0 |
| 20260905120735 | 24 | 360 | 0.0 | 0.0 | 0.00 | 0.00 | 0.00 | 90 | 1015.0 |
| 20260905120620 | 24 | 360 | 0.0 | 0.0 | 0.00 | 0.00 | 0.00 | 90 | 1015.0 |
| 20260905120519 | 24 | 360 | 0.0 | 0.0 | 0.00 | 0.00 | 0.00 | 90 | 1015.0 |
| 20260905120421 | 24 | 360 | 0.0 | 0.0 | 0.00 | 0.00 | 0.00 | 90 | 1014.9 |
| 20260905120321 | 24 | 360 | 0.0 | 0.0 | 0.00 | 0.00 | 0.00 | 90 | 1015.0 |
| 20260905120242 | 24 | 360 | 0.0 | 0.0 | 0.00 | 0.00 | 0.00 | 90 | 1015.0 |
| 20260905120121 | 24 | 360 | 0.0 | 0.0 | 0.00 | 0.00 | 0.00 | 90 | 1015.0 |
| 20260905120021 | 24 | 360 | 0.0 | 0.0 | 0.00 | 0.00 | 0.00 | 90 | 1015.0 |
| 20260905115921 | 24 | 185 | 0.0 | 0.0 | 0.00 | 0.00 | 0.00 | 90 | 1015.0 |
| 20260905115827 | 24 | 360 | 0.0 | 0.0 | 0.00 | 0.00 | 0.00 | 90 | 1015.0 |
| 20260905115727 | 24 | 185 | 0.0 | 0.0 | 0.00 | 0.00 | 0.00 | 90 | 1015.0 |
| 20260905115646 | 24 | 185 | 0.0 | 0.0 | 0.00 | 0.00 | 0.00 | 90 | 1015.1 |
| 20260905115526 | 24 | 360 | 0.0 | 0.0 | 0.00 | 0.00 | 0.00 | 90 | 1015.0 |
| 20260905115427 | 24 | 360 | 0.0 | 0.0 | 0.00 | 0.00 | 0.00 | 90 | 1015.0 |
| 20260905115327 | 24 | 360 | 0.0 | 0.0 | 0.00 | 0.00 | 0.00 | 90 | 1015.1 |
| 20260905115228 | 24 | 360 | 0.0 | 0.0 | 0.00 | 0.00 | 0.00 | 90 | 1015.1 |
| 20260905115133 | 24 | 360 | 0.0 | 0.0 | 0.00 | 0.00 | 0.00 | 90 | 1015.0 |
| 20260905115034 | 24 | 360 | 0.0 | 0.0 | 0.00 | 0.00 | 0.00 | 90 | 1015.0 |
| 20260905114935 | 24 | 360 | 0.0 | 0.0 | 0.00 | 0.00 | 0.00 | 90 | 1015.0 |
| 20260905114836 | 24 | 360 | 0.0 | 0.0 | 0.00 | 0.00 | 0.00 | 90 | 1014.9 |
| 20260905114717 | 24 | 360 | 0.0 | 0.0 | 0.00 | 0.00 | 0.00 | 90 | 1014.9 |
| 20260905114617 | 24 | 360 | 0.0 | 0.0 | 0.00 | 0.00 | 0.00 | 90 | 1014.9 |
| 20260905114520 | 24 | 360 | 0.0 | 0.0 | 0.00 | 0.00 | 0.00 | 90 | 1014.9 |
| 20260905114421 | 24 | 360 | 0.0 | 0.0 | 0.00 | 0.00 | 0.00 | 90 | 1015.0 |
| 20260905114321 | 24 | 360 | 0.0 | 0.0 | 0.00 | 0.00 | 0.00 | 90 | 1014.9 |
| 20260905114242 | 24 | 185 | 0.0 | 0.0 | 0.00 | 0.00 | 0.00 | 90 | 1014.8 |
| 20260905114123 | 24 | 185 | 0.0 | 0.0 | 0.00 | 0.00 | 0.00 | 90 | 1014.8 |
| 20260905114045 | 23 | 185 | 0.0 | 0.0 | 0.00 | 0.00 | 0.00 | 90 | 1014.7 |
| 20260905113925 | 24 | 360 | 0.0 | 0.0 | 0.00 | 0.00 | 0.00 | 90 | 1014.8 |
| 20260905113825 | 23 | 360 | 0.0 | 0.0 | 0.00 | 0.00 | 0.00 | 90 | 1014.8 |
| 20260905113750 | 24 | 185 | 0.0 | 0.0 | 0.00 | 0.00 | 0.00 | 90 | 1014.8 |
| 20260905113631 | 24 | 185 | 0.0 | 0.0 | 0.00 | 0.00 | 0.00 | 90 | 1014.7 |
| 20260905113552 | 24 | 185 | 0.0 | 0.0 | 0.00 | 0.00 | 0.00 | 90 | 1014.8 |
| 20260905113452 | 24 | 185 | 0.0 | 0.0 | 0.00 | 0.00 | 0.00 | 90 | 1014.7 |
| 20260905113352 | 24 | 360 | 0.0 | 0.0 | 0.00 | 0.00 | 0.00 | 89 | 1014.8 |
| 20260905113231 | 24 | 360 | 0.0 | 0.0 | 0.00 | 0.00 | 0.00 | 89 | 1014.8 |
| 20260905113132 | 24 | 360 | 0.0 | 0.0 | 0.00 | 0.00 | 0.00 | 90 | 1014.7 |
| 20260905113033 | 24 | 360 | 0.0 | 0.0 | 0.00 | 0.00 | 0.00 | 90 | 1014.8 |
| 20260905112918 | 24 | 360 | 0.0 | 0.0 | 0.00 | 0.00 | 0.00 | 90 | 1014.8 |
| 20260905112819 | 24 | 360 | 0.0 | 0.0 | 0.00 | 0.00 | 0.00 | 90 | 1014.8 |
| 20260905112720 | 24 | 360 | 0.0 | 0.0 | 0.00 | 0.00 | 0.00 | 90 | 1014.8 |
| 20260905112641 | 24 | 360 | 0.0 | 0.0 | 0.00 | 0.00 | 0.00 | 90 | 1014.8 |
| 20260905112520 | 24 | 360 | 0.0 | 0.0 | 0.00 | 0.00 | 0.00 | 89 | 1014.8 |
| 20260905112421 | 24 | 360 | 0.0 | 0.0 | 0.00 | 0.00 | 0.00 | 89 | 1014.8 |
| 20260905112321 | 24 | 360 | 0.0 | 0.0 | 0.00 | 0.00 | 0.00 | 89 | 1014.8 |
| 20260905112246 | 24 | 360 | 0.0 | 0.0 | 0.00 | 0.00 | 0.00 | 89 | 1014.8 |
| 20260905112125 | 24 | 360 | 0.0 | 0.0 | 0.00 | 0.00 | 0.00 | 89 | 1014.8 |
| 20260905112025 | 24 | 360 | 0.0 | 0.0 | 0.00 | 0.00 | 0.00 | 89 | 1014.7 |
| 20260905111927 | 24 | 360 | 0.0 | 0.0 | 0.00 | 0.00 | 0.00 | 89 | 1014.7 |
| 20260905111828 | 24 | 360 | 0.0 | 0.0 | 0.00 | 0.00 | 0.00 | 89 | 1014.7 |
| 20260905111728 | 24 | 360 | 0.0 | 0.0 | 0.00 | 0.00 | 0.00 | 89 | 1014.7 |
| 20260905111630 | 24 | 360 | 0.0 | 0.0 | 0.00 | 0.00 | 0.00 | 89 | 1014.7 |
| 20260905111534 | 24 | 360 | 0.0 | 0.0 | 0.00 | 0.00 | 0.00 | 89 | 1014.6 |
| 20260905111435 | 24 | 360 | 0.0 | 0.0 | 0.00 | 0.00 | 0.00 | 89 | 1014.6 |
| 20260905111335 | 24 | 360 | 0.0 | 0.0 | 0.00 | 0.00 | 0.00 | 89 | 1014.7 |
| 20260905111235 | 24 | 360 | 0.0 | 0.0 | 0.00 | 0.00 | 0.00 | 89 | 1014.6 |
| 20260905111117 | 24 | 360 | 0.0 | 0.0 | 0.00 | 0.00 | 0.00 | 89 | 1014.7 |
| 20260905111038 | 24 | 360 | 0.0 | 0.0 | 0.00 | 0.00 | 0.00 | 89 | 1014.7 |
| 20260905110922 | 24 | 360 | 0.0 | 0.0 | 0.00 | 0.00 | 0.00 | 89 | 1014.6 |
| 20260905110822 | 24 | 360 | 0.0 | 0.0 | 0.00 | 0.00 | 0.00 | 89 | 1014.6 |
| 20260905110723 | 24 | 360 | 0.0 | 0.0 | 0.00 | 0.00 | 0.00 | 89 | 1014.6 |
| 20260905110625 | 24 | 360 | 0.0 | 0.0 | 0.00 | 0.00 | 0.00 | 89 | 1014.7 |
| 20260905110526 | 24 | 360 | 0.0 | 0.0 | 0.00 | 0.00 | 0.00 | 89 | 1014.7 |
| 20260905110425 | 24 | 360 | 0.0 | 0.0 | 0.00 | 0.00 | 0.00 | 89 | 1014.7 |
| 20260905110326 | 24 | 360 | 0.0 | 0.0 | 0.00 | 0.00 | 0.00 | 89 | 1014.7 |
| 20260905110250 | 24 | 360 | 0.0 | 0.0 | 0.00 | 0.00 | 0.00 | 89 | 1014.6 |
| 20260905110130 | 24 | 360 | 0.0 | 0.0 | 0.00 | 0.00 | 0.00 | 89 | 1014.6 |
| 20260905110029 | 24 | 360 | 0.0 | 0.0 | 0.00 | 0.00 | 0.00 | 89 | 1014.6 |
| 20260905105930 | 24 | 360 | 0.0 | 0.0 | 0.00 | 0.00 | 0.00 | 89 | 1014.6 |
| 20260905105832 | 24 | 360 | 0.0 | 0.0 | 0.00 | 0.00 | 0.00 | 89 | 1014.6 |
| 20260905105752 | 24 | 360 | 0.0 | 0.0 | 0.00 | 0.00 | 0.00 | 89 | 1014.6 |
| 20260905105631 | 24 | 360 | 0.0 | 0.0 | 0.00 | 0.00 | 0.00 | 89 | 1014.6 |
| 20260905105516 | 24 | 360 | 0.0 | 0.0 | 0.00 | 0.00 | 0.00 | 89 | 1014.7 |
| 20260905105416 | 24 | 360 | 0.0 | 0.0 | 0.00 | 0.00 | 0.00 | 89 | 1014.6 |
| 20260905105337 | 24 | 360 | 0.0 | 0.0 | 0.00 | 0.00 | 0.00 | 89 | 1014.6 |
| 20260905105236 | 24 | 360 | 0.0 | 0.0 | 0.00 | 0.00 | 0.00 | 89 | 1014.5 |
| 20260905105116 | 24 | 360 | 0.0 | 0.0 | 0.00 | 0.00 | 0.00 | 89 | 1014.6 |
| 20260905105017 | 24 | 360 | 0.0 | 0.0 | 0.00 | 0.00 | 0.00 | 89 | 1014.6 |
| 20260905104918 | 25 | 360 | 0.0 | 0.0 | 0.00 | 0.00 | 0.00 | 89 | 1014.5 |
| 20260905104823 | 24 | 360 | 0.0 | 0.0 | 0.00 | 0.00 | 0.00 | 89 | 1014.5 |
| 20260905104724 | 24 | 360 | 0.0 | 0.0 | 0.00 | 0.00 | 0.00 | 89 | 1014.5 |
| 20260905104624 | 25 | 360 | 0.0 | 0.0 | 0.00 | 0.00 | 0.00 | 89 | 1014.5 |
| 20260905104525 | 25 | 360 | 0.0 | 0.0 | 0.00 | 0.00 | 0.00 | 89 | 1014.5 |
| 20260905104445 | 25 | 360 | 0.0 | 0.0 | 0.00 | 0.00 | 0.00 | 89 | 1014.6 |
| 20260905104325 | 25 | 360 | 0.0 | 0.0 | 0.00 | 0.00 | 0.00 | 89 | 1014.5 |
| 20260905104245 | 25 | 360 | 0.0 | 0.0 | 0.00 | 0.00 | 0.00 | 89 | 1014.5 |
| 20260905104125 | 25 | 360 | 0.0 | 0.0 | 0.00 | 0.00 | 0.00 | 89 | 1014.6 |
| 20260905104029 | 25 | 360 | 0.0 | 0.0 | 0.00 | 0.00 | 0.00 | 89 | 1014.5 |
| 20260905103930 | 25 | 360 | 0.0 | 0.0 | 0.00 | 0.00 | 0.00 | 89 | 1014.5 |
| 20260905103830 | 25 | 360 | 0.0 | 0.0 | 0.00 | 0.00 | 0.00 | 89 | 1014.5 |
| 20260905103751 | 25 | 360 | 0.0 | 0.0 | 0.00 | 0.00 | 0.00 | 89 | 1014.5 |
| 20260905103629 | 25 | 360 | 0.0 | 0.0 | 0.00 | 0.00 | 0.00 | 89 | 1014.5 |
| 20260905103528 | 25 | 360 | 0.0 | 0.0 | 0.00 | 0.00 | 0.00 | 89 | 1014.5 |
| 20260905103429 | 25 | 360 | 0.0 | 0.0 | 0.00 | 0.00 | 0.00 | 89 | 1014.5 |
| 20260905103334 | 25 | 360 | 0.0 | 0.0 | 0.00 | 0.00 | 0.00 | 89 | 1014.6 |
| 20260905103235 | 25 | 360 | 0.0 | 0.0 | 0.00 | 0.00 | 0.00 | 89 | 1014.5 |
| 20260905103134 | 25 | 360 | 0.0 | 0.0 | 0.00 | 0.00 | 0.00 | 89 | 1014.6 |
| 20260905103034 | 25 | 360 | 0.0 | 0.0 | 0.00 | 0.00 | 0.00 | 89 | 1014.5 |
| 20260905102935 | 25 | 360 | 0.0 | 0.0 | 0.00 | 0.00 | 0.00 | 89 | 1014.6 |
| 20260905102836 | 25 | 360 | 0.0 | 0.0 | 0.00 | 0.00 | 0.00 | 89 | 1014.5 |
| 20260905102716 | 25 | 360 | 0.0 | 0.0 | 0.00 | 0.00 | 0.00 | 89 | 1014.5 |
| 20260905102640 | 25 | 360 | 0.0 | 0.0 | 0.00 | 0.00 | 0.00 | 89 | 1014.4 |
| 20260905102519 | 25 | 360 | 0.0 | 0.0 | 0.00 | 0.00 | 0.00 | 89 | 1014.5 |
| 20260905102419 | 25 | 360 | 0.0 | 3.2 | 0.00 | 0.00 | 0.00 | 89 | 1014.4 |
| 20260905102320 | 25 | 360 | 0.0 | 3.2 | 0.00 | 0.00 | 0.00 | 89 | 1014.5 |
| 20260905102220 | 25 | 360 | 0.0 | 3.2 | 0.00 | 0.00 | 0.00 | 89 | 1014.5 |
| 20260905102120 | 25 | 360 | 0.0 | 3.2 | 0.00 | 0.00 | 0.00 | 89 | 1014.5 |
| 20260905102042 | 25 | 360 | 0.0 | 3.2 | 0.00 | 0.00 | 0.00 | 89 | 1014.5 |
| 20260905101921 | 25 | 360 | 0.0 | 4.8 | 0.00 | 0.00 | 0.00 | 89 | 1014.5 |
| 20260905101842 | 25 | 360 | 0.0 | 4.8 | 0.00 | 0.00 | 0.00 | 89 | 1014.5 |
| 20260905101726 | 25 | 360 | 0.0 | 4.8 | 0.00 | 0.00 | 0.00 | 89 | 1014.5 |
| 20260905101646 | 25 | 360 | 1.6 | 4.8 | 0.00 | 0.00 | 0.00 | 89 | 1014.4 |
| 20260905101525 | 25 | 360 | 1.6 | 4.8 | 0.00 | 0.00 | 0.00 | 89 | 1014.4 |
| 20260905101426 | 25 | 360 | 1.6 | 4.8 | 0.00 | 0.00 | 0.00 | 89 | 1014.4 |
| 20260905101347 | 25 | 360 | 1.6 | 4.8 | 0.00 | 0.00 | 0.00 | 89 | 1014.3 |
| 20260905101228 | 25 | 360 | 1.6 | 4.8 | 0.00 | 0.00 | 0.00 | 89 | 1014.4 |
| 20260905101126 | 25 | 360 | 1.6 | 4.8 | 0.00 | 0.00 | 0.00 | 89 | 1014.4 |
| 20260905101027 | 25 | 360 | 1.6 | 4.8 | 0.00 | 0.00 | 0.00 | 89 | 1014.3 |
| 20260905100952 | 25 | 360 | 0.0 | 3.2 | 0.00 | 0.00 | 0.00 | 89 | 1014.4 |
| 20260905100831 | 25 | 360 | 0.0 | 1.6 | 0.00 | 0.00 | 0.00 | 89 | 1014.4 |
| 20260905100732 | 25 | 185 | 0.0 | 1.6 | 0.00 | 0.00 | 0.00 | 89 | 1014.4 |
| 20260905100632 | 25 | 360 | 0.0 | 1.6 | 0.00 | 0.00 | 0.00 | 89 | 1014.5 |
| 20260905100533 | 25 | 360 | 0.0 | 3.2 | 0.00 | 0.00 | 0.00 | 89 | 1014.4 |
| 20260905100454 | 25 | 360 | 0.0 | 3.2 | 0.00 | 0.00 | 0.00 | 89 | 1014.5 |
| 20260905100334 | 25 | 360 | 0.0 | 3.2 | 0.00 | 0.00 | 0.00 | 88 | 1014.4 |
| 20260905100219 | 25 | 360 | 0.0 | 3.2 | 0.00 | 0.00 | 0.00 | 88 | 1014.5 |
| 20260905100118 | 25 | 360 | 0.0 | 3.2 | 0.00 | 0.00 | 0.00 | 88 | 1014.4 |
| 20260905100019 | 25 | 360 | 0.0 | 3.2 | 0.00 | 0.00 | 0.00 | 88 | 1014.4 |
| 20260905095939 | 25 | 360 | 1.6 | 3.2 | 0.00 | 0.00 | 0.00 | 88 | 1014.5 |
| 20260905095820 | 25 | 360 | 1.6 | 3.2 | 0.00 | 0.00 | 0.00 | 88 | 1014.5 |
| 20260905095718 | 25 | 360 | 1.6 | 3.2 | 0.00 | 0.00 | 0.00 | 88 | 1014.4 |
| 20260905095619 | 25 | 360 | 1.6 | 3.2 | 0.00 | 0.00 | 0.00 | 88 | 1014.4 |
| 20260905095524 | 25 | 360 | 1.6 | 3.2 | 0.00 | 0.00 | 0.00 | 88 | 1014.4 |
| 20260905095425 | 25 | 360 | 1.6 | 3.2 | 0.00 | 0.00 | 0.00 | 88 | 1014.4 |
| 20260905095346 | 25 | 360 | 1.6 | 3.2 | 0.00 | 0.00 | 0.00 | 88 | 1014.4 |
| 20260905095224 | 25 | 360 | 1.6 | 3.2 | 0.00 | 0.00 | 0.00 | 88 | 1014.4 |
| 20260905095126 | 25 | 360 | 0.0 | 1.6 | 0.00 | 0.00 | 0.00 | 88 | 1014.3 |
| 20260905095026 | 25 | 360 | 0.0 | 1.6 | 0.00 | 0.00 | 0.00 | 88 | 1014.4 |
| 20260905094926 | 25 | 360 | 0.0 | 0.0 | 0.00 | 0.00 | 0.00 | 88 | 1014.3 |
| 20260905094827 | 25 | 360 | 0.0 | 0.0 | 0.00 | 0.00 | 0.00 | 88 | 1014.3 |
| 20260905094730 | 25 | 360 | 0.0 | 0.0 | 0.00 | 0.00 | 0.00 | 88 | 1014.3 |
| 20260905094650 | 25 | 360 | 0.0 | 0.0 | 0.00 | 0.00 | 0.00 | 88 | 1014.3 |
| 20260905094530 | 25 | 360 | 0.0 | 0.0 | 0.00 | 0.00 | 0.00 | 88 | 1014.3 |
| 20260905094431 | 25 | 360 | 0.0 | 0.0 | 0.00 | 0.00 | 0.00 | 89 | 1014.3 |
| 20260905094331 | 25 | 360 | 0.0 | 0.0 | 0.00 | 0.00 | 0.00 | 88 | 1014.3 |
| 20260905094232 | 25 | 360 | 0.0 | 0.0 | 0.00 | 0.00 | 0.00 | 88 | 1014.2 |
| 20260905094116 | 25 | 360 | 0.0 | 0.0 | 0.00 | 0.00 | 0.00 | 88 | 1014.2 |
| 20260905094037 | 25 | 185 | 0.0 | 0.0 | 0.00 | 0.00 | 0.00 | 88 | 1014.3 |
| 20260905093917 | 25 | 185 | 0.0 | 0.0 | 0.00 | 0.00 | 0.00 | 88 | 1014.2 |
| 20260905093817 | 25 | 185 | 0.0 | 1.6 | 0.00 | 0.00 | 0.00 | 88 | 1014.3 |
| 20260905093719 | 25 | 185 | 0.0 | 1.6 | 0.00 | 0.00 | 0.00 | 88 | 1014.2 |
| 20260905093621 | 25 | 185 | 0.0 | 1.6 | 0.00 | 0.00 | 0.00 | 88 | 1014.1 |
| 20260905093521 | 25 | 185 | 0.0 | 3.2 | 0.00 | 0.00 | 0.00 | 88 | 1014.2 |
| 20260905093426 | 25 | 360 | 0.0 | 3.2 | 0.00 | 0.00 | 0.00 | 88 | 1014.2 |
| 20260905093325 | 25 | 360 | 0.0 | 3.2 | 0.00 | 0.00 | 0.00 | 88 | 1014.1 |
| 20260905093225 | 25 | 360 | 0.0 | 3.2 | 0.00 | 0.00 | 0.00 | 88 | 1014.2 |
| 20260905093127 | 25 | 185 | 0.0 | 3.2 | 0.00 | 0.00 | 0.00 | 88 | 1014.1 |
| 20260905093028 | 25 | 185 | 0.0 | 3.2 | 0.00 | 0.00 | 0.00 | 88 | 1014.1 |
| 20260905092949 | 25 | 360 | 0.0 | 3.2 | 0.00 | 0.00 | 0.00 | 88 | 1014.1 |
| 20260905092829 | 25 | 360 | 0.0 | 3.2 | 0.00 | 0.00 | 0.00 | 88 | 1014.1 |
| 20260905092729 | 25 | 360 | 1.6 | 3.2 | 0.00 | 0.00 | 0.00 | 88 | 1014.1 |
| 20260905092633 | 25 | 360 | 1.6 | 3.2 | 0.00 | 0.00 | 0.00 | 88 | 1014.1 |
| 20260905092534 | 25 | 360 | 1.6 | 3.2 | 0.00 | 0.00 | 0.00 | 88 | 1014.2 |
| 20260905092454 | 25 | 360 | 1.6 | 3.2 | 0.00 | 0.00 | 0.00 | 88 | 1014.2 |
| 20260905092333 | 25 | 360 | 0.0 | 6.4 | 0.00 | 0.00 | 0.00 | 88 | 1014.2 |
| 20260905092253 | 25 | 360 | 0.0 | 6.4 | 0.00 | 0.00 | 0.00 | 88 | 1014.1 |
| 20260905092153 | 25 | 360 | 0.0 | 6.4 | 0.00 | 0.00 | 0.00 | 88 | 1014.2 |
| 20260905092032 | 25 | 360 | 0.0 | 6.4 | 0.00 | 0.00 | 0.00 | 88 | 1014.2 |
| 20260905091933 | 25 | 360 | 1.6 | 6.4 | 0.00 | 0.00 | 0.00 | 88 | 1014.2 |
| 20260905091817 | 25 | 360 | 1.6 | 6.4 | 0.00 | 0.00 | 0.00 | 88 | 1014.2 |
| 20260905091717 | 25 | 360 | 1.6 | 6.4 | 0.00 | 0.00 | 0.00 | 88 | 1014.2 |
| 20260905091618 | 25 | 360 | 1.6 | 6.4 | 0.00 | 0.00 | 0.00 | 89 | 1014.3 |
| 20260905091519 | 25 | 360 | 3.2 | 6.4 | 0.00 | 0.00 | 0.00 | 89 | 1014.3 |
| 20260905091419 | 25 | 360 | 3.2 | 8.0 | 0.00 | 0.00 | 0.00 | 88 | 1014.4 |
| 20260905091319 | 25 | 360 | 1.6 | 8.0 | 0.00 | 0.00 | 0.00 | 88 | 1014.4 |
| 20260905091224 | 25 | 360 | 1.6 | 8.0 | 0.00 | 0.00 | 0.00 | 88 | 1014.4 |
| 20260905091126 | 25 | 360 | 1.6 | 8.0 | 0.00 | 0.00 | 0.00 | 88 | 1014.3 |
| 20260905091026 | 25 | 185 | 1.6 | 8.0 | 0.00 | 0.00 | 0.00 | 88 | 1014.3 |
| 20260905090927 | 25 | 360 | 1.6 | 8.0 | 0.00 | 0.00 | 0.00 | 88 | 1014.3 |
| 20260905090825 | 25 | 360 | 3.2 | 8.0 | 0.00 | 0.00 | 0.00 | 88 | 1014.3 |
| 20260905090725 | 25 | 360 | 3.2 | 8.0 | 0.00 | 0.00 | 0.00 | 88 | 1014.4 |
| 20260905090625 | 25 | 360 | 4.8 | 8.0 | 0.00 | 0.00 | 0.00 | 88 | 1014.4 |
| 20260905090530 | 25 | 360 | 4.8 | 8.0 | 0.00 | 0.00 | 0.00 | 88 | 1014.3 |
| 20260905090451 | 25 | 360 | 3.2 | 6.4 | 0.00 | 0.00 | 0.00 | 88 | 1014.3 |
| 20260905090330 | 25 | 360 | 3.2 | 6.4 | 0.00 | 0.00 | 0.00 | 88 | 1014.3 |
| 20260905090230 | 25 | 360 | 3.2 | 8.0 | 0.00 | 0.00 | 0.00 | 88 | 1014.3 |
| 20260905090131 | 25 | 360 | 3.2 | 8.0 | 0.00 | 0.00 | 0.00 | 88 | 1014.3 |
| 20260905090051 | 25 | 360 | 3.2 | 8.0 | 0.00 | 0.00 | 0.00 | 88 | 1014.3 |
| 20260905085930 | 25 | 360 | 3.2 | 8.0 | 0.00 | 0.00 | 0.00 | 88 | 1014.3 |
| 20260905085832 | 25 | 360 | 3.2 | 9.7 | 0.00 | 0.00 | 0.00 | 88 | 1014.3 |
| 20260905085734 | 25 | 360 | 1.6 | 9.7 | 0.00 | 0.00 | 0.00 | 88 | 1014.5 |
| 20260905085634 | 25 | 185 | 1.6 | 12.9 | 0.00 | 0.00 | 0.00 | 88 | 1014.3 |
| 20260905085534 | 25 | 360 | 3.2 | 12.9 | 0.00 | 0.00 | 0.00 | 88 | 1014.4 |
| 20260905085455 | 25 | 360 | 3.2 | 12.9 | 0.00 | 0.00 | 0.00 | 88 | 1014.4 |
| 20260905085334 | 25 | 360 | 3.2 | 12.9 | 0.00 | 0.00 | 0.00 | 88 | 1014.4 |
| 20260905085235 | 25 | 360 | 3.2 | 12.9 | 0.00 | 0.00 | 0.00 | 88 | 1014.4 |
| 20260905085156 | 25 | 360 | 3.2 | 12.9 | 0.00 | 0.00 | 0.00 | 88 | 1014.4 |
| 20260905085019 | 25 | 360 | 4.8 | 12.9 | 0.00 | 0.00 | 0.00 | 88 | 1014.4 |
| 20260905084919 | 25 | 360 | 6.4 | 12.9 | 0.00 | 0.00 | 0.00 | 88 | 1014.4 |
| 20260905084819 | 25 | 360 | 6.4 | 12.9 | 0.00 | 0.00 | 0.00 | 88 | 1014.4 |
| 20260905084718 | 25 | 360 | 6.4 | 12.9 | 0.00 | 0.00 | 0.00 | 88 | 1014.4 |
| 20260905084619 | 25 | 360 | 4.8 | 12.9 | 0.00 | 0.00 | 0.00 | 87 | 1014.5 |
| 20260905084520 | 25 | 360 | 6.4 | 16.1 | 0.00 | 0.00 | 0.00 | 87 | 1014.4 |
| 20260905084420 | 25 | 360 | 4.8 | 16.1 | 0.00 | 0.00 | 0.00 | 87 | 1014.5 |
| 20260905084320 | 25 | 360 | 6.4 | 16.1 | 0.00 | 0.00 | 0.00 | 87 | 1014.4 |
| 20260905084225 | 25 | 360 | 6.4 | 16.1 | 0.00 | 0.00 | 0.00 | 87 | 1014.4 |
| 20260905084127 | 25 | 360 | 6.4 | 16.1 | 0.00 | 0.00 | 0.00 | 87 | 1014.4 |
| 20260905084028 | 25 | 360 | 6.4 | 16.1 | 0.00 | 0.00 | 0.00 | 87 | 1014.4 |
| 20260905083928 | 25 | 360 | 8.0 | 16.1 | 0.00 | 0.00 | 0.00 | 87 | 1014.4 |
| 20260905083828 | 25 | 360 | 8.0 | 16.1 | 0.00 | 0.00 | 0.00 | 87 | 1014.4 |
| 20260905083729 | 25 | 360 | 8.0 | 16.1 | 0.00 | 0.00 | 0.00 | 87 | 1014.4 |
| 20260905083633 | 25 | 360 | 6.4 | 16.1 | 0.00 | 0.00 | 0.00 | 87 | 1014.5 |
| 20260905083554 | 25 | 360 | 6.4 | 16.1 | 0.00 | 0.00 | 0.00 | 87 | 1014.5 |
| 20260905083434 | 25 | 360 | 6.4 | 16.1 | 0.00 | 0.00 | 0.00 | 87 | 1014.4 |
| 20260905083335 | 25 | 360 | 8.0 | 16.1 | 0.00 | 0.00 | 0.00 | 87 | 1014.5 |
| 20260905083216 | 25 | 360 | 6.4 | 16.1 | 0.00 | 0.00 | 0.00 | 87 | 1014.4 |
| 20260905083116 | 25 | 360 | 8.0 | 16.1 | 0.00 | 0.00 | 0.00 | 87 | 1014.5 |
| 20260905083038 | 25 | 360 | 6.4 | 14.5 | 0.00 | 0.00 | 0.00 | 87 | 1014.5 |
| 20260905082921 | 25 | 360 | 6.4 | 14.5 | 0.00 | 0.00 | 0.00 | 87 | 1014.5 |
| 20260905082822 | 25 | 360 | 6.4 | 14.5 | 0.00 | 0.00 | 0.00 | 87 | 1014.4 |
| 20260905082719 | 25 | 360 | 4.8 | 14.5 | 0.00 | 0.00 | 0.00 | 87 | 1014.5 |
| 20260905082620 | 25 | 360 | 4.8 | 14.5 | 0.00 | 0.00 | 0.00 | 87 | 1014.4 |
| 20260905082541 | 25 | 360 | 4.8 | 16.1 | 0.00 | 0.00 | 0.00 | 87 | 1014.5 |
| 20260905082420 | 25 | 360 | 6.4 | 16.1 | 0.00 | 0.00 | 0.00 | 87 | 1014.5 |
| 20260905082320 | 25 | 360 | 8.0 | 16.1 | 0.00 | 0.00 | 0.00 | 87 | 1014.4 |
| 20260905082219 | 25 | 360 | 6.4 | 16.1 | 0.00 | 0.00 | 0.00 | 87 | 1014.4 |
| 20260905082125 | 25 | 360 | 4.8 | 16.1 | 0.00 | 0.00 | 0.00 | 87 | 1014.5 |
| 20260905082025 | 25 | 360 | 3.2 | 16.1 | 0.00 | 0.00 | 0.00 | 87 | 1014.5 |
| 20260905081926 | 25 | 360 | 4.8 | 16.1 | 0.00 | 0.00 | 0.00 | 86 | 1014.5 |
| 20260905081826 | 25 | 360 | 6.4 | 16.1 | 0.00 | 0.00 | 0.00 | 86 | 1014.6 |
| 20260905081746 | 25 | 360 | 6.4 | 16.1 | 0.00 | 0.00 | 0.00 | 86 | 1014.6 |
| 20260905081625 | 25 | 360 | 4.8 | 14.5 | 0.00 | 0.00 | 0.00 | 86 | 1014.6 |
| 20260905081526 | 26 | 360 | 3.2 | 12.9 | 0.00 | 0.00 | 0.00 | 86 | 1014.6 |
| 20260905081430 | 26 | 360 | 3.2 | 12.9 | 0.00 | 0.00 | 0.00 | 86 | 1014.6 |
| 20260905081351 | 25 | 360 | 3.2 | 12.9 | 0.00 | 0.00 | 0.00 | 86 | 1014.6 |
| 20260905081231 | 26 | 360 | 3.2 | 12.9 | 0.00 | 0.00 | 0.00 | 86 | 1014.7 |
| 20260905081132 | 26 | 360 | 4.8 | 12.9 | 0.00 | 0.00 | 0.00 | 86 | 1014.6 |
| 20260905081031 | 26 | 360 | 6.4 | 12.9 | 0.00 | 0.00 | 0.00 | 86 | 1014.6 |
| 20260905080932 | 26 | 360 | 4.8 | 12.9 | 0.00 | 0.00 | 0.00 | 86 | 1014.7 |
| 20260905080832 | 26 | 360 | 6.4 | 14.5 | 0.00 | 0.00 | 0.00 | 86 | 1014.7 |
| 20260905080717 | 26 | 360 | 6.4 | 14.5 | 0.00 | 0.00 | 0.00 | 86 | 1014.7 |
| 20260905080617 | 26 | 360 | 6.4 | 14.5 | 0.00 | 0.00 | 0.00 | 86 | 1014.8 |
| 20260905080517 | 26 | 360 | 4.8 | 16.1 | 0.00 | 0.00 | 0.00 | 86 | 1014.7 |
| 20260905080418 | 26 | 360 | 4.8 | 16.1 | 0.00 | 0.00 | 0.00 | 86 | 1014.8 |
| 20260905080318 | 26 | 360 | 4.8 | 16.1 | 0.00 | 0.00 | 0.00 | 86 | 1014.8 |
| 20260905080219 | 26 | 360 | 6.4 | 16.1 | 0.00 | 0.00 | 0.00 | 86 | 1014.8 |
| 20260905080123 | 26 | 360 | 6.4 | 16.1 | 0.00 | 0.00 | 0.00 | 86 | 1014.8 |
| 20260905080045 | 26 | 360 | 4.8 | 16.1 | 0.00 | 0.00 | 0.00 | 86 | 1014.8 |
| 20260905075925 | 26 | 360 | 6.4 | 16.1 | 0.00 | 0.00 | 0.00 | 86 | 1014.7 |
| 20260905075827 | 26 | 360 | 6.4 | 16.1 | 0.00 | 0.00 | 0.00 | 86 | 1014.8 |
| 20260905075727 | 26 | 360 | 6.4 | 16.1 | 0.00 | 0.00 | 0.00 | 86 | 1014.8 |
| 20260905075626 | 26 | 360 | 3.2 | 14.5 | 0.00 | 0.00 | 0.00 | 85 | 1014.8 |
| 20260905075527 | 26 | 360 | 3.2 | 14.5 | 0.00 | 0.00 | 0.00 | 85 | 1014.7 |
| 20260905075432 | 26 | 360 | 4.8 | 14.5 | 0.00 | 0.00 | 0.00 | 85 | 1014.8 |
| 20260905075332 | 26 | 360 | 6.4 | 14.5 | 0.00 | 0.00 | 0.00 | 85 | 1014.8 |
| 20260905075233 | 26 | 360 | 4.8 | 14.5 | 0.00 | 0.00 | 0.00 | 85 | 1014.8 |
| 20260905075132 | 26 | 360 | 4.8 | 14.5 | 0.00 | 0.00 | 0.00 | 85 | 1014.8 |
| 20260905075052 | 26 | 360 | 4.8 | 14.5 | 0.00 | 0.00 | 0.00 | 85 | 1014.8 |
| 20260905074932 | 26 | 360 | 8.0 | 14.5 | 0.00 | 0.00 | 0.00 | 85 | 1014.9 |
| 20260905074833 | 26 | 360 | 8.0 | 14.5 | 0.00 | 0.00 | 0.00 | 85 | 1014.8 |
| 20260905074754 | 26 | 360 | 8.0 | 14.5 | 0.00 | 0.00 | 0.00 | 85 | 1014.9 |
| 20260905074617 | 26 | 360 | 8.0 | 14.5 | 0.00 | 0.00 | 0.00 | 85 | 1014.8 |
| 20260905074517 | 26 | 360 | 8.0 | 14.5 | 0.00 | 0.00 | 0.00 | 85 | 1014.9 |
| 20260905074417 | 26 | 360 | 6.4 | 14.5 | 0.00 | 0.00 | 0.00 | 85 | 1015.0 |
| 20260905074338 | 26 | 360 | 6.4 | 17.7 | 0.00 | 0.00 | 0.00 | 85 | 1014.9 |
| 20260905074216 | 26 | 360 | 6.4 | 17.7 | 0.00 | 0.00 | 0.00 | 85 | 1014.9 |
| 20260905074118 | 26 | 360 | 6.4 | 17.7 | 0.00 | 0.00 | 0.00 | 85 | 1015.0 |
| 20260905074016 | 26 | 360 | 6.4 | 17.7 | 0.00 | 0.00 | 0.00 | 85 | 1015.0 |
| 20260905073916 | 26 | 177 | 6.4 | 17.7 | 0.00 | 0.00 | 0.00 | 85 | 1014.9 |
| 20260905073821 | 26 | 360 | 8.0 | 17.7 | 0.00 | 0.00 | 0.00 | 85 | 1014.8 |
| 20260905073723 | 26 | 360 | 8.0 | 17.7 | 0.00 | 0.00 | 0.00 | 85 | 1014.9 |
| 20260905073624 | 26 | 170 | 9.7 | 17.7 | 0.00 | 0.00 | 0.00 | 85 | 1014.9 |
| 20260905073523 | 26 | 360 | 8.0 | 17.7 | 0.00 | 0.00 | 0.00 | 85 | 1014.9 |
| 20260905073424 | 26 | 360 | 6.4 | 14.5 | 0.00 | 0.00 | 0.00 | 84 | 1014.9 |
| 20260905073325 | 26 | 360 | 4.8 | 14.5 | 0.00 | 0.00 | 0.00 | 84 | 1014.9 |
| 20260905073226 | 26 | 360 | 4.8 | 14.5 | 0.00 | 0.00 | 0.00 | 84 | 1014.8 |
| 20260905073151 | 26 | 360 | 4.8 | 14.5 | 0.00 | 0.00 | 0.00 | 84 | 1014.8 |
| 20260905073050 | 26 | 360 | 8.0 | 14.5 | 0.00 | 0.00 | 0.00 | 84 | 1014.8 |
| 20260905072930 | 26 | 360 | 8.0 | 14.5 | 0.00 | 0.00 | 0.00 | 84 | 1014.9 |
| 20260905072832 | 26 | 360 | 6.4 | 14.5 | 0.00 | 0.00 | 0.00 | 84 | 1014.8 |
| 20260905072732 | 26 | 360 | 6.4 | 12.9 | 0.00 | 0.00 | 0.00 | 84 | 1015.0 |
| 20260905072632 | 26 | 360 | 8.0 | 12.9 | 0.00 | 0.00 | 0.00 | 84 | 1014.9 |
| 20260905072533 | 26 | 360 | 8.0 | 12.9 | 0.00 | 0.00 | 0.00 | 84 | 1014.9 |
| 20260905072418 | 26 | 360 | 9.7 | 14.5 | 0.00 | 0.00 | 0.00 | 84 | 1015.0 |
| 20260905072319 | 26 | 360 | 8.0 | 14.5 | 0.00 | 0.00 | 0.00 | 84 | 1015.0 |
| 20260905072220 | 26 | 360 | 8.0 | 14.5 | 0.00 | 0.00 | 0.00 | 84 | 1015.0 |
| 20260905072141 | 26 | 360 | 8.0 | 14.5 | 0.00 | 0.00 | 0.00 | 84 | 1015.1 |
| 20260905072040 | 26 | 360 | 9.7 | 14.5 | 0.00 | 0.00 | 0.00 | 84 | 1015.0 |
| 20260905071941 | 26 | 360 | 9.7 | 14.5 | 0.00 | 0.00 | 0.00 | 84 | 1015.0 |
| 20260905071821 | 26 | 360 | 8.0 | 14.5 | 0.00 | 0.00 | 0.00 | 84 | 1015.0 |
| 20260905071721 | 26 | 360 | 8.0 | 12.9 | 0.00 | 0.00 | 0.00 | 84 | 1015.0 |
| 20260905071627 | 26 | 360 | 6.4 | 12.9 | 0.00 | 0.00 | 0.00 | 84 | 1015.1 |
| 20260905071528 | 26 | 360 | 6.4 | 9.7 | 0.00 | 0.00 | 0.00 | 84 | 1015.1 |
| 20260905071430 | 26 | 360 | 4.8 | 12.9 | 0.00 | 0.00 | 0.00 | 84 | 1015.1 |
| 20260905071331 | 26 | 360 | 6.4 | 12.9 | 0.00 | 0.00 | 0.00 | 84 | 1015.1 |
| 20260905071231 | 26 | 360 | 4.8 | 12.9 | 0.00 | 0.00 | 0.00 | 84 | 1015.1 |
| 20260905071132 | 26 | 360 | 6.4 | 12.9 | 0.00 | 0.00 | 0.00 | 84 | 1015.1 |
| 20260905071018 | 26 | 360 | 6.4 | 12.9 | 0.00 | 0.00 | 0.00 | 84 | 1015.1 |
| 20260905070919 | 26 | 360 | 4.8 | 12.9 | 0.00 | 0.00 | 0.00 | 84 | 1015.1 |
| 20260905070819 | 26 | 360 | 4.8 | 14.5 | 0.00 | 0.00 | 0.00 | 84 | 1015.1 |
| 20260905070720 | 26 | 360 | 6.4 | 14.5 | 0.00 | 0.00 | 0.00 | 84 | 1015.0 |
| 20260905070621 | 26 | 360 | 6.4 | 14.5 | 0.00 | 0.00 | 0.00 | 84 | 1015.1 |
| 20260905070521 | 26 | 360 | 6.4 | 14.5 | 0.00 | 0.00 | 0.00 | 84 | 1015.0 |
| 20260905070426 | 26 | 360 | 4.8 | 14.5 | 0.00 | 0.00 | 0.00 | 83 | 1015.0 |
| 20260905070327 | 26 | 360 | 4.8 | 16.1 | 0.00 | 0.00 | 0.00 | 83 | 1015.1 |
| 20260905070247 | 26 | 360 | 6.4 | 16.1 | 0.00 | 0.00 | 0.00 | 83 | 1015.0 |
| 20260905070126 | 26 | 360 | 6.4 | 16.1 | 0.00 | 0.00 | 0.00 | 83 | 1015.1 |
| 20260905070026 | 26 | 360 | 6.4 | 16.1 | 0.00 | 0.00 | 0.00 | 83 | 1015.0 |
| 20260905065927 | 26 | 360 | 6.4 | 16.1 | 0.00 | 0.00 | 0.00 | 83 | 1015.0 |
| 20260905065829 | 26 | 360 | 4.8 | 16.1 | 0.00 | 0.00 | 0.00 | 83 | 1015.1 |
| 20260905065732 | 26 | 360 | 3.2 | 16.1 | 0.00 | 0.00 | 0.00 | 83 | 1015.0 |
| 20260905065632 | 26 | 360 | 6.4 | 16.1 | 0.00 | 0.00 | 0.00 | 83 | 1015.0 |
| 20260905065533 | 26 | 360 | 6.4 | 16.1 | 0.00 | 0.00 | 0.00 | 83 | 1015.1 |
| 20260905065429 | 26 | 360 | 6.4 | 16.1 | 0.00 | 0.00 | 0.00 | 83 | 1015.0 |
| 20260905065330 | 26 | 360 | 6.4 | 12.9 | 0.00 | 0.00 | 0.00 | 83 | 1015.0 |
| 20260905065231 | 26 | 360 | 6.4 | 14.5 | 0.00 | 0.00 | 0.00 | 83 | 1015.2 |
| 20260905065117 | 26 | 360 | 6.4 | 14.5 | 0.00 | 0.00 | 0.00 | 83 | 1015.2 |
| 20260905065038 | 26 | 360 | 6.4 | 14.5 | 0.00 | 0.00 | 0.00 | 83 | 1015.1 |
| 20260905064918 | 26 | 360 | 6.4 | 14.5 | 0.00 | 0.00 | 0.00 | 83 | 1015.2 |